GFSSW_850_rhum_000.txt.gz
RH
89 90 91 84 36 32 37 46 46 45 82 97 98 71 68 84 88 97 85 66 69 65 61 61 60 55 55 61 59 70 84 89 74 66 54 37 37 31 30 28 27 26 24 24 25
95 85 89 84 76 32 40 50 48 45 54 87 98 95 89 96 100 96 73 75 72 69 68 73 65 56 60 72 63 82 96 78 63 56 48 43 41 39 33 32 32 29 27 25 25
85 99 83 86 82 58 41 55 53 50 56 65 86 99 98 100 100 90 77 74 80 82 84 81 71 60 68 76 73 80 86 68 61 54 49 49 45 41 38 46 35 32 28 28 27
76 92 93 86 83 69 36 57 60 81 89 61 67 86 97 98 92 76 71 75 78 86 98 89 82 66 79 83 74 88 78 72 63 59 61 59 55 48 41 40 33 34 36 29 31
80 80 93 92 87 77 39 54 60 72 77 68 69 61 90 99 93 56 59 61 66 81 99 98 95 78 80 76 72 82 79 70 66 62 62 62 67 68 60 55 48 41 39 35 30
68 83 83 94 85 83 56 53 55 70 82 73 78 85 77 96 62 74 62 62 72 93 97 98 85 82 84 82 75 70 70 71 62 62 63 65 63 59 52 51 48 40 34 35 34
94 82 84 93 90 83 79 55 63 74 82 79 75 86 96 69 54 50 78 72 64 67 71 70 82 83 92 87 78 74 80 73 66 59 64 56 67 65 52 51 49 46 42 36 34
100 84 92 88 96 83 79 85 83 88 91 89 69 84 85 65 62 59 58 70 70 69 71 67 71 64 87 79 69 75 78 92 62 64 60 59 74 51 42 41 46 44 44 42 37
98 100 92 97 100 94 77 81 82 96 84 98 98 82 81 70 71 56 62 66 66 70 71 72 68 63 71 82 83 84 91 86 70 56 61 69 64 53 44 41 44 41 41 40 38
100 98 99 98 99 100 87 75 73 86 87 91 96 94 75 67 64 63 59 65 70 71 70 69 68 81 83 86 94 86 86 72 67 59 67 76 74 61 49 49 52 48 47 44 39
94 99 96 96 98 100 90 88 96 95 92 84 87 76 67 71 65 64 63 66 70 70 85 73 94 88 76 76 72 85 91 93 75 59 67 72 69 59 54 52 57 52 51 45 44
98 91 90 100 100 100 90 70 72 70 92 81 83 85 76 77 76 71 70 72 77 90 79 81 90 77 71 76 79 83 86 85 75 60 62 63 62 53 51 54 56 54 51 48 43
92 88 66 100 99 100 88 76 75 70 80 73 80 93 77 76 77 75 72 77 83 94 85 87 67 66 76 82 87 90 92 86 84 63 55 61 60 48 40 39 40 42 42 42 41
80 64 75 99 100 94 98 86 83 69 90 70 97 84 86 81 78 68 68 70 80 87 88 93 74 74 79 84 83 93 77 77 79 84 94 62 76 50 44 50 42 39 40 45 38
76 69 73 96 100 100 88 88 78 72 88 72 94 89 86 70 68 84 72 67 89 87 80 78 84 85 84 76 73 72 69 77 79 89 90 82 88 67 48 48 44 50 46 40 38
85 67 86 92 100 92 79 83 78 83 88 91 86 91 91 77 75 85 77 66 70 74 76 74 69 73 75 64 64 61 72 73 75 78 93 72 84 59 48 41 53 46 39 34 36
98 76 84 94 100 94 90 87 94 90 70 90 80 84 79 84 79 79 81 89 93 99 98 96 90 75 75 79 72 72 79 97 99 97 87 64 75 53 43 40 43 47 39 31 30
98 89 92 95 99 96 79 87 91 67 83 72 67 74 84 78 73 82 89 94 82 92 99 97 95 89 76 74 83 79 75 91 88 92 84 57 74 61 45 35 31 29 32 35 37
93 99 99 80 100 90 83 85 78 69 79 88 77 84 86 79 78 85 88 80 68 91 97 96 93 79 80 69 66 97 96 67 72 61 88 78 68 52 54 55 45 42 35 32 32
99 96 94 97 100 96 78 81 66 66 78 76 88 79 86 83 90 95 83 68 72 73 72 81 96 77 80 71 68 88 73 97 96 96 93 75 64 66 50 51 45 38 28 42 35
100 94 88 91 99 99 98 82 68 76 69 77 80 85 67 72 80 85 70 65 71 70 76 87 95 88 92 94 82 92 98 96 77 87 92 86 57 54 43 48 52 46 43 41 39
98 97 92 90 98 98 94 68 60 90 80 76 70 66 75 83 95 89 86 72 65 75 87 80 98 95 85 72 64 64 70 75 86 84 84 88 58 42 65 57 52 53 46 45 47
98 97 99 98 100 99 79 72 71 92 92 85 83 72 72 81 87 89 80 60 66 78 87 80 99 98 95 88 84 94 79 64 66 77 83 84 50 29 40 48 51 60 62 67 74
98 100 99 99 91 76 76 77 79 68 76 73 77 75 82 86 82 82 83 62 67 70 67 69 100 97 86 94 96 99 88 78 74 94 74 69 55 40 54 52 54 60 70 79 80
94 99 98 99 97 73 67 75 80 82 75 74 85 80 90 99 89 92 77 69 70 64 77 92 100 100 94 81 99 100 97 85 93 77 76 55 52 52 50 59 58 51 70 83 86
98 92 84 85 76 73 78 87 82 76 82 86 87 76 86 96 79 71 77 76 80 72 81 92 98 100 98 97 96 100 95 97 94 73 66 59 59 48 56 53 54 56 70 81 82
97 99 70 80 82 81 82 80 76 73 73 76 81 87 90 80 77 74 67 68 72 78 96 98 100 100 94 92 98 98 89 80 77 79 61 73 58 44 59 65 60 61 66 72 78

GFSSW_850_rhum_003.txt.gz
RH
90 80 96 89 88 76 35 32 52 51 42 60 99 92 67 60 84 93 79 59 69 67 67 67 62 58 56 57 62 71 77 77 64 60 48 40 38 34 32 31 29 28 26 27 26
77 84 80 92 85 82 72 31 50 53 42 64 92 98 76 93 91 91 81 84 76 74 71 69 69 60 57 70 66 77 86 76 62 53 49 43 42 39 38 35 36 33 29 29 28
64 79 78 98 86 83 79 42 49 54 49 47 80 97 98 99 100 94 81 84 81 83 92 80 72 60 63 77 72 82 76 68 62 52 52 54 50 46 41 44 39 36 31 31 30
96 64 83 82 90 83 81 60 42 57 63 56 58 77 97 100 86 75 78 76 74 85 99 88 78 61 76 82 77 85 80 77 64 59 61 62 59 63 50 45 42 36 40 41 37
98 90 85 87 89 86 81 68 41 55 69 61 49 60 89 100 94 62 65 62 71 92 98 96 87 68 75 76 73 83 79 74 70 69 67 65 70 66 67 59 54 50 49 45 39
97 97 90 88 86 94 83 79 40 55 76 73 61 68 72 96 79 79 61 58 70 96 96 98 85 82 79 81 74 72 75 72 65 62 61 64 60 65 55 49 48 49 47 44 38
100 99 100 90 91 98 86 79 44 61 72 82 67 72 84 62 52 52 71 74 75 98 97 99 91 85 91 89 83 74 78 69 66 61 59 57 66 68 54 53 50 46 43 39 40
100 100 98 99 94 95 96 82 58 78 84 86 70 75 75 64 61 57 73 72 76 69 70 69 77 78 83 82 70 74 75 86 61 61 59 53 62 53 49 49 51 50 44 43 37
99 98 98 98 100 94 100 91 73 91 87 98 99 85 76 71 70 64 58 72 71 71 72 70 70 65 80 82 81 82 82 88 69 57 56 65 68 51 49 53 55 50 46 44 43
100 97 98 92 100 98 100 97 85 90 92 90 99 94 83 68 73 70 64 65 64 70 72 70 70 82 83 84 74 80 96 78 72 58 62 67 68 55 55 53 51 53 47 48 48
97 96 92 82 99 99 100 99 94 98 91 79 83 83 73 74 70 70 64 70 70 71 85 76 91 94 80 78 67 81 86 81 66 60 68 64 61 53 50 54 52 50 49 47 42
84 82 78 76 87 100 100 95 68 52 90 75 94 86 82 76 77 75 68 72 75 89 81 84 90 73 70 74 77 78 82 78 58 63 63 63 63 50 46 46 46 45 49 50 43
77 87 80 75 81 97 98 92 70 61 63 74 83 94 77 78 76 77 71 76 83 93 89 89 73 67 73 82 78 71 76 65 66 64 60 62 56 38 30 32 38 43 42 42 42
90 95 99 68 84 87 100 98 79 64 83 68 93 86 89 77 73 69 72 67 82 86 72 75 66 76 88 89 81 84 73 75 78 84 83 60 71 39 38 36 34 38 38 39 42
96 87 88 86 93 97 97 94 76 52 75 73 92 89 88 74 68 84 76 67 89 88 86 77 84 94 84 80 76 74 69 75 80 88 92 72 84 54 46 45 40 36 34 37 38
97 98 99 88 90 92 100 95 86 84 84 92 91 94 91 76 80 85 82 68 68 74 76 73 70 70 73 68 67 64 74 71 74 78 92 66 73 55 38 35 36 37 34 34 33
84 97 99 99 90 80 100 100 98 92 68 97 90 91 77 86 82 77 83 88 91 99 95 76 77 76 72 77 73 70 98 94 95 96 81 59 75 52 37 33 33 30 34 32 30
95 100 89 98 87 100 100 98 97 71 81 66 65 82 86 69 74 81 83 90 80 91 92 96 87 75 76 70 80 82 80 91 88 83 72 64 77 56 42 34 32 29 26 27 26
100 84 90 98 92 98 98 98 82 73 80 74 69 84 88 74 71 77 86 85 74 84 96 97 90 77 81 72 63 99 97 68 95 87 93 68 58 41 37 34 36 35 28 24 20
98 92 99 92 88 95 98 98 68 74 72 71 87 73 83 83 90 86 87 74 73 69 66 78 93 77 79 73 72 81 78 96 97 95 90 64 61 58 37 25 30 40 40 38 36
99 88 90 100 84 99 100 92 70 74 67 75 81 86 75 82 84 94 77 62 73 80 73 81 96 88 90 91 80 93 98 100 98 96 87 69 45 41 34 35 44 47 43 45 42
100 98 91 98 98 99 100 69 65 83 78 78 69 71 76 73 85 84 81 68 64 79 93 78 90 98 83 70 65 64 72 72 90 88 88 83 60 31 33 56 50 48 49 45 44
99 96 92 93 99 100 88 78 75 90 88 78 80 75 74 81 90 86 83 63 70 75 87 85 99 97 88 87 77 97 80 71 69 77 86 84 58 28 32 54 51 55 56 56 65
100 100 100 96 94 90 80 82 81 73 86 78 81 76 84 87 75 87 87 66 67 72 69 72 94 94 77 78 98 99 82 85 96 94 74 72 60 44 39 46 50 47 58 62 82
99 100 96 99 98 76 72 73 85 85 74 75 82 76 81 93 88 97 89 76 74 70 74 84 98 97 93 79 94 100 95 86 98 81 79 57 57 45 41 50 53 61 64 72 87
100 96 88 94 83 70 79 78 78 78 81 87 83 74 79 89 70 82 78 80 76 78 84 86 99 100 97 94 97 99 98 92 84 78 74 66 66 44 41 48 78 78 70 79 87
98 99 96 81 79 78 83 80 82 74 72 78 77 79 87 80 70 72 72 70 72 75 87 98 99 100 91 90 100 97 93 94 88 78 76 84 60 47 50 66 81 70 69 75 86

GFSSW_850_rhum_006.txt.gz
RH
93 81 84 84 94 88 83 74 35 40 49 48 90 99 85 67 68 99 95 78 67 68 69 69 66 66 61 59 64 64 43 39 35 35 28 30 29 29 28 25 26 26 26 29 27
100 89 84 84 82 99 84 75 65 38 49 45 84 100 79 63 81 95 73 84 78 72 76 73 64 63 54 56 57 49 45 35 27 31 31 30 31 28 31 28 26 28 28 32 30
99 100 88 84 80 99 87 79 73 38 53 46 71 91 94 90 99 97 87 90 87 80 94 80 71 61 52 58 54 50 48 32 44 43 40 36 38 36 33 30 28 27 28 34 36
96 98 98 84 88 86 93 82 74 42 53 57 54 91 97 100 93 84 81 80 85 89 95 89 72 58 51 55 54 56 48 45 44 50 54 49 46 45 39 31 29 34 35 40 40
99 98 99 92 87 85 98 85 78 41 56 63 54 62 92 99 95 69 67 70 87 97 98 89 70 56 53 50 57 59 45 54 54 62 56 51 48 47 44 42 46 46 46 45 42
97 99 100 99 88 91 93 94 81 48 56 72 58 55 86 86 84 84 62 60 76 95 98 95 78 71 58 54 54 54 59 55 54 52 51 51 46 45 44 43 43 42 40 42 40
97 98 96 98 95 93 93 100 84 51 58 88 75 67 76 61 61 61 79 60 73 100 94 90 91 76 69 62 69 61 60 44 43 46 47 49 49 43 38 37 38 40 36 35 35
87 93 96 97 100 100 97 100 86 55 64 77 72 69 70 61 58 53 73 85 99 98 96 92 90 81 68 74 58 58 57 58 41 45 41 43 46 30 43 40 39 39 36 33 33
88 90 95 92 96 99 100 100 92 66 86 92 91 84 73 70 68 58 65 72 75 71 73 83 71 61 68 58 57 54 49 58 46 41 43 46 45 36 36 41 41 36 37 38 38
95 94 78 87 86 89 100 99 99 88 94 100 97 88 87 74 71 70 60 72 71 72 72 70 67 60 58 62 49 42 58 48 43 39 47 47 44 35 38 40 38 36 37 39 42
88 89 86 73 81 79 99 99 100 100 99 69 76 71 81 78 76 78 68 70 68 65 65 68 73 76 53 51 43 47 51 50 42 41 50 44 42 36 34 35 36 37 36 35 36
82 78 80 89 64 67 97 100 82 67 89 95 81 85 84 80 76 84 73 62 62 63 61 71 81 50 50 51 57 54 54 50 41 39 46 42 42 35 32 32 32 32 32 32 34
90 91 92 89 86 61 87 99 83 70 66 98 92 88 84 79 67 77 73 69 59 68 66 62 57 55 59 61 65 58 59 54 53 43 42 49 46 27 22 22 24 28 29 28 28
90 94 97 96 78 66 83 90 100 91 98 79 89 85 83 77 68 78 71 65 67 62 63 62 49 62 63 64 57 62 45 51 59 61 63 45 53 29 24 23 23 25 27 28 29
89 92 89 85 99 95 90 70 100 92 96 68 87 92 84 60 67 86 78 67 65 65 65 60 70 73 76 65 57 58 52 53 54 60 62 53 84 36 30 30 27 23 22 22 24
88 84 82 93 89 76 90 98 99 98 94 89 90 90 88 68 72 84 79 68 62 60 63 55 59 55 54 55 56 52 58 58 57 62 87 52 50 41 27 24 21 21 22 20 26
93 80 87 93 95 97 94 100 99 97 64 95 84 81 71 72 77 69 80 83 75 95 92 65 64 57 56 62 58 59 71 73 82 90 63 29 41 40 25 24 22 20 17 20 24
96 100 97 100 81 98 100 100 97 75 62 61 70 67 70 64 77 72 82 90 68 71 76 78 69 62 60 62 56 66 61 64 58 43 40 32 53 34 21 22 24 23 23 21 25
99 94 91 68 76 95 99 99 91 58 59 66 74 79 80 60 64 72 76 68 58 64 86 86 80 59 59 54 56 71 91 55 75 68 89 46 42 28 24 28 24 22 20 31 34
94 98 94 80 98 100 98 100 76 59 54 55 69 57 70 70 69 66 72 56 58 56 50 62 83 55 56 64 62 66 57 87 95 82 69 43 46 35 24 22 18 19 26 32 36
93 99 94 98 98 98 100 100 76 61 55 60 66 64 56 67 62 62 60 54 54 59 54 58 66 72 76 82 62 82 91 95 77 74 67 54 32 20 25 29 36 33 32 38 45
98 100 96 99 98 98 100 93 69 68 74 63 54 55 57 62 68 64 64 53 50 62 76 59 72 88 71 44 45 45 57 62 94 88 88 62 50 20 23 21 31 32 36 41 52
100 99 97 99 99 100 89 86 78 75 74 66 68 58 56 62 73 60 60 53 59 58 61 62 97 87 69 70 60 73 59 59 92 92 88 80 47 25 27 25 25 26 32 41 58
100 100 99 94 85 79 68 74 80 74 76 68 69 64 64 65 61 70 69 60 58 56 64 60 68 87 66 68 61 100 73 87 97 93 65 64 52 36 32 30 28 30 41 56 55
99 99 97 100 81 60 60 68 73 75 71 66 70 62 64 70 72 73 67 64 63 64 62 65 100 91 76 69 78 92 91 95 99 76 79 53 45 36 32 32 34 38 44 59 61
100 99 86 85 70 60 72 67 68 76 66 72 69 67 64 64 65 69 69 69 62 60 66 70 92 99 97 79 77 96 94 96 96 84 64 57 57 41 38 38 45 65 75 64 66
98 100 99 93 79 61 69 64 64 62 70 75 64 71 73 70 63 62 62 60 62 63 72 88 100 100 89 64 70 97 96 95 95 83 67 73 54 39 44 55 74 79 66 67 68

GFSSW_850_rhum_009.txt.gz
RH
99 100 98 79 84 91 92 87 78 60 33 47 46 80 93 86 83 92 91 80 78 76 65 71 62 57 53 48 43 49 44 37 31 24 21 18 19 22 21 20 18 19 20 27 39
91 100 98 99 84 86 89 95 82 74 38 46 45 83 98 83 97 93 75 79 73 64 78 67 54 52 47 44 47 45 42 33 20 18 20 20 23 22 25 23 19 20 23 28 34
96 82 98 99 94 86 89 100 86 80 52 49 46 84 100 75 87 79 81 79 83 66 79 62 55 48 41 41 42 40 43 25 23 31 32 28 24 24 24 26 22 20 21 24 30
94 93 98 100 99 86 92 98 99 84 57 47 54 77 97 95 94 89 85 86 83 94 81 72 60 51 44 43 40 41 33 30 28 30 40 36 31 28 28 26 24 22 23 25 31
91 91 99 98 100 92 86 92 100 87 57 56 58 58 91 99 95 76 71 72 88 93 88 73 59 49 47 39 40 44 39 31 35 40 40 40 39 36 35 35 32 31 32 34 33
90 86 92 99 93 99 93 91 99 89 62 57 64 57 91 90 84 84 75 79 81 96 90 80 67 53 49 40 44 39 41 39 40 41 42 43 38 37 34 34 34 34 34 35 34
90 90 91 90 89 96 99 92 91 92 66 63 76 69 81 67 69 75 81 78 83 92 94 89 83 70 56 51 49 50 52 41 37 38 39 39 43 39 34 33 31 30 31 31 30
93 91 90 92 86 85 97 100 87 96 67 78 81 88 66 64 70 53 73 80 84 84 84 91 78 73 59 59 50 51 45 50 32 33 31 36 45 26 29 31 31 29 27 27 27
94 96 93 90 92 77 91 100 87 100 64 80 82 85 60 66 68 64 66 71 70 76 83 85 82 61 57 54 47 45 47 42 37 29 33 38 39 25 30 29 27 28 30 28 29
91 86 94 86 84 74 88 96 96 99 85 99 97 84 73 67 77 74 66 66 64 64 67 61 55 52 51 49 51 42 48 38 34 25 35 38 35 27 26 27 30 31 29 28 28
82 70 74 64 82 72 84 83 99 99 100 75 71 60 69 76 80 74 64 65 62 59 60 60 68 67 45 42 40 38 39 35 28 25 34 35 32 26 23 24 26 27 28 28 28
76 78 84 80 88 86 68 99 100 98 96 78 71 68 72 70 71 70 63 58 60 65 51 73 80 47 39 40 43 44 45 41 32 29 34 36 36 28 25 24 23 24 26 26 26
77 78 85 93 87 74 91 81 100 98 87 84 73 72 77 74 58 72 63 53 51 54 53 61 48 45 45 50 51 45 47 43 41 35 35 39 40 28 21 21 21 22 23 24 25
82 80 88 87 78 88 89 86 99 100 100 98 88 72 78 68 61 68 62 56 54 55 53 55 40 50 48 53 45 52 35 38 45 51 52 38 49 26 17 18 18 18 20 21 22
93 91 82 94 98 99 95 96 96 99 97 87 80 73 72 55 63 70 62 64 54 50 50 55 55 55 60 50 43 50 47 47 48 54 56 45 55 33 18 18 14 14 20 20 21
91 96 85 95 99 98 95 100 94 99 97 97 87 81 74 52 62 69 68 62 50 48 49 44 46 47 47 44 45 46 51 53 52 64 80 46 38 31 20 14 15 14 16 17 17
89 97 98 83 95 98 95 99 99 97 78 94 77 74 70 64 66 70 72 72 68 90 78 59 54 48 45 55 50 53 66 68 78 91 64 24 30 26 17 15 14 16 17 18 17
91 96 98 98 90 97 100 100 97 78 69 56 72 68 79 62 57 58 66 75 53 53 63 76 74 56 54 55 53 62 58 58 53 40 34 26 35 25 17 15 17 17 18 19 19
92 79 94 92 100 96 100 93 75 65 56 69 67 79 79 62 67 62 60 65 51 50 76 69 70 46 47 46 47 58 77 48 69 53 65 40 29 22 18 18 17 18 20 19 18
72 93 99 100 98 97 99 100 95 46 49 52 67 61 74 65 75 63 62 48 55 46 42 54 74 48 46 52 49 54 46 83 91 79 56 34 29 28 21 19 16 16 18 18 23
95 95 99 88 94 98 95 100 80 48 48 52 53 54 53 57 52 57 56 48 41 46 43 48 55 68 65 69 52 66 75 90 62 70 74 66 40 20 21 23 26 30 27 30 33
97 99 99 90 98 98 100 95 72 56 66 52 44 41 44 46 50 47 49 45 43 45 60 48 62 80 64 42 39 44 58 58 90 69 80 68 58 25 21 21 19 24 26 27 25
97 100 99 95 99 100 95 90 61 70 68 54 54 44 40 46 56 47 47 44 44 48 51 52 78 82 77 57 44 54 48 47 62 81 92 88 54 21 24 24 24 22 22 24 33
98 100 98 98 94 69 95 93 79 75 61 55 55 46 47 49 50 52 56 55 48 48 57 49 61 83 62 69 52 88 72 65 86 96 69 62 52 38 31 29 26 26 26 30 34
99 96 89 94 81 77 70 73 81 74 59 53 55 49 47 54 54 56 53 56 54 53 53 56 100 80 66 58 64 70 72 72 98 94 96 61 48 40 35 34 33 32 30 42 50
98 97 82 71 54 50 57 59 62 63 55 56 53 50 48 49 50 61 54 53 56 56 59 64 88 94 92 68 66 80 66 80 91 91 96 94 84 48 38 35 40 52 52 64 63
99 99 99 90 57 51 55 54 58 56 65 60 54 55 59 58 57 58 57 53 52 56 64 76 97 97 80 54 61 88 84 95 95 84 89 94 74 47 41 47 66 72 76 74 65

GFSSW_850_rhum_015.txt.gz
RH
93 95 96 96 92 100 100 98 91 88 91 83 67 35 46 63 84 91 84 60 64 70 77 75 62 54 53 54 49 46 69 74 59 50 39 25 30 22 20 20 19 19 20 41 52
93 93 94 94 96 100 100 100 99 90 88 87 76 38 45 85 98 93 66 75 76 66 77 75 73 61 58 52 50 53 73 65 46 40 36 29 34 32 23 22 22 20 21 41 32
89 96 92 92 93 95 100 100 100 96 93 94 80 44 52 90 97 79 74 77 92 90 84 66 69 58 58 54 51 50 69 51 47 37 33 36 36 34 33 29 23 22 21 27 26
87 90 90 92 91 91 94 99 100 100 100 99 84 49 62 98 87 77 72 83 80 78 80 62 74 63 57 61 49 59 46 44 41 36 36 36 37 41 37 33 32 27 26 28 28
93 93 88 85 97 88 98 91 100 100 97 97 93 60 61 97 84 86 84 84 79 80 64 70 71 61 60 52 46 49 45 40 39 35 37 34 39 42 40 38 32 31 29 31 30
85 91 91 89 92 93 95 98 95 99 100 99 91 78 69 92 77 75 71 86 87 81 69 75 65 58 58 54 51 40 42 44 43 44 43 43 44 40 40 36 34 35 32 32 34
96 90 76 92 95 94 92 90 93 98 100 99 97 73 82 70 78 78 77 70 73 79 74 71 74 63 60 55 52 47 56 55 51 47 48 40 51 52 40 39 40 38 36 33 33
83 78 65 63 94 76 86 93 91 69 99 99 98 83 88 51 70 73 75 74 76 79 76 79 79 66 61 55 51 56 57 78 53 45 46 45 61 45 36 39 40 38 37 34 34
78 76 74 81 83 68 69 58 70 54 97 99 99 91 77 66 66 68 69 72 70 79 90 88 79 68 61 61 67 64 81 77 62 39 43 50 54 42 37 35 36 34 34 33 32
84 73 75 75 72 78 74 76 77 64 94 99 98 92 81 75 68 62 70 74 77 85 91 86 77 71 64 68 84 70 77 57 55 39 38 43 51 43 33 31 31 30 30 32 31
69 73 68 73 72 82 82 77 86 90 91 96 86 74 62 70 64 64 68 72 73 72 71 68 80 85 80 70 60 59 55 60 49 37 38 41 44 38 30 29 29 28 26 26 26
64 68 72 77 71 74 77 82 84 99 91 82 86 74 71 69 69 62 65 61 71 79 65 75 89 67 55 57 61 57 62 62 49 38 42 47 45 38 35 33 31 30 29 27 24
76 80 83 92 75 81 87 93 97 97 99 100 87 77 72 69 71 63 65 60 67 71 68 79 60 55 58 59 55 56 59 59 56 47 45 51 54 45 36 34 31 31 29 28 25
93 88 81 79 81 78 82 96 98 91 100 100 92 72 67 67 71 62 64 58 60 69 69 62 46 51 58 63 53 66 50 53 57 62 71 54 83 62 39 34 27 30 29 27 25
90 86 90 98 100 87 83 90 100 97 97 98 89 76 65 74 68 65 62 54 61 65 61 78 59 59 57 53 45 56 52 56 57 68 73 70 77 67 42 38 29 24 18 17 21
80 82 96 97 98 95 86 82 95 97 97 100 87 78 82 67 66 65 63 56 52 52 56 55 46 48 56 46 48 48 55 56 61 74 97 76 67 58 36 30 23 20 16 15 16
88 92 93 98 98 98 92 98 95 97 96 100 96 77 76 78 74 67 70 75 77 84 86 63 61 49 47 59 51 59 70 94 92 95 90 56 70 50 30 26 23 23 20 16 16
98 84 86 94 98 97 82 99 97 98 100 86 79 72 80 69 77 70 77 82 68 66 88 89 90 67 56 62 70 71 66 88 86 96 81 55 67 46 30 24 20 18 18 18 17
85 80 99 94 99 90 82 96 98 100 85 86 91 100 85 68 82 74 75 71 64 64 80 91 79 56 55 50 59 70 83 61 82 75 94 74 52 33 26 24 25 25 22 21 18
80 91 98 97 80 71 95 98 99 97 78 64 93 83 98 76 82 76 80 60 58 55 53 61 83 57 59 50 52 62 57 86 93 100 94 70 58 48 34 29 30 36 31 28 28
88 90 98 83 80 86 100 100 94 78 64 66 66 67 71 84 73 71 75 54 52 55 53 50 66 72 63 72 77 72 84 77 78 93 98 99 70 38 37 33 33 31 26 28 26
80 98 99 100 97 99 100 98 92 81 81 67 47 52 62 76 72 68 67 54 47 47 62 48 71 96 80 62 57 61 71 75 92 81 92 94 69 35 33 34 32 33 31 29 32
90 93 90 96 100 99 96 88 86 83 67 54 54 46 50 58 69 56 56 46 44 48 60 50 76 92 81 73 59 69 66 64 70 81 84 90 65 35 37 36 38 41 42 43 40
83 93 78 86 86 92 98 92 92 70 67 54 51 44 50 52 51 58 70 51 48 54 48 46 76 81 85 81 73 88 76 67 72 98 82 76 64 52 49 52 60 57 53 48 42
91 87 85 96 87 86 87 91 83 80 58 50 55 50 52 60 58 63 66 61 52 56 53 66 92 90 80 76 77 79 76 73 83 80 97 69 73 64 58 66 69 65 62 63 71
100 99 96 81 82 85 84 86 79 70 75 58 56 60 64 66 63 62 59 67 68 64 63 66 87 96 98 80 80 87 75 73 75 75 74 74 80 59 58 65 66 67 73 72 72
98 99 100 79 81 83 74 72 66 63 62 67 61 76 83 78 69 66 56 56 58 65 68 83 98 96 92 73 82 92 79 70 76 77 77 96 76 68 64 69 85 87 86 85 82

GFSSW_850_rhum_018.txt.gz
RH
96 96 95 93 92 93 97 99 99 98 99 100 93 78 43 48 71 84 84 51 52 76 66 77 74 61 54 57 52 53 76 80 62 56 45 32 34 26 23 22 20 20 25 26 48
88 94 92 88 96 98 92 98 98 98 100 96 97 85 54 52 89 93 45 61 56 74 68 76 80 64 64 58 52 58 83 71 52 45 42 34 35 33 28 25 22 22 28 46 53
88 89 93 91 83 92 96 94 95 98 100 99 99 90 61 74 99 78 56 66 67 66 75 73 77 70 65 58 54 58 74 54 50 45 43 39 37 38 34 31 27 25 39 48 58
88 87 86 86 92 86 93 91 100 95 99 98 96 95 71 88 92 78 70 73 84 84 76 78 79 77 66 67 55 61 52 46 45 41 43 39 35 42 39 31 29 33 32 44 58
74 88 92 91 84 89 92 89 92 96 96 99 91 99 80 92 86 82 79 75 91 89 85 81 75 70 66 61 56 55 51 45 42 41 44 41 41 40 42 38 31 34 37 35 33
77 88 84 76 88 96 96 92 94 68 77 97 97 100 80 94 67 68 80 84 85 78 78 71 73 65 60 58 57 47 44 44 42 44 46 47 46 42 40 34 33 33 32 34 33
75 73 74 71 79 65 94 94 73 84 32 93 100 100 85 70 86 75 73 83 83 78 69 59 74 64 61 58 53 50 54 54 50 48 49 44 50 58 40 36 36 33 29 26 32
85 80 73 65 66 79 64 86 61 55 32 89 99 100 83 45 80 87 77 75 80 83 70 72 80 66 61 56 54 56 60 71 51 46 44 47 60 45 37 40 41 38 36 35 25
94 88 79 72 76 77 73 71 50 64 50 82 100 94 68 56 68 77 82 74 78 81 83 82 79 68 59 69 68 69 79 76 67 48 47 56 60 45 37 41 39 36 35 33 31
80 80 79 77 79 76 81 75 65 71 52 92 100 93 82 73 63 71 75 77 77 84 96 91 93 82 69 66 84 73 84 69 66 44 45 49 61 50 41 39 37 34 31 29 29
90 74 74 77 78 80 84 72 79 89 88 85 91 79 65 65 63 67 72 78 78 86 93 92 89 94 79 75 59 57 63 66 56 44 43 46 46 42 34 33 32 30 27 25 26
89 88 83 78 74 79 88 91 98 98 91 86 91 85 69 72 72 63 71 73 80 82 72 76 92 70 63 63 66 68 70 72 57 44 43 50 50 41 38 35 34 32 29 26 22
87 83 81 81 82 94 88 92 92 98 98 93 96 87 72 66 70 65 66 66 76 72 70 81 64 62 64 60 66 64 63 61 60 53 46 55 41 41 39 34 32 31 29 30 29
79 72 77 95 88 90 92 84 94 82 99 99 93 90 74 68 72 63 65 61 64 74 68 64 49 65 70 65 58 66 52 53 57 61 74 57 79 64 44 38 33 27 28 28 27
83 89 86 97 100 99 88 82 96 89 96 93 96 84 73 74 69 68 62 55 69 69 68 76 61 58 61 60 50 59 51 54 57 69 71 70 80 64 50 44 36 31 23 20 19
89 92 86 90 96 98 89 75 88 91 94 99 95 87 81 68 70 68 63 56 52 61 65 56 48 52 56 49 49 54 55 66 72 76 92 70 73 61 40 35 24 22 20 16 16
100 88 85 92 95 99 84 100 91 95 98 100 95 74 78 80 76 69 78 70 84 97 100 67 60 50 49 63 54 57 67 85 82 96 82 64 78 69 40 33 28 30 23 19 18
91 99 93 97 99 89 93 98 92 92 100 81 76 73 90 75 76 75 75 81 67 72 83 87 83 64 53 61 68 68 64 81 65 96 86 62 76 51 36 30 25 23 22 21 19
95 87 98 88 75 79 92 95 97 99 95 86 76 90 84 84 80 68 70 77 69 64 78 88 77 58 55 53 56 72 86 62 82 78 94 76 60 38 31 25 31 32 28 28 27
84 87 98 96 78 84 97 98 100 97 79 67 95 85 95 89 83 73 73 60 60 57 55 65 86 62 60 51 54 60 61 86 92 91 90 75 68 49 35 29 36 34 30 28 30
68 85 97 93 95 95 100 100 98 90 77 67 77 75 82 76 80 79 76 60 55 58 54 54 72 72 66 73 77 75 86 80 79 90 98 95 72 45 34 31 38 37 36 39 42
77 96 83 94 98 99 100 100 94 82 80 82 52 63 76 72 76 70 82 63 50 54 68 51 78 93 81 60 59 65 74 76 90 79 95 92 79 40 40 37 39 39 43 56 57
85 86 86 90 98 100 94 87 89 82 83 56 54 50 60 69 73 61 58 49 50 53 62 52 76 92 82 74 67 74 71 69 73 85 94 92 71 40 43 38 39 47 58 67 66
78 90 71 85 94 95 87 90 83 66 65 56 56 52 50 55 53 70 64 53 50 50 45 49 79 78 86 76 77 87 77 72 77 98 84 79 62 48 46 46 50 56 64 66 66
87 93 99 98 87 87 80 81 84 85 68 52 53 48 55 64 64 76 66 60 60 58 60 63 87 91 84 78 80 79 78 77 89 74 90 65 68 60 56 56 60 66 69 70 69
98 98 96 97 83 86 83 84 85 75 77 72 79 68 56 72 65 74 69 67 64 63 65 66 90 89 93 83 88 92 81 78 73 70 69 67 71 54 57 66 70 87 90 90 89
96 92 96 81 89 85 76 68 74 66 64 72 66 79 85 78 72 62 50 51 60 70 76 77 94 89 94 72 85 93 84 77 76 76 76 90 71 58 72 72 89 89 74 74 85

GFSSW_850_rhum_021.txt.gz
RH
95 90 81 87 82 82 89 96 96 94 98 98 89 98 86 59 54 79 88 39 36 62 71 70 82 70 72 59 55 55 77 83 57 52 43 35 35 30 28 26 23 22 26 28 43
88 88 89 95 93 82 80 92 91 80 84 99 95 100 90 84 78 89 34 46 45 73 86 79 75 77 74 60 55 62 86 73 55 49 43 39 39 38 33 30 24 23 24 29 58
96 88 83 91 87 91 95 77 92 98 65 92 98 94 100 88 90 55 27 39 59 81 76 81 82 73 65 61 58 63 75 58 53 47 46 41 41 36 38 39 28 26 49 60 65
79 67 66 79 96 93 85 91 84 89 93 87 98 95 100 90 89 86 70 46 60 79 84 89 90 74 72 72 58 63 57 51 49 44 45 43 39 41 38 35 32 35 37 62 65
95 90 78 72 83 85 86 82 86 91 92 82 91 100 100 95 66 86 81 64 76 78 77 92 92 75 73 67 60 60 54 50 47 43 47 45 44 44 41 33 31 36 36 35 45
95 79 77 76 78 80 97 89 85 62 79 76 89 99 99 88 50 52 85 81 92 89 95 84 79 71 61 58 66 52 51 47 44 44 44 48 49 44 42 35 32 33 34 33 34
95 95 89 85 88 76 70 96 95 87 90 93 86 100 100 81 64 60 78 75 92 88 87 87 71 69 64 62 54 52 57 54 53 49 52 47 54 62 42 37 37 35 34 32 29
93 93 95 86 79 84 72 77 83 78 59 88 82 100 98 77 73 88 82 86 78 74 72 66 80 69 62 58 56 62 62 72 52 50 47 46 62 46 39 40 40 36 33 29 29
88 83 78 76 76 74 73 80 75 59 69 98 87 100 90 77 57 87 85 78 82 88 86 63 77 69 63 72 74 68 83 76 64 49 50 58 65 46 40 41 42 37 33 32 33
94 92 72 68 72 79 75 74 70 69 83 83 96 100 91 74 52 83 85 81 82 87 90 83 82 83 80 81 87 78 79 76 70 47 50 53 61 51 44 45 44 42 39 35 33
93 88 94 73 86 80 70 73 85 86 96 92 92 88 78 70 54 79 84 87 85 85 98 92 96 93 81 72 56 64 70 71 60 49 47 51 50 43 36 36 37 33 32 34 31
71 72 79 78 79 80 86 95 87 97 90 91 93 91 85 72 67 73 72 84 89 96 87 87 90 82 69 65 68 68 74 80 60 50 46 54 55 43 38 35 32 31 29 28 26
85 80 77 80 86 79 76 84 87 94 91 87 93 97 78 70 69 69 69 78 77 90 83 88 75 67 75 70 75 72 76 66 64 56 49 59 52 41 35 35 31 30 30 30 30
88 88 86 91 87 96 87 80 93 90 96 94 94 89 74 68 72 65 70 68 67 76 88 79 55 79 72 69 62 72 53 55 58 62 74 58 75 62 42 41 40 32 28 24 26
97 97 83 86 100 98 87 87 98 89 91 94 93 89 76 69 68 70 65 58 74 70 70 85 63 78 79 65 55 63 52 57 60 72 69 69 78 64 45 40 33 31 26 23 17
93 85 91 87 96 99 88 79 95 87 96 100 98 95 79 70 70 75 63 55 58 69 64 58 50 52 54 55 50 56 58 67 77 74 90 66 72 60 40 33 33 30 23 20 18
90 88 82 87 94 97 85 86 89 94 99 100 96 74 76 79 78 75 75 71 89 98 100 74 64 52 53 64 56 58 67 81 73 91 78 66 80 61 44 38 32 35 25 21 20
94 78 76 77 74 80 92 99 88 97 97 88 76 75 93 76 78 87 76 81 68 72 93 92 92 62 52 60 69 64 63 77 57 82 84 67 80 47 39 33 27 30 31 30 30
62 66 70 82 82 84 91 96 98 98 97 89 76 96 99 84 82 86 94 77 69 62 80 84 79 59 55 55 55 74 84 62 82 82 92 75 60 40 32 32 34 32 28 33 35
65 75 81 81 84 89 96 99 100 98 73 69 91 86 95 93 90 83 77 61 60 60 57 67 90 64 61 53 59 62 64 84 91 65 82 68 74 53 33 32 36 37 38 37 40
65 77 94 99 99 97 99 100 94 78 77 70 90 80 80 80 75 71 75 59 55 60 56 59 73 74 66 73 80 77 87 84 79 87 89 96 65 52 38 32 38 44 39 40 48
63 89 80 84 96 99 100 98 95 83 80 78 58 70 71 73 80 73 77 66 52 58 65 55 77 96 80 62 61 66 74 77 84 78 96 94 82 45 45 39 38 41 45 52 59
66 76 72 84 96 98 86 87 90 84 83 72 56 56 63 69 77 66 67 52 52 58 64 57 80 93 85 73 69 73 74 72 76 82 92 92 74 42 44 41 41 50 57 65 66
77 93 75 83 92 93 86 90 83 69 75 54 58 55 56 60 57 72 63 60 54 52 49 51 75 76 84 73 80 89 79 76 77 98 87 79 70 47 46 50 48 60 73 76 77
82 99 99 99 87 89 78 85 88 88 69 56 54 53 57 69 69 76 65 62 61 58 62 61 87 90 85 78 78 75 74 79 88 72 90 66 70 55 51 48 60 75 79 78 76
93 93 92 96 88 89 84 85 82 77 78 73 65 64 56 69 63 79 69 65 62 62 65 66 95 90 91 81 88 95 85 83 78 75 74 71 73 49 47 60 72 83 77 78 80
94 100 99 83 90 85 76 74 76 68 69 77 72 79 86 80 73 55 51 51 55 69 77 72 92 90 97 74 86 93 83 80 79 76 72 85 62 53 63 73 84 81 80 81 82

GFSSW_850_rhum_024.txt.gz
RH
84 93 91 88 93 96 96 89 94 99 98 75 91 97 99 96 77 73 86 54 43 71 78 62 90 81 77 61 60 58 79 82 55 55 41 36 36 33 32 31 26 22 23 28 34
82 92 94 93 76 82 87 98 83 75 86 91 85 94 98 99 94 82 35 32 42 84 99 71 90 88 82 63 59 65 83 74 53 46 42 42 40 37 36 37 29 23 36 31 43
92 92 93 92 85 78 80 95 94 76 79 77 84 92 100 100 100 80 52 30 41 81 98 87 80 83 77 66 62 66 76 59 54 46 46 45 46 38 38 39 32 30 40 67 63
90 89 83 76 82 81 86 77 91 85 96 86 81 97 98 99 87 86 70 34 36 74 98 93 90 76 75 75 61 67 60 54 49 49 49 47 42 43 40 36 34 33 34 49 75
98 91 93 78 74 76 78 80 90 95 95 95 95 98 99 100 84 94 91 82 45 88 100 100 94 75 72 68 62 64 57 54 50 48 48 47 47 47 42 36 34 34 33 35 38
88 91 92 93 84 78 83 81 82 76 92 92 97 99 100 98 82 70 74 80 60 85 96 99 91 70 62 66 62 57 53 51 48 47 46 49 49 46 43 38 36 35 34 32 31
80 86 86 78 81 72 81 76 79 85 97 99 99 96 99 95 79 72 55 81 68 82 92 93 80 70 65 65 56 56 57 56 55 50 50 49 59 65 43 38 37 36 36 35 33
80 80 86 59 64 74 70 72 75 74 84 99 100 94 97 84 76 93 88 85 85 88 77 84 71 71 66 60 59 67 63 75 54 56 50 48 60 46 39 40 40 37 32 31 29
84 81 96 94 69 62 69 66 65 73 81 97 96 87 84 82 82 78 93 91 91 88 79 76 74 70 65 74 72 68 88 80 62 51 50 60 68 49 44 44 48 42 37 34 33
96 89 92 95 92 80 71 61 65 67 70 81 88 99 92 83 78 72 95 92 94 89 81 79 75 84 83 72 85 84 76 76 72 49 55 59 61 46 36 40 47 39 38 37 37
99 78 81 81 79 74 75 66 75 72 94 87 94 91 92 78 76 67 89 94 90 98 84 75 93 89 75 75 64 67 72 72 64 52 53 59 56 48 39 38 37 33 30 29 31
93 87 84 72 80 84 79 82 89 91 92 70 95 83 90 90 75 83 93 90 89 98 92 97 94 79 72 67 68 69 77 78 67 51 49 57 58 47 40 40 34 32 30 29 29
99 74 87 85 88 87 79 74 87 90 91 83 96 90 83 67 71 79 83 90 82 88 89 82 85 79 70 74 76 74 77 74 70 57 52 63 55 45 35 34 32 29 29 28 28
88 99 96 92 91 89 82 81 83 90 93 82 94 94 82 64 74 71 90 85 86 94 94 84 76 86 90 87 68 76 57 57 58 63 78 60 75 57 45 47 38 29 26 27 26
86 81 88 84 95 99 93 91 95 90 73 82 89 97 81 68 69 71 85 85 75 87 94 92 89 88 81 79 58 65 54 59 63 72 66 64 76 57 43 35 28 31 28 24 22
86 84 85 85 91 98 89 89 88 83 100 99 95 91 78 71 77 70 60 64 76 72 65 72 57 58 60 60 53 59 60 67 74 74 84 64 70 50 37 34 34 33 28 33 32
86 83 79 87 94 93 83 84 86 93 99 99 92 76 78 79 81 74 73 78 91 98 100 71 65 54 54 65 56 59 66 84 66 84 74 70 76 56 46 44 36 40 33 34 33
71 70 74 76 77 83 86 84 92 93 97 91 77 79 87 77 85 82 74 82 68 79 94 92 92 61 53 60 69 65 60 77 50 74 74 71 80 46 40 34 32 35 34 33 33
72 74 81 86 89 92 96 96 98 99 98 86 72 88 98 83 83 91 86 79 68 61 80 84 85 60 58 57 56 73 84 63 85 84 88 67 56 36 34 39 37 37 36 41 46
63 71 88 94 99 98 94 98 100 97 68 74 87 80 95 94 89 95 88 66 66 58 56 66 93 67 61 56 62 62 64 81 89 63 69 60 67 54 35 35 38 44 43 44 50
63 69 76 87 88 83 99 100 86 79 76 70 90 83 88 83 75 74 82 58 55 62 57 62 74 80 63 71 79 74 86 83 77 86 82 81 52 50 42 36 40 49 43 47 57
65 86 70 78 93 99 99 98 90 84 80 72 63 68 74 74 77 70 80 61 54 56 64 56 80 97 77 64 63 66 74 75 82 76 94 94 76 46 47 43 42 43 47 57 69
67 63 67 74 99 95 85 87 89 83 78 73 59 58 61 69 73 66 67 55 54 54 60 61 79 94 85 71 69 74 74 70 74 82 97 88 65 44 45 46 43 45 56 69 73
73 94 76 73 85 92 84 91 82 70 71 56 61 55 58 61 66 70 66 63 57 52 49 52 74 76 83 72 81 92 82 78 76 96 84 84 71 50 48 45 43 47 71 77 76
83 98 98 98 90 91 87 87 84 85 72 60 56 56 61 72 72 75 67 65 61 58 62 62 88 88 83 77 79 76 76 84 85 77 82 69 74 56 48 45 45 61 81 75 79
95 95 91 92 89 89 80 81 86 79 81 68 69 72 59 67 64 79 70 66 66 62 66 68 96 93 93 75 88 97 87 81 82 76 73 69 73 49 47 48 62 78 78 81 82
96 99 98 84 88 82 80 77 78 71 72 82 73 79 83 82 76 58 53 54 58 71 76 73 92 92 96 77 84 90 87 82 81 77 70 83 60 49 65 62 76 78 83 82 85

GFSSW_850_rhum_027.txt.gz
RH
78 87 93 88 90 92 77 89 93 94 73 96 82 88 92 100 100 97 92 52 28 56 84 62 99 84 68 64 61 57 66 67 57 51 40 36 34 34 32 32 27 24 24 32 35
91 91 86 78 78 76 85 75 89 90 88 83 81 84 90 92 100 97 85 54 38 90 98 67 99 94 84 64 61 63 72 65 47 43 41 41 39 37 36 37 30 28 41 32 37
91 98 93 86 77 83 77 80 82 86 80 96 96 92 93 94 97 97 74 71 40 52 97 83 90 92 81 68 66 67 66 57 53 42 42 45 46 40 39 38 33 32 43 61 60
93 96 86 79 79 84 78 75 84 81 87 89 92 96 89 89 96 82 86 61 63 63 95 99 90 89 80 75 64 68 61 54 50 50 50 51 45 44 41 35 34 35 34 36 69
92 86 90 85 92 96 85 82 75 75 83 84 94 98 93 88 90 86 91 95 98 89 93 94 93 81 76 68 65 63 61 54 50 50 50 47 47 44 42 36 34 35 34 33 37
92 78 86 88 82 72 82 78 80 68 76 91 96 96 94 97 91 79 76 77 74 95 88 86 79 74 67 66 61 59 54 53 51 50 48 52 50 48 41 34 34 36 34 34 33
85 87 82 88 90 86 68 69 63 62 75 83 92 99 98 92 90 73 88 69 83 85 89 90 76 63 62 70 56 56 63 56 54 50 49 48 53 62 41 39 36 33 34 36 36
78 97 100 91 92 81 78 66 62 69 71 82 92 93 90 70 88 90 92 72 99 84 92 95 80 68 64 60 62 66 60 73 55 57 49 42 46 48 41 44 44 40 37 36 32
80 90 95 87 87 84 80 70 68 66 83 82 87 85 82 78 82 70 84 86 96 90 85 80 79 74 66 71 76 71 83 78 60 57 54 57 66 49 46 44 42 39 36 38 36
95 100 92 81 74 79 72 69 68 70 73 83 79 94 78 83 78 72 77 96 98 91 86 85 73 84 74 73 79 85 80 77 67 53 60 63 65 50 40 39 38 35 37 39 36
98 99 94 83 72 77 73 74 77 78 86 64 73 93 92 84 87 73 78 100 100 99 96 82 90 85 67 60 65 68 72 72 66 55 55 60 59 49 43 42 40 36 33 31 32
88 91 90 87 78 83 80 79 85 79 82 55 78 89 96 88 83 76 94 99 89 94 89 93 89 70 64 67 64 67 73 75 65 52 50 56 54 44 40 43 40 38 37 34 31
85 84 97 84 87 88 91 76 87 87 94 85 99 78 98 87 78 87 96 96 85 95 81 83 87 69 67 75 75 76 76 77 69 56 53 59 54 44 36 36 30 29 28 28 29
85 81 98 85 82 81 78 79 86 92 89 93 92 91 99 75 82 77 95 97 93 94 88 91 81 74 73 78 71 82 63 63 59 64 72 59 64 48 44 33 30 31 30 26 24
80 81 92 79 78 86 84 90 90 87 85 78 92 96 78 71 76 96 80 79 84 91 94 97 88 93 83 82 61 69 56 61 63 69 62 61 60 41 37 33 31 35 41 40 38
67 80 88 78 91 88 87 90 87 82 95 96 92 88 78 72 80 93 86 92 86 87 84 76 94 82 87 77 71 58 58 65 69 68 72 61 60 37 34 35 38 36 38 38 39
70 66 65 80 88 83 84 87 86 92 94 100 97 76 74 86 82 79 83 84 92 99 98 74 68 72 66 67 55 57 70 84 65 78 69 67 72 45 40 41 38 36 39 44 46
59 73 77 84 87 92 91 85 89 92 99 90 78 81 91 82 81 77 75 82 68 79 99 91 96 69 56 62 69 66 64 78 55 58 57 71 74 39 42 39 35 37 43 47 50
53 60 78 91 96 98 92 96 94 98 98 86 70 90 93 85 82 90 84 78 66 62 80 84 91 62 63 58 58 70 80 58 84 84 78 56 50 35 36 39 38 39 41 47 52
54 60 75 85 90 94 96 96 100 97 77 70 83 80 93 90 92 83 82 67 69 60 57 67 95 70 63 57 61 61 63 77 83 68 55 49 56 39 36 36 40 42 45 50 58
55 60 73 74 80 87 99 100 86 82 73 71 87 85 86 85 81 84 84 62 58 62 57 64 74 82 64 70 77 72 81 78 73 77 65 55 40 44 42 36 40 42 43 50 68
50 85 72 62 86 97 99 98 88 84 77 63 66 70 77 74 75 72 76 62 55 55 64 60 80 92 77 66 63 65 73 67 76 75 88 82 54 41 45 45 42 42 45 63 71
64 61 66 64 96 96 80 83 88 82 76 68 61 61 61 70 74 66 65 58 55 53 63 61 77 94 84 74 70 74 75 67 71 79 96 73 48 45 48 44 41 45 51 71 72
73 89 72 73 88 86 91 91 84 73 68 58 62 56 58 64 67 72 67 68 58 51 52 53 72 72 71 68 80 89 82 71 74 87 79 76 61 46 45 49 46 45 59 73 76
83 98 98 98 88 93 88 85 83 87 75 60 59 56 61 73 73 74 69 70 61 64 62 60 87 86 76 68 81 78 79 82 84 74 78 60 70 52 51 50 48 51 72 76 81
96 97 89 92 91 90 78 81 83 79 83 68 68 73 58 67 62 79 71 70 70 65 65 68 95 92 87 76 87 95 84 81 79 72 74 71 71 47 47 50 58 76 78 83 82
99 98 96 88 91 86 84 77 77 76 78 79 72 74 79 81 78 66 55 55 61 72 76 71 93 89 88 76 82 93 84 83 78 78 67 81 60 50 57 59 78 79 84 84 84

GFSSW_850_rhum_030.txt.gz
RH
89 94 94 92 80 77 73 79 75 81 94 73 65 84 87 89 88 100 99 91 58 75 51 61 92 98 74 62 62 55 43 43 41 38 29 27 24 28 29 22 26 24 28 45 38
83 92 92 93 84 85 80 80 71 67 89 86 68 72 84 91 83 85 100 79 54 85 92 81 96 94 66 57 54 39 42 34 28 30 28 26 23 26 27 27 25 28 37 34 30
82 90 92 84 82 79 75 76 67 76 81 82 82 68 79 75 90 84 87 82 65 93 99 87 89 86 68 62 54 40 36 29 36 32 30 28 29 32 25 27 23 25 36 62 45
80 79 97 85 89 86 79 78 76 71 81 80 82 94 71 89 91 78 83 88 87 81 94 92 94 85 62 58 53 51 36 33 38 44 41 34 32 31 30 22 30 36 37 39 78
85 85 83 83 93 67 60 73 78 68 68 83 84 89 76 90 78 91 94 96 99 91 95 89 81 74 64 56 56 49 47 43 43 50 47 44 38 31 34 34 36 38 34 36 38
82 82 76 92 92 78 70 67 69 68 66 80 82 86 91 77 61 79 95 89 100 86 89 87 68 67 58 59 51 47 48 43 44 44 47 45 41 43 34 35 34 35 31 32 35
91 85 82 90 99 92 82 80 79 89 67 69 80 89 89 73 90 81 90 96 95 85 88 85 68 68 60 58 54 51 50 45 47 44 39 43 43 43 35 30 31 27 28 34 33
96 91 96 96 82 83 80 75 73 81 81 70 76 84 83 69 95 93 83 75 91 91 89 84 72 63 54 54 52 47 43 57 34 39 42 40 32 31 34 35 31 29 28 30 32
89 94 93 97 87 78 78 74 80 83 82 80 87 89 67 76 86 92 84 82 92 97 98 81 72 62 60 52 56 46 39 40 45 45 34 38 29 27 33 40 35 33 32 32 36
83 82 87 82 77 75 72 68 71 70 81 86 91 89 76 74 81 74 73 82 99 98 98 91 76 62 49 48 49 52 40 44 37 42 48 49 39 40 40 38 35 32 30 29 32
82 77 84 76 72 73 69 77 85 86 92 59 57 79 80 74 79 85 82 77 98 91 87 76 80 75 48 43 42 42 43 41 43 48 46 41 41 38 36 34 33 31 28 27 29
85 80 94 84 73 80 77 82 87 89 65 62 76 86 87 97 83 89 86 91 93 88 81 92 84 50 41 48 49 48 48 48 51 44 43 41 42 34 31 31 33 32 31 30 30
90 88 73 80 77 78 85 84 85 85 84 88 91 92 87 87 77 84 86 94 80 90 81 93 67 45 52 52 54 52 51 59 47 48 43 44 35 36 32 30 27 28 28 28 30
66 82 77 78 76 76 94 85 81 88 95 96 95 96 92 91 89 88 92 98 89 96 87 93 80 53 49 58 47 57 53 56 56 54 46 44 31 35 28 26 27 29 30 32 36
58 60 64 76 86 97 93 95 86 82 86 78 96 97 89 79 89 98 85 92 88 95 93 97 91 66 63 55 49 53 51 51 52 54 53 46 44 30 25 26 31 34 38 41 43
66 67 54 53 66 75 83 84 82 94 91 99 96 84 82 73 80 93 99 90 87 86 87 93 91 86 86 69 51 46 48 49 50 52 70 47 46 25 24 25 29 32 35 43 46
58 61 73 67 61 71 77 81 94 86 97 99 92 74 65 80 86 80 91 90 88 99 100 97 98 85 90 87 62 52 58 78 76 85 57 51 50 27 26 28 27 32 40 44 47
56 61 71 88 89 92 85 80 88 97 100 86 68 65 78 66 93 86 79 84 60 73 81 90 95 97 89 74 89 58 57 62 56 47 40 54 44 28 30 29 31 35 41 47 51
55 60 76 85 87 92 90 97 97 100 97 66 57 68 74 69 68 66 67 64 56 55 74 78 91 63 58 53 53 62 74 45 65 61 55 32 33 28 32 32 31 32 39 49 56
57 61 74 77 81 85 85 97 97 91 74 57 67 64 72 74 65 61 65 58 57 52 50 60 92 62 57 53 51 53 47 66 74 68 47 28 29 28 34 31 29 34 41 47 60
57 67 68 69 73 85 100 100 81 78 72 60 67 65 69 73 64 66 62 58 50 53 47 52 60 76 59 61 58 59 61 58 50 55 45 27 25 23 27 30 33 33 40 47 66
53 81 66 60 82 86 94 89 84 73 73 55 56 60 60 62 64 63 53 54 50 46 51 53 65 80 69 58 54 53 53 44 49 69 62 57 31 27 28 29 33 36 40 51 69
63 63 64 55 78 78 68 70 75 66 64 55 56 54 54 58 63 57 58 55 54 47 50 49 66 88 85 66 60 65 58 52 54 62 77 49 33 34 34 33 35 41 43 58 71
80 86 71 69 90 71 76 73 69 72 60 55 55 49 50 53 51 58 59 62 56 49 54 46 58 67 54 70 63 80 65 57 58 69 54 44 37 35 32 36 40 44 49 66 71
89 94 89 87 78 76 79 76 71 70 68 58 54 51 48 56 56 58 60 59 56 62 54 50 91 80 58 60 70 66 65 65 77 55 60 41 46 33 34 39 42 51 69 69 74
97 93 88 86 85 74 72 72 75 71 75 58 56 54 50 50 45 57 55 55 56 60 53 56 92 85 81 69 72 80 64 61 62 58 55 49 50 33 36 42 51 64 70 75 76
97 96 92 84 75 70 73 72 72 72 72 76 62 59 60 61 66 60 52 48 48 54 58 59 87 83 76 64 66 74 65 63 62 59 55 62 44 37 40 43 60 68 78 75 82

GFSSW_850_rhum_033.txt.gz
RH
78 78 80 92 92 87 77 84 77 68 66 91 83 65 77 98 81 94 96 94 85 63 46 69 90 98 72 58 47 46 59 59 40 31 26 21 23 22 21 17 19 18 23 49 73
94 79 79 85 87 79 78 79 78 80 72 81 92 84 71 83 78 89 83 97 79 73 93 64 89 90 68 55 51 46 50 44 27 24 27 23 24 19 23 20 18 21 34 59 59
93 79 83 81 83 85 77 75 67 67 80 86 76 86 78 52 73 56 74 78 93 74 94 62 73 86 61 49 45 39 37 30 24 28 27 24 23 18 22 18 18 18 27 60 76
89 79 75 86 84 83 74 70 74 58 68 82 76 85 83 82 51 37 73 70 81 91 94 74 68 82 58 51 45 40 32 24 24 31 33 26 23 23 22 18 18 23 32 36 65
94 98 78 83 86 85 87 75 74 71 67 76 85 91 79 74 55 81 83 83 75 89 90 71 59 69 59 46 39 43 28 29 30 40 36 26 24 24 23 24 29 31 34 31 32
87 89 89 87 87 89 94 78 71 64 62 77 79 86 84 69 46 51 98 99 71 93 73 61 53 63 53 43 41 42 38 35 34 41 40 36 28 30 27 26 28 27 27 26 29
83 81 96 86 89 82 96 80 75 75 75 73 76 90 79 65 61 57 69 89 100 89 62 60 53 60 52 49 45 41 41 39 34 37 36 40 38 34 30 28 27 25 25 25 23
95 85 83 90 90 75 82 77 69 71 72 73 69 86 72 60 61 79 86 70 82 98 59 65 55 53 51 45 46 45 44 50 36 40 36 39 37 25 28 28 27 23 22 20 21
91 77 78 94 80 72 73 72 67 76 75 77 86 82 56 70 66 66 85 92 73 89 64 81 64 57 50 48 52 45 45 40 34 32 35 40 34 22 24 25 26 23 22 23 23
83 78 86 74 68 68 66 60 63 65 76 95 88 77 63 60 76 82 86 76 87 80 94 91 70 50 46 42 48 41 38 28 29 41 36 35 35 22 29 27 27 24 23 23 23
86 88 83 72 68 67 80 83 86 81 79 55 51 60 78 84 78 84 82 99 89 85 85 82 76 68 44 32 25 23 32 27 24 38 41 39 32 26 28 29 27 25 24 22 21
76 69 76 68 68 73 83 76 93 93 57 58 63 72 80 89 86 91 92 94 77 79 51 85 79 43 32 30 36 36 35 36 32 36 40 28 34 29 28 27 25 24 23 21 21
63 59 66 69 72 89 90 97 80 97 84 90 90 86 92 96 73 92 91 95 80 62 68 73 61 41 42 38 43 36 37 35 43 43 37 38 36 32 26 29 28 27 26 25 25
68 64 54 59 91 89 94 82 78 80 99 96 87 95 92 86 94 97 86 88 90 64 75 76 60 50 50 48 36 42 33 43 50 48 35 34 20 30 29 26 24 24 22 24 28
66 72 55 48 60 92 78 71 76 96 93 95 94 93 88 94 86 95 93 95 92 92 94 96 82 56 51 42 34 46 43 46 50 52 50 42 38 26 24 27 28 29 33 34 36
59 65 78 87 62 51 56 66 87 99 94 99 94 91 92 84 83 97 95 94 94 88 84 94 93 78 71 44 36 43 46 47 47 49 71 42 35 28 24 22 27 28 31 35 36
50 58 69 87 84 68 71 93 98 90 96 97 86 80 72 80 84 81 95 95 98 100 100 99 97 92 82 61 48 46 51 75 77 85 63 41 46 26 21 20 23 26 32 36 39
50 58 70 84 89 88 100 83 93 91 96 71 68 56 88 84 89 76 91 94 66 72 100 100 98 97 88 78 69 57 50 63 63 58 48 42 45 28 21 23 24 32 35 40 44
50 63 74 90 83 86 87 97 95 100 82 56 48 62 78 59 71 72 56 62 68 55 85 94 97 89 90 70 57 70 72 42 55 38 43 33 28 27 27 26 25 28 32 41 48
54 68 85 74 79 99 75 96 89 79 65 48 56 52 61 57 52 47 49 48 53 46 42 55 87 89 87 74 68 66 47 71 73 75 40 30 22 27 32 30 27 27 34 41 49
59 72 66 65 84 81 92 88 63 64 61 53 52 51 56 59 48 46 49 51 43 44 40 45 54 71 70 68 64 59 65 53 51 50 51 25 22 22 26 28 31 32 34 40 51
70 81 63 65 70 62 74 76 76 59 58 47 47 48 47 48 50 48 46 46 43 39 45 47 58 79 66 52 47 46 45 42 51 63 46 48 35 20 26 28 30 34 38 41 57
79 70 63 60 70 56 58 58 61 52 52 45 48 47 45 47 54 50 47 47 47 41 42 44 64 88 78 60 53 59 50 46 45 54 69 47 36 24 27 29 32 38 40 44 61
86 86 65 67 72 48 54 53 56 65 50 47 46 42 45 46 40 51 52 52 49 44 48 41 49 68 58 72 52 67 54 51 55 68 45 36 34 32 30 30 37 40 45 56 61
88 86 85 75 60 61 63 61 56 57 56 49 48 44 41 47 44 48 49 52 50 56 46 44 91 77 49 54 62 60 54 55 71 54 50 32 30 28 28 34 37 47 58 63 65
92 97 85 65 66 60 64 60 62 58 60 48 50 43 40 42 38 45 46 46 47 49 47 48 86 77 83 58 61 69 56 51 53 52 44 39 40 27 28 37 44 53 63 64 68
91 94 95 70 59 57 58 62 64 62 62 61 53 46 47 45 47 46 40 38 40 48 51 53 82 87 72 57 59 69 57 54 51 48 44 50 37 33 35 37 48 58 67 68 72

GFSSW_850_rhum_036.txt.gz
RH
98 94 89 78 83 83 78 72 74 84 77 70 76 100 67 61 97 92 94 96 80 76 44 46 83 81 80 71 59 62 82 84 74 59 37 21 24 22 20 19 17 19 39 68 72
96 89 80 76 77 83 79 78 73 77 79 73 71 96 80 70 55 86 85 82 92 94 84 71 90 85 78 69 58 54 75 68 54 49 41 24 23 23 22 21 18 22 47 63 46
97 89 89 95 78 79 77 94 76 77 74 74 86 92 82 70 84 65 63 77 90 97 84 67 78 86 79 58 54 50 60 51 63 49 39 26 25 23 23 27 20 19 38 63 56
93 86 88 90 79 80 80 83 70 68 75 69 84 92 79 81 74 78 25 65 83 96 87 72 62 78 73 64 49 47 46 39 32 33 33 30 24 23 21 22 19 18 32 55 61
98 82 88 92 95 80 82 92 70 68 80 70 71 86 85 81 68 61 62 65 70 93 85 82 58 70 71 57 45 49 38 33 32 36 36 31 27 24 23 24 28 30 30 31 40
100 98 87 81 93 82 82 95 79 79 75 72 71 87 86 71 55 54 76 95 93 92 77 76 54 60 58 49 47 41 41 36 30 39 38 34 28 24 24 25 28 29 29 29 29
100 100 79 81 96 78 88 95 82 75 81 64 69 77 87 66 65 73 58 89 100 89 78 69 55 53 61 56 46 40 48 40 35 39 38 39 42 36 26 26 26 27 27 26 24
93 84 74 89 84 67 79 76 74 68 62 59 53 92 74 61 54 61 67 71 88 83 75 69 61 49 56 52 46 48 45 59 41 38 36 41 49 34 29 30 29 27 25 23 23
81 84 83 69 65 60 63 63 62 74 75 70 66 86 62 66 60 57 64 85 91 86 67 69 67 51 58 62 68 54 60 58 45 38 39 43 43 32 28 28 29 28 27 22 21
61 60 57 59 60 60 57 58 60 58 64 90 82 75 64 52 59 56 60 73 92 94 77 97 73 61 63 73 89 70 56 48 48 43 43 48 47 32 26 27 25 25 23 22 23
67 72 66 61 66 63 84 91 88 86 82 65 65 58 59 72 64 72 96 87 84 97 95 90 81 78 64 52 48 38 44 41 33 39 44 45 42 35 28 29 30 28 25 23 22
60 64 68 69 68 82 81 73 93 90 74 59 56 58 69 81 85 90 89 88 90 96 71 88 88 54 47 40 39 33 39 39 30 39 41 39 41 33 29 30 29 28 26 23 22
67 62 60 67 80 88 90 98 97 95 97 87 75 86 81 94 91 94 84 87 91 88 79 78 61 45 40 40 40 40 40 37 43 45 39 41 44 38 31 27 27 27 28 28 26
56 60 60 65 88 78 76 75 80 74 100 95 89 88 85 96 96 95 92 96 87 71 65 81 54 52 46 43 35 47 33 34 50 55 58 40 38 36 35 34 29 25 25 23 25
56 58 62 66 64 88 66 65 76 90 94 90 90 77 86 97 93 98 91 77 86 78 85 96 78 69 58 49 37 40 44 47 51 56 58 48 55 34 36 34 30 29 31 31 32
52 55 58 89 93 78 55 66 95 99 97 96 92 79 85 72 80 90 92 86 95 78 82 93 85 88 84 54 39 42 52 52 50 56 89 58 46 44 38 31 34 33 34 36 36
45 56 63 74 94 90 78 94 99 93 97 94 93 88 70 75 79 77 94 96 98 98 100 95 98 86 78 71 52 48 63 89 94 95 87 46 50 41 23 28 32 32 33 35 38
43 56 67 76 94 88 96 97 88 83 97 69 75 68 76 74 81 88 96 100 91 85 100 98 98 97 86 80 69 59 59 83 73 89 73 43 64 38 26 24 25 32 35 38 42
45 66 70 73 82 95 99 88 88 98 74 57 51 81 84 66 65 90 90 95 88 83 98 99 100 94 87 80 62 71 84 46 70 40 76 57 36 29 28 28 32 32 33 40 46
47 80 83 68 79 99 91 84 80 74 62 50 59 51 62 55 57 61 66 70 70 59 50 63 98 94 93 83 73 64 48 75 93 78 62 45 39 42 39 35 30 33 29 39 46
69 74 75 60 85 94 93 86 60 57 56 55 49 46 51 54 51 46 53 48 42 44 42 50 67 99 95 99 92 82 83 67 62 70 85 52 39 31 34 31 32 31 32 37 43
80 92 66 61 89 64 86 65 66 53 54 46 46 48 47 46 45 46 53 51 41 39 48 50 65 93 92 58 50 67 67 63 85 75 64 68 50 27 31 34 33 34 36 39 48
88 68 69 61 82 63 57 55 54 51 49 44 46 46 44 43 50 48 52 46 45 46 49 49 76 94 78 66 55 63 54 55 55 74 81 80 52 33 33 34 33 35 40 46 57
85 89 75 73 63 62 58 53 59 62 50 45 44 42 45 45 39 51 55 51 47 47 44 43 56 78 85 73 67 74 61 57 67 90 61 56 44 35 37 36 39 42 49 58 61
81 86 81 96 70 65 58 58 54 60 55 47 48 45 42 47 44 48 53 56 50 51 46 52 88 74 50 54 68 64 61 60 76 67 71 42 37 37 36 39 41 49 59 63 64
94 93 90 73 62 61 69 58 61 57 58 48 52 42 39 44 41 49 50 48 49 52 50 55 93 83 81 55 59 72 64 55 60 60 58 52 45 30 29 38 46 56 63 64 68
68 92 96 66 58 58 69 66 62 64 60 57 59 57 47 66 56 48 40 37 42 53 56 61 91 92 84 57 61 82 68 62 57 53 54 63 43 35 42 44 47 59 66 66 71

GFSSW_850_rhum_039.txt.gz
RH
95 94 92 82 78 75 72 78 70 76 75 76 75 72 99 78 86 75 89 94 83 66 70 58 70 87 81 71 68 61 87 87 76 66 54 47 41 21 20 20 30 49 58 65 76
90 85 81 82 88 74 74 80 84 79 68 75 74 69 94 81 74 64 51 78 85 94 58 64 87 92 80 74 74 84 87 75 53 53 57 55 48 23 21 21 38 48 69 67 69
99 99 85 87 86 88 75 76 84 84 67 69 73 75 93 87 72 52 36 71 88 98 91 55 74 87 73 73 78 76 78 57 51 51 72 66 59 31 24 26 22 50 40 46 52
100 96 95 79 78 89 77 84 87 68 68 71 77 92 91 84 82 62 70 32 80 89 92 70 84 89 82 74 62 62 56 54 50 79 76 64 48 27 23 27 21 30 27 37 39
98 98 97 79 78 83 76 78 88 73 74 74 78 89 91 86 68 54 72 45 71 81 84 72 80 84 85 70 56 61 47 47 48 58 51 60 51 36 25 28 28 44 55 45 45
97 95 75 78 89 79 77 87 88 75 68 62 79 96 95 90 59 66 75 80 73 81 88 67 62 75 68 63 60 49 49 45 40 47 51 61 39 34 26 28 26 29 30 33 36
92 86 82 79 74 62 82 87 85 73 72 63 73 82 92 74 75 86 70 82 84 80 82 76 58 68 58 62 54 46 53 47 44 43 41 38 41 40 28 27 28 28 28 26 27
84 76 60 61 57 58 62 67 65 59 63 68 64 81 76 45 49 62 74 79 94 88 88 80 63 62 62 54 55 56 52 67 46 44 40 34 53 39 28 28 29 28 27 26 25
66 80 58 60 59 61 60 60 54 53 59 63 61 68 72 59 50 53 60 73 86 88 85 80 74 71 53 67 77 74 75 68 52 43 42 45 53 38 29 30 30 30 28 27 26
58 66 66 64 62 62 67 80 74 69 69 79 79 73 65 59 69 50 56 64 91 86 92 77 77 78 76 82 91 78 66 59 59 48 44 52 53 42 29 32 31 30 28 27 24
94 58 62 66 75 74 77 85 78 78 82 72 68 66 58 56 60 56 59 68 92 84 85 90 97 87 67 69 58 58 56 54 50 42 51 54 51 41 36 29 29 27 26 25 23
55 70 52 64 79 80 74 77 89 86 84 68 62 57 63 66 81 69 69 86 92 91 81 97 96 70 59 60 62 51 59 54 43 43 48 53 53 44 39 34 29 28 28 27 25
52 54 66 53 68 72 67 66 94 92 97 87 74 88 86 81 76 92 91 87 88 89 93 94 76 56 58 58 57 52 48 51 51 46 41 41 46 42 38 31 30 29 30 28 26
38 54 59 63 75 85 80 73 77 78 100 98 91 90 82 89 92 94 84 84 92 86 80 74 64 59 57 58 48 56 39 44 56 57 62 40 56 37 38 36 35 30 27 27 27
34 48 60 76 72 88 79 64 86 95 95 82 90 95 89 99 91 94 86 89 89 95 85 95 84 72 63 53 43 49 48 55 54 62 59 50 64 48 39 43 36 29 26 24 28
32 48 61 85 88 91 85 64 96 97 96 99 92 94 97 95 97 94 98 93 84 87 85 91 82 93 81 62 47 47 56 58 60 66 87 63 63 52 47 39 37 39 36 36 38
38 48 65 73 94 96 91 95 97 96 86 96 92 77 71 79 84 78 92 93 97 99 99 95 97 82 82 73 57 55 68 95 93 94 90 53 64 48 34 34 40 42 36 35 37
40 48 67 74 81 86 98 97 91 86 100 79 75 72 82 75 90 87 94 98 85 91 99 95 98 95 85 74 78 73 63 84 87 96 84 49 70 49 31 29 33 32 35 37 43
44 60 71 78 75 91 99 94 94 93 82 70 64 80 76 74 88 92 96 96 89 84 90 99 98 92 85 88 78 75 77 50 68 56 83 63 45 33 31 41 38 39 39 42 51
55 72 80 77 82 92 92 91 90 82 71 61 66 53 64 62 73 86 95 84 90 70 65 77 98 96 89 83 76 74 55 82 91 89 70 62 49 50 41 42 41 39 38 43 46
74 76 78 69 90 96 95 85 72 62 58 63 61 56 57 58 54 59 66 72 74 70 56 59 81 99 96 98 97 86 84 69 71 83 87 57 48 35 36 34 38 36 30 34 52
88 96 74 66 93 89 92 70 64 57 55 55 51 54 55 51 53 66 68 57 46 50 72 53 82 99 99 81 71 70 76 65 87 77 74 81 60 31 36 34 29 29 30 41 54
87 79 83 78 95 81 60 64 63 60 53 52 50 48 47 50 58 58 62 48 47 52 53 55 81 97 99 90 78 90 80 75 67 74 82 78 55 38 39 39 32 36 37 48 57
86 87 84 89 69 68 66 60 68 58 56 48 48 46 48 47 41 59 66 52 48 49 46 46 68 76 82 72 78 82 73 74 92 96 71 69 47 44 41 40 38 41 50 58 61
82 90 81 95 82 74 65 63 58 63 61 49 52 49 52 50 48 58 61 60 52 49 48 61 81 69 58 64 69 68 68 69 78 65 70 50 47 41 41 40 49 54 60 63 64
86 94 87 91 68 67 70 70 74 70 66 57 60 47 43 68 63 54 58 57 58 57 54 66 91 80 76 59 64 71 69 68 64 59 63 61 61 34 33 36 59 60 60 63 64
47 83 99 78 70 71 74 74 72 73 59 61 66 66 70 66 62 52 44 43 48 63 64 72 87 91 88 62 64 76 72 66 64 58 56 67 51 37 49 53 62 61 61 63 66

GFSSW_850_rhum_042.txt.gz
RH
99 100 98 97 82 84 86 74 80 81 73 68 75 75 67 93 87 92 63 78 86 74 66 57 51 96 93 75 62 62 92 83 77 68 64 54 61 44 26 26 34 46 66 69 74
96 99 99 98 84 77 90 74 78 80 73 69 71 76 73 87 85 82 56 50 76 81 83 70 58 98 98 80 72 77 80 74 54 54 63 65 70 63 36 35 67 68 71 76 75
99 97 97 88 79 77 87 80 78 81 78 61 70 72 87 96 90 76 57 38 78 86 76 65 52 91 80 85 92 85 77 55 52 50 83 78 71 62 49 29 49 60 74 77 69
98 87 83 87 70 88 80 79 81 83 61 66 72 86 100 85 82 62 77 47 54 86 92 69 73 95 84 94 81 84 62 54 59 77 65 76 73 65 45 31 24 22 35 61 54
99 72 70 79 82 76 77 74 82 79 69 73 76 88 100 89 68 60 60 77 39 83 94 71 86 89 86 72 69 61 60 60 71 77 75 79 76 73 61 34 25 32 43 36 50
79 85 65 68 61 66 84 88 84 75 63 67 81 97 91 86 67 77 79 62 51 84 91 70 82 74 68 68 69 59 51 59 75 75 81 84 74 78 43 31 41 53 61 50 48
55 52 52 57 57 55 71 84 83 76 69 62 76 86 87 80 75 79 83 77 85 86 88 70 71 74 60 68 55 54 62 55 54 56 55 62 79 69 43 37 35 35 34 35 40
47 59 52 55 60 56 52 58 63 59 56 56 62 81 67 63 57 66 75 91 94 90 79 63 69 66 65 61 63 56 56 70 51 50 46 52 62 50 41 37 31 30 29 27 26
78 52 58 54 62 64 67 56 50 60 59 58 70 71 60 60 57 63 65 74 92 83 91 73 77 69 63 73 86 76 80 68 58 47 47 42 50 40 34 35 32 31 29 28 26
60 50 53 59 60 63 69 82 75 56 63 74 73 82 62 65 62 54 58 65 85 82 96 86 78 85 76 84 83 78 77 58 56 52 48 53 54 40 35 33 32 31 30 29 28
60 51 44 62 69 73 70 76 80 73 79 72 67 64 57 55 69 58 68 69 97 91 96 96 86 86 78 72 60 64 57 64 54 46 49 50 55 46 39 34 35 33 32 30 27
21 50 58 53 61 71 70 65 82 82 79 67 66 66 61 71 79 78 68 90 95 90 92 96 86 69 66 66 63 61 62 60 47 44 51 55 56 48 44 42 34 28 28 27 26
33 52 52 52 57 62 61 63 76 92 93 87 76 85 86 80 77 79 76 89 85 85 94 88 74 68 64 71 74 60 67 56 51 48 43 46 51 50 44 41 37 33 27 25 28
12 46 55 64 70 74 72 71 72 74 98 98 90 90 78 83 89 93 80 89 89 83 85 86 66 71 69 68 60 69 45 43 55 59 72 42 68 42 41 43 41 34 32 30 29
12 46 58 63 72 70 82 68 75 91 96 94 97 95 90 91 84 92 80 78 87 89 89 95 81 72 72 64 46 54 45 59 56 63 60 53 58 47 41 50 44 42 32 29 28
12 48 63 71 88 84 92 65 96 88 94 100 97 94 92 87 90 94 90 86 84 85 84 93 89 84 70 60 47 54 59 64 70 68 82 64 63 62 48 45 41 36 29 26 30
17 50 66 72 86 92 93 88 91 92 79 90 95 99 92 97 92 77 83 97 97 99 100 97 96 83 84 66 57 57 65 92 90 92 82 58 71 49 40 36 39 45 38 35 39
40 60 74 80 88 92 86 94 88 82 100 74 78 89 99 95 94 92 96 98 86 82 99 98 99 93 86 76 72 64 59 85 83 98 81 54 71 54 36 31 31 35 35 38 42
47 69 80 85 90 94 91 93 80 94 75 79 66 80 99 94 92 89 89 89 83 84 87 96 98 88 84 89 78 73 81 56 72 70 86 67 56 38 38 42 42 40 38 38 42
61 76 80 78 90 99 89 90 88 78 76 73 71 54 69 82 95 96 92 77 83 75 74 83 98 96 86 85 74 72 59 80 91 85 74 62 63 52 43 49 46 47 45 42 48
72 79 85 79 98 98 93 90 81 66 68 63 66 58 58 59 69 75 87 81 76 76 71 74 80 99 92 97 88 86 95 81 79 79 87 72 58 40 41 45 46 45 44 49 53
80 94 90 85 99 97 92 71 66 59 58 60 53 54 56 53 60 71 71 65 69 61 83 63 91 100 98 84 72 74 85 66 91 90 84 83 62 36 37 41 41 39 38 35 45
80 83 93 95 96 83 65 67 64 62 57 55 54 51 49 51 66 64 62 54 62 58 68 60 88 98 98 90 84 96 88 72 68 78 82 78 53 40 38 36 34 33 32 37 54
77 87 78 92 83 78 70 62 71 61 58 51 51 47 50 48 54 66 65 55 50 50 48 50 75 77 81 70 84 98 89 82 80 92 72 81 51 42 42 40 37 32 39 49 60
77 92 89 92 76 76 72 65 65 66 61 53 53 51 53 54 55 69 65 60 54 51 52 56 80 72 62 68 71 73 77 80 94 69 83 56 60 44 40 42 39 38 51 62 64
82 93 88 92 80 74 78 81 75 74 69 68 64 68 59 73 64 63 62 62 61 57 56 70 92 75 75 61 65 70 71 75 78 78 78 61 67 44 34 37 46 52 58 62 63
58 90 98 72 60 75 77 75 76 78 65 69 73 68 70 66 62 60 49 46 50 63 68 74 88 88 83 68 66 76 70 70 70 64 67 72 48 41 47 43 57 59 60 60 62

GFSSW_850_rhum_045.txt.gz
RH
98 94 97 92 96 83 73 75 85 76 83 78 67 73 69 84 96 99 79 63 74 81 75 56 68 94 98 96 84 65 82 72 72 67 65 59 70 61 46 45 57 59 68 68 79
98 97 99 99 82 76 72 87 78 75 79 75 73 70 73 72 93 100 82 43 66 87 86 58 63 73 98 90 88 87 84 69 48 56 70 66 70 66 59 55 59 68 75 77 80
99 97 99 96 93 81 82 76 78 76 75 75 65 71 78 77 93 92 76 57 57 85 89 85 55 70 92 93 93 86 81 59 54 55 79 77 65 70 63 52 39 59 75 76 80
93 97 91 93 70 66 69 71 75 72 63 62 68 72 88 92 90 84 87 90 51 80 86 89 77 80 78 93 82 84 62 54 64 66 63 69 74 78 66 55 46 44 91 65 69
94 65 46 45 48 74 78 80 84 74 66 71 72 84 97 98 81 70 68 72 80 73 89 89 77 80 68 87 82 77 62 54 70 76 73 71 81 88 76 50 44 35 61 55 56
59 64 52 53 50 63 82 83 79 75 57 59 84 92 98 96 81 76 70 66 70 71 89 88 72 68 68 78 81 68 60 70 77 73 74 75 72 84 63 51 47 54 59 54 59
86 53 55 55 52 53 63 73 72 69 62 55 77 92 90 85 76 75 87 68 65 65 90 84 69 74 72 77 61 62 75 86 85 73 84 78 88 92 56 56 57 46 59 54 60
98 93 60 57 58 54 54 56 56 54 57 57 66 61 63 66 75 68 88 89 79 59 88 84 76 66 68 65 65 71 74 89 74 75 73 68 77 72 59 62 55 43 44 52 50
93 96 92 60 60 59 62 56 49 56 63 63 70 77 60 70 77 66 68 87 86 89 85 93 72 73 68 82 87 74 89 77 67 59 66 60 64 51 48 53 46 42 33 30 29
85 87 72 85 69 58 65 70 64 55 66 73 77 76 58 60 71 58 63 79 93 74 99 84 76 87 82 85 85 86 86 71 66 57 70 69 55 57 49 49 43 39 35 32 28
50 74 59 55 63 74 69 72 74 70 76 73 74 68 58 62 71 60 54 68 94 93 96 85 89 93 85 66 60 69 65 71 54 51 56 68 54 56 56 56 38 34 35 31 31
54 52 66 58 52 64 64 63 64 71 77 70 68 72 66 71 82 73 65 81 88 95 92 92 84 74 70 68 65 67 66 67 51 49 53 54 55 46 44 45 40 35 33 34 31
62 22 80 59 54 58 57 62 73 88 92 83 77 82 86 78 83 84 63 88 90 96 92 98 76 67 70 74 72 65 70 61 60 51 47 54 58 54 47 46 42 38 35 32 30
46 20 67 60 66 67 71 70 69 78 97 93 87 88 83 84 88 88 79 86 95 96 91 96 70 71 76 76 72 76 49 50 57 62 76 49 84 50 45 46 47 39 36 35 32
40 16 60 63 77 71 79 70 65 89 96 97 92 92 79 86 84 87 77 86 92 92 90 97 87 81 80 70 55 62 48 50 58 65 59 54 67 53 38 42 42 43 36 32 33
30 22 62 67 87 84 88 65 85 85 94 99 95 90 87 81 84 86 81 86 92 85 88 94 86 72 71 56 48 55 60 64 71 67 88 64 64 64 44 41 35 36 33 33 33
15 48 64 75 84 91 94 88 93 92 76 100 98 87 81 89 82 78 78 95 98 99 99 96 93 82 80 69 56 52 66 94 94 93 88 66 65 46 39 39 40 37 31 33 31
30 61 74 79 88 92 92 86 90 78 99 78 94 90 92 83 72 75 75 93 89 91 93 100 99 93 87 71 72 66 61 88 86 97 80 59 75 56 40 35 33 31 31 32 35
61 71 87 88 88 91 90 92 79 85 72 82 99 100 100 87 67 71 75 79 86 84 92 96 100 86 87 85 72 72 76 54 77 76 88 71 59 39 38 39 41 41 38 38 44
74 83 91 91 91 97 89 88 87 73 73 76 72 66 99 89 78 88 89 77 84 76 70 77 98 96 85 78 75 70 62 76 90 80 81 66 66 54 37 40 46 50 49 46 47
82 86 93 91 98 98 95 94 80 67 70 65 67 60 66 97 89 86 84 78 68 80 73 77 78 98 87 94 91 78 90 83 78 78 78 79 59 47 39 40 47 47 45 42 45
85 96 96 99 99 98 94 76 67 61 62 61 55 56 58 56 74 72 92 80 70 68 80 68 80 94 92 84 74 77 85 78 90 87 87 84 72 35 41 42 42 45 41 41 42
78 92 99 100 98 87 70 68 67 65 60 56 57 54 50 53 72 66 64 62 70 70 78 71 91 98 95 93 87 95 90 78 73 80 87 85 68 38 38 40 42 42 42 46 50
73 92 89 99 95 85 83 66 71 61 59 54 54 49 50 52 63 71 68 57 60 57 54 53 79 77 81 70 86 96 88 86 76 98 80 74 62 41 37 37 38 39 40 37 37
76 96 90 96 83 80 75 81 70 62 63 56 57 58 54 55 60 74 67 61 56 54 63 60 81 80 68 66 82 88 86 82 90 76 86 61 64 47 40 42 35 35 35 46 53
70 86 88 86 73 76 79 83 82 76 76 70 71 70 64 72 66 71 66 63 58 58 62 69 89 73 76 62 70 75 78 87 85 76 72 71 76 47 38 36 38 34 38 50 54
60 87 90 64 56 78 70 81 72 76 70 76 83 68 70 68 67 63 54 51 52 64 72 73 88 87 84 78 66 73 65 72 78 73 76 88 60 42 42 45 42 40 43 45 48

GFSSW_850_rhum_048.txt.gz
RH
99 96 99 97 88 72 65 76 86 81 79 78 83 74 61 71 87 96 98 70 66 86 82 54 89 88 96 95 81 93 88 86 78 72 64 64 62 56 52 52 46 80 84 75 75
99 99 99 100 99 88 83 76 75 72 76 82 77 74 68 74 80 94 98 80 55 81 94 67 80 81 94 99 94 92 89 78 54 60 70 70 67 65 60 54 47 49 95 97 84
99 97 98 88 80 86 94 68 76 74 77 75 69 64 66 82 85 85 95 88 60 96 93 75 66 75 81 92 99 98 82 63 53 50 63 73 68 69 68 62 49 63 46 92 84
89 99 91 74 82 95 85 82 68 71 69 62 60 61 69 88 91 85 83 85 82 92 100 94 83 75 83 95 84 86 81 65 57 54 62 64 62 75 73 60 56 52 50 73 81
100 77 96 85 54 70 80 79 74 74 67 68 69 81 96 92 90 89 83 88 74 98 99 98 89 70 78 73 81 85 70 66 64 62 66 65 67 80 66 52 54 48 51 62 69
95 100 65 96 64 50 66 73 70 67 66 67 81 90 97 90 81 87 82 75 78 92 92 94 83 64 65 68 74 74 64 72 78 77 74 65 76 70 45 48 50 49 48 63 68
98 94 99 60 63 56 50 59 65 59 65 61 77 85 90 82 80 81 85 81 67 71 91 90 72 70 70 82 71 75 80 86 80 81 80 69 69 76 51 57 60 54 49 53 74
100 98 96 92 61 57 58 57 48 51 53 56 64 64 66 70 78 81 78 80 68 64 76 79 64 72 77 71 68 82 89 99 86 77 90 68 80 67 54 62 60 56 47 40 64
98 99 96 92 92 58 57 66 47 51 52 65 72 82 63 69 75 65 66 92 74 65 85 86 78 71 72 88 87 82 97 86 98 70 87 76 78 54 60 71 69 59 52 41 35
98 99 84 95 87 84 60 70 60 52 61 71 75 70 56 56 68 59 64 93 88 78 95 98 84 88 88 87 88 93 89 78 82 87 84 86 66 56 64 69 72 64 50 40 37
100 100 77 96 69 69 66 66 72 63 70 74 77 71 61 77 72 59 55 79 92 77 95 91 99 91 90 69 64 73 68 81 59 63 78 81 67 59 64 76 75 64 48 38 32
100 100 57 76 76 59 62 62 70 72 71 73 70 74 69 74 76 70 59 81 89 95 94 97 99 79 71 66 66 66 75 73 55 57 62 76 72 55 59 56 56 57 49 38 32
100 100 57 81 74 58 57 60 69 70 90 80 75 83 86 82 87 84 64 92 91 97 100 97 76 71 73 74 72 68 76 69 68 57 48 63 69 62 53 50 45 44 41 41 34
99 97 31 84 79 69 69 71 72 74 97 90 84 80 83 84 90 82 71 93 90 99 97 96 79 76 79 78 70 74 58 55 64 68 87 52 91 64 50 51 49 45 42 39 36
97 66 28 97 87 79 73 71 67 84 96 98 94 84 84 85 85 91 78 84 94 93 94 98 87 83 83 77 57 63 52 54 59 69 61 57 75 61 40 54 45 41 41 37 34
33 20 50 86 90 85 82 62 89 85 96 99 93 87 85 80 87 88 84 87 96 88 89 94 88 73 71 61 52 59 61 64 67 72 90 70 73 68 52 40 33 34 36 33 32
19 47 63 82 88 88 90 86 90 92 76 100 98 82 77 85 82 78 92 98 97 99 99 98 96 83 74 67 56 55 71 96 94 94 91 70 72 58 41 37 35 30 26 24 28
46 66 76 85 92 95 92 79 91 80 100 87 78 83 82 74 73 64 80 100 87 86 100 99 98 92 86 72 74 62 61 87 87 96 83 64 82 59 42 36 34 34 31 31 29
72 85 88 89 92 91 86 93 80 83 74 97 94 100 87 78 68 67 73 80 86 84 87 99 99 86 88 84 65 70 78 56 79 76 88 74 62 41 36 38 36 35 35 34 34
81 91 97 96 95 97 84 89 87 69 73 92 100 98 95 80 69 67 76 67 87 79 66 79 99 95 85 79 73 66 61 77 88 81 83 68 68 58 42 36 37 43 44 42 39
87 94 94 96 100 94 97 95 78 68 71 69 70 69 89 81 65 76 84 80 73 84 70 73 78 99 88 93 90 78 90 80 74 76 80 74 62 47 42 36 41 41 43 44 46
91 95 94 100 99 97 98 80 68 64 66 64 58 58 64 87 92 87 90 77 68 74 77 69 81 95 99 86 80 77 78 75 89 85 89 85 74 40 39 45 41 41 44 44 49
85 100 97 100 93 89 75 68 68 65 65 59 58 56 51 60 76 69 68 66 69 70 74 75 89 96 98 90 88 93 90 81 76 83 90 90 71 36 41 37 38 45 45 43 44
82 93 97 100 98 91 84 77 71 64 61 58 57 52 50 64 70 72 70 65 66 60 56 57 82 78 85 71 80 96 94 88 77 94 77 76 67 55 48 39 34 39 42 41 45
78 96 93 94 90 84 77 82 76 63 65 64 63 66 56 61 66 77 69 65 60 64 73 64 85 80 70 64 88 88 83 87 93 85 87 62 66 52 48 44 33 29 38 43 49
67 86 90 76 70 80 82 89 86 79 75 80 85 75 65 73 72 73 69 66 66 60 76 69 89 73 76 64 79 85 79 87 81 80 85 76 75 49 42 41 39 33 36 42 42
68 89 88 63 64 77 63 72 67 77 77 84 84 67 77 80 82 74 61 57 56 67 76 74 88 88 86 78 69 80 69 72 82 80 76 92 66 50 53 51 45 40 34 38 36

GFSSW_850_rhum_051.txt.gz
RH
99 99 96 92 94 86 97 93 85 69 75 82 81 81 84 73 61 82 98 87 66 90 85 80 93 92 85 81 80 84 95 86 72 64 65 64 58 61 51 58 69 81 82 99 97
92 91 93 96 93 96 97 93 86 71 69 66 75 71 77 62 69 85 86 86 65 91 92 90 93 85 92 93 89 91 89 77 59 61 72 68 66 69 55 45 51 50 47 93 100
100 97 98 95 97 92 94 91 85 71 66 58 63 62 61 68 77 79 74 88 84 85 90 94 80 79 87 95 93 96 82 66 56 61 61 68 69 66 60 56 60 65 52 64 99
93 99 91 98 96 48 87 84 88 82 65 64 59 60 63 82 85 88 91 88 87 92 97 97 84 80 85 87 92 89 73 64 69 69 65 61 60 67 64 53 51 53 51 55 95
93 96 97 82 99 47 58 92 84 89 52 68 78 73 83 93 85 82 95 89 89 99 96 99 86 73 82 80 85 78 75 88 78 72 68 65 64 65 62 49 47 46 44 51 72
99 97 90 98 87 74 49 65 72 62 57 62 76 91 97 90 72 74 85 89 84 99 94 99 82 68 70 75 77 76 73 66 73 80 72 69 66 61 48 50 50 45 42 48 57
96 100 97 90 99 62 55 85 53 53 49 47 70 85 87 78 79 79 76 89 88 84 84 96 82 63 71 68 69 78 81 79 79 79 82 77 63 69 56 51 50 45 45 46 43
98 98 99 98 84 87 55 77 57 49 49 48 51 62 68 79 76 85 75 76 74 74 70 83 82 62 77 72 73 80 77 91 89 80 90 72 77 55 54 55 56 50 45 46 47
98 96 100 98 94 90 70 63 57 50 52 63 62 74 65 68 91 76 80 86 78 64 66 83 86 72 76 83 88 90 87 87 98 73 82 69 74 53 54 63 56 52 51 49 50
98 98 100 93 98 88 85 64 70 51 59 64 66 65 55 66 74 77 71 91 82 66 84 100 89 87 88 89 81 87 93 82 90 89 84 79 69 54 66 62 54 49 52 54 52
98 98 99 89 98 65 77 64 70 64 66 68 70 71 62 79 73 66 75 93 84 82 91 99 93 87 86 76 65 73 79 74 67 80 79 79 71 57 67 69 75 65 62 56 53
97 98 98 94 98 67 67 61 63 67 68 73 69 69 70 82 76 68 82 93 92 92 93 97 97 74 69 62 68 72 78 78 58 77 74 81 79 62 66 65 55 58 52 58 55
97 98 99 80 99 69 64 59 67 66 86 79 79 81 83 86 88 83 82 94 88 97 98 98 85 73 69 71 71 71 72 76 67 77 60 76 81 73 58 62 60 50 44 54 55
97 99 91 60 84 72 70 73 67 72 97 87 81 77 82 85 90 82 90 91 92 97 93 97 73 80 75 71 65 76 61 63 69 79 81 59 81 68 64 55 56 56 56 51 51
97 89 34 82 87 78 77 73 69 84 94 98 90 79 86 83 85 79 87 83 93 94 94 98 80 76 78 70 60 66 57 61 65 68 64 62 76 62 52 61 54 50 48 39 41
40 26 32 85 85 84 82 72 92 86 96 99 87 83 82 81 87 84 89 86 90 92 91 95 84 73 71 73 54 61 61 63 64 64 89 70 75 66 52 45 41 43 43 41 38
34 59 63 81 90 88 87 89 92 93 95 100 90 85 82 84 81 89 95 94 98 99 100 96 90 82 70 70 58 59 67 93 91 92 85 66 73 57 45 37 35 32 31 36 38
67 73 77 85 87 90 93 75 94 84 99 86 76 82 80 73 73 71 92 98 86 84 100 99 98 90 85 69 70 62 61 82 93 93 79 66 76 51 43 38 34 34 34 32 32
76 82 84 88 91 94 88 92 83 85 94 80 86 90 81 75 70 60 77 89 82 80 94 99 100 87 89 81 64 67 75 56 80 78 79 66 58 40 35 33 32 31 32 29 29
80 85 92 92 94 98 86 91 87 67 88 80 98 93 91 78 71 70 75 66 86 78 66 80 98 89 85 79 68 64 60 76 84 83 79 63 59 45 35 35 34 33 33 33 35
84 84 93 96 97 96 98 96 78 69 74 88 91 100 89 72 64 76 70 79 75 83 70 73 79 99 85 88 84 72 82 77 71 72 73 67 49 45 42 34 38 38 36 39 40
82 95 96 99 99 94 98 83 71 67 69 67 60 67 88 81 65 85 87 83 71 74 75 68 83 94 99 86 76 78 75 69 82 82 84 78 65 39 38 40 41 37 38 41 43
83 95 99 99 89 92 80 72 71 65 64 60 59 55 61 88 93 73 78 70 73 68 74 71 86 96 98 86 83 90 89 76 74 80 90 81 62 39 42 37 35 40 40 34 46
80 97 100 100 99 97 86 81 74 65 66 60 62 54 54 69 72 76 75 73 69 67 59 60 80 76 81 71 85 97 96 85 77 94 81 69 60 51 46 48 46 39 34 35 40
71 92 91 97 92 85 82 84 77 72 63 70 66 79 61 68 72 80 70 70 69 78 71 67 87 80 69 64 82 80 80 90 94 83 85 59 62 49 50 48 43 39 36 36 40
63 86 91 75 70 81 82 87 86 84 84 79 83 78 76 82 77 75 71 72 80 68 88 70 96 73 78 69 80 88 84 88 88 87 84 78 76 53 53 50 45 41 36 34 37
76 82 69 66 69 77 62 67 69 79 74 86 88 69 88 91 91 82 66 60 61 74 83 82 85 84 80 77 69 76 68 76 80 81 76 87 64 52 60 56 54 49 45 38 38

GFSSW_850_rhum_054.txt.gz
RH
99 99 99 98 94 97 100 96 86 81 68 77 83 80 77 74 79 63 92 85 76 91 80 91 94 88 71 80 70 71 63 54 46 40 45 57 48 60 57 54 57 57 57 73 89
87 93 99 98 94 90 90 88 83 66 63 65 67 69 70 78 76 86 88 76 75 90 90 96 82 96 84 82 78 75 82 50 43 50 52 58 51 58 47 44 49 47 53 89 99
88 97 91 94 97 79 81 78 83 82 64 60 57 62 64 64 79 70 72 85 82 89 98 97 79 72 64 95 78 72 66 51 49 57 58 58 56 62 42 44 49 48 52 79 100
96 88 96 91 86 87 52 88 80 83 57 62 61 56 64 78 63 96 85 70 83 94 92 99 81 68 55 72 83 80 57 50 46 66 58 48 61 52 53 51 59 56 53 59 91
91 99 87 95 98 83 55 59 71 71 59 68 67 68 82 82 75 81 90 80 90 92 98 98 74 56 50 51 69 70 71 64 53 73 65 61 55 56 55 55 55 55 52 50 68
92 88 97 91 98 96 57 57 71 50 49 53 67 80 95 71 77 68 85 90 86 88 88 93 65 59 47 49 55 55 71 69 62 74 76 67 57 63 38 56 57 55 49 49 51
91 91 92 97 91 94 73 51 82 45 47 49 64 78 88 69 76 75 80 86 91 82 83 93 72 63 49 50 54 57 64 65 65 62 64 75 70 57 47 49 50 46 49 44 46
90 95 93 100 91 86 87 53 67 43 45 49 50 60 66 74 76 76 82 83 83 76 85 99 85 70 58 58 53 52 57 78 59 67 67 70 64 42 47 49 46 43 46 49 42
91 94 94 98 99 98 81 62 59 48 48 60 67 72 62 73 86 90 80 91 84 74 96 88 92 68 66 53 58 57 60 65 85 58 66 61 52 44 52 51 44 40 41 46 43
90 93 92 97 97 99 72 62 60 58 52 60 64 65 58 68 95 86 72 93 91 81 95 88 84 62 50 50 55 48 46 58 82 75 68 68 57 43 47 47 41 35 34 38 49
92 92 93 97 89 99 67 55 73 73 57 70 73 68 64 75 77 81 72 99 82 72 74 100 96 79 54 42 34 37 45 57 73 70 77 71 62 49 43 52 49 41 38 37 44
96 96 97 98 84 99 65 53 62 63 56 68 75 72 68 80 76 84 88 88 93 80 84 93 99 50 44 48 48 50 48 48 50 65 77 70 64 47 41 42 44 42 38 40 42
96 98 98 98 95 87 61 54 66 64 71 76 84 90 87 80 77 85 93 92 86 79 94 95 86 56 55 56 53 47 46 48 46 57 58 58 59 53 43 41 42 42 39 38 40
98 99 99 51 88 71 63 67 64 63 94 80 67 77 87 76 74 85 95 96 87 82 95 95 76 57 51 53 43 56 44 48 51 49 50 48 38 40 40 43 40 42 43 39 42
93 88 82 64 84 76 73 72 68 76 86 90 76 73 85 73 74 79 91 95 76 80 84 97 89 63 60 54 42 53 48 46 44 42 50 54 53 28 38 41 36 37 41 42 46
53 77 50 91 85 80 76 70 88 92 91 98 73 68 70 71 77 84 92 87 77 72 77 93 80 65 56 53 48 48 49 50 52 48 67 44 49 34 34 33 30 31 37 40 42
70 66 79 86 91 82 74 87 96 89 98 87 67 71 68 78 93 96 81 91 97 99 100 96 93 73 61 59 50 43 46 78 75 80 59 51 55 34 32 30 28 27 28 34 38
78 79 79 77 78 82 90 70 89 95 95 75 64 68 65 71 80 83 85 99 88 80 99 100 99 84 66 56 57 52 37 52 62 62 49 52 58 34 29 32 32 32 30 32 32
84 84 82 80 78 91 86 93 87 94 87 67 68 70 61 61 59 64 80 70 73 75 99 92 97 76 71 59 49 64 68 42 59 58 57 40 39 29 24 23 24 25 29 30 31
90 86 88 85 90 95 76 91 89 69 76 57 85 66 62 60 55 62 66 66 76 64 61 68 99 72 70 60 55 52 43 60 69 74 53 41 39 24 28 26 23 23 27 30 38
93 93 90 91 95 91 93 92 72 68 78 93 98 90 62 52 49 55 61 67 65 69 58 57 60 95 67 67 69 60 61 58 50 56 51 38 26 24 26 26 26 27 34 38 40
88 88 91 97 96 85 94 74 71 66 74 66 82 70 62 52 48 63 64 69 65 60 58 56 62 89 98 77 59 54 49 46 57 69 58 53 34 25 26 27 31 32 37 40 34
96 98 97 99 84 73 68 67 69 59 59 56 58 82 78 75 72 71 71 66 70 58 57 53 72 96 100 86 72 71 61 52 51 61 68 59 40 29 30 31 32 36 37 40 42
87 94 98 100 98 83 76 71 68 67 64 58 53 48 62 63 60 73 75 69 69 61 62 55 60 67 59 66 62 77 67 63 59 73 54 51 43 32 33 32 30 32 36 37 47
74 78 88 90 83 73 76 76 68 66 59 63 59 60 51 62 65 69 68 73 69 74 62 55 87 77 56 60 68 66 64 67 86 64 65 48 41 34 33 35 38 42 41 39 40
71 81 85 72 70 74 73 74 73 76 74 67 65 66 54 60 64 65 66 69 73 71 73 61 90 70 76 62 68 72 62 63 64 61 62 61 62 42 43 43 43 42 42 44 41
53 71 66 65 61 69 64 62 70 74 72 79 70 61 73 83 86 78 66 57 55 69 82 78 77 80 73 63 60 63 50 52 56 60 60 66 45 39 44 45 48 48 47 46 46

GFSSW_850_rhum_057.txt.gz
RH
80 85 89 96 92 94 88 82 86 78 62 57 62 78 81 79 82 89 88 74 82 86 71 91 86 83 85 85 68 55 76 68 44 31 36 45 39 48 47 42 49 48 52 65 97
85 81 94 96 90 93 79 84 86 83 79 59 54 59 67 74 92 83 83 78 76 86 91 90 80 76 88 80 75 66 81 54 46 37 44 47 36 43 41 41 43 42 55 95 96
96 92 83 90 95 88 90 86 83 82 63 57 56 55 58 64 82 64 75 73 78 87 98 97 75 69 63 95 76 63 60 44 44 44 47 51 49 48 38 40 41 44 51 97 100
83 92 94 81 94 94 87 89 78 85 60 51 66 57 59 90 67 86 68 70 81 88 88 95 90 67 61 82 89 68 48 50 48 61 47 43 48 44 40 46 48 49 47 68 98
84 86 89 90 86 94 93 52 81 59 48 40 59 63 84 71 60 86 79 70 69 81 96 98 77 65 50 62 77 91 50 51 73 57 52 58 46 48 47 48 52 48 46 48 75
88 89 86 86 89 86 95 61 64 77 45 42 49 69 91 59 73 75 87 85 81 75 100 99 76 55 43 47 78 72 62 53 52 55 58 56 53 61 42 45 48 50 44 46 51
94 85 88 88 96 88 84 86 55 77 43 46 46 82 76 70 71 75 81 84 86 79 98 99 84 61 48 37 52 61 70 60 55 50 47 61 60 53 47 44 42 42 41 44 47
88 84 84 84 93 83 89 87 66 52 43 46 46 80 64 68 73 79 82 82 89 79 82 83 97 70 47 39 48 73 83 87 56 51 46 53 56 40 45 48 42 43 37 40 44
89 87 88 84 94 83 95 79 63 55 44 48 76 72 56 68 84 91 83 87 86 97 96 86 96 70 55 49 56 50 75 71 54 45 48 55 42 36 38 39 41 41 37 36 40
92 87 90 84 94 85 97 72 65 59 62 73 70 70 54 65 91 93 88 82 95 98 97 99 93 60 52 54 63 45 32 40 52 56 54 63 52 40 42 44 40 39 38 35 35
93 90 88 93 98 89 76 94 86 77 68 57 56 54 53 74 90 86 91 96 92 91 96 94 98 71 42 36 27 27 27 38 38 51 63 61 55 46 38 39 39 39 37 34 32
89 92 92 95 98 99 76 80 70 70 50 68 66 64 65 78 80 87 95 94 93 83 80 94 98 44 33 32 34 26 30 43 50 56 64 62 65 46 38 36 37 34 32 32 30
95 96 98 99 95 97 95 76 63 61 62 68 69 69 74 79 67 90 95 99 68 63 82 95 88 66 39 44 42 35 31 33 51 62 58 61 80 58 40 36 34 35 33 31 30
86 98 99 96 94 96 84 66 61 60 88 65 57 72 77 74 73 83 95 94 90 76 70 80 85 82 49 44 38 42 29 34 40 53 56 46 42 37 36 37 34 33 34 34 35
45 91 94 93 98 91 85 67 62 76 94 71 66 62 73 66 68 86 94 88 71 74 68 92 93 78 53 43 33 40 37 38 39 42 30 44 46 26 27 32 30 31 31 32 35
42 64 76 93 99 90 67 64 89 92 91 94 59 56 56 60 66 87 94 94 52 62 87 92 94 72 42 36 37 43 41 40 38 36 56 41 39 28 23 28 24 22 25 29 33
66 75 91 99 96 76 66 90 97 93 94 78 56 53 52 82 83 86 89 94 73 91 100 98 95 78 58 54 47 40 44 65 63 74 58 37 36 29 25 25 24 25 25 26 29
77 78 74 73 80 77 98 71 90 79 89 58 52 55 60 72 90 69 96 94 66 50 93 100 99 78 56 43 48 47 37 48 53 52 43 42 48 29 24 24 25 26 26 26 28
79 90 87 73 79 86 79 98 91 94 59 50 53 57 55 58 63 66 96 86 58 59 85 83 100 80 58 52 42 47 53 38 49 39 44 37 30 25 21 22 21 21 23 24 27
93 99 98 78 89 98 79 88 77 77 68 43 63 47 54 54 53 55 80 66 66 65 66 64 94 79 70 59 48 45 38 50 60 66 41 34 29 23 23 23 21 24 27 28 31
100 88 85 85 98 92 89 80 69 67 63 65 85 61 44 44 44 48 64 62 59 62 54 51 50 87 78 68 56 56 58 50 43 50 52 30 25 20 24 24 27 28 32 33 35
98 78 87 90 95 67 83 66 67 62 70 79 73 62 41 36 42 48 59 58 54 52 60 48 57 75 70 66 53 48 43 42 52 62 43 45 35 20 22 24 28 29 31 32 39
85 86 87 96 88 64 60 59 58 56 56 56 71 67 59 49 54 55 58 57 60 51 59 48 66 97 92 62 53 58 48 44 39 55 60 53 33 25 24 26 27 29 31 30 34
83 86 98 97 94 63 58 57 60 61 53 50 46 55 55 54 53 62 64 61 60 55 57 51 50 60 62 60 45 60 50 49 50 69 50 45 36 28 27 26 24 25 30 34 36
77 59 68 88 72 61 63 57 53 57 53 50 49 49 48 56 57 63 63 65 61 65 53 49 80 74 50 56 60 59 49 48 67 57 58 40 38 31 28 31 34 36 36 37 37
60 60 75 60 62 60 69 61 54 63 58 53 52 50 44 49 56 59 62 64 65 58 56 52 84 67 82 53 57 64 52 50 51 52 52 47 47 34 35 36 36 37 37 38 38
53 60 60 62 57 53 54 57 61 60 65 62 52 50 61 71 65 58 53 52 50 58 62 62 69 82 74 54 52 58 44 45 49 46 48 52 38 38 42 45 48 48 48 46 44

GFSSW_850_rhum_060.txt.gz
RH
89 90 76 92 97 94 87 79 80 76 83 61 53 57 73 74 77 80 92 65 84 88 75 83 80 85 79 89 78 54 81 66 50 36 41 41 44 43 39 44 47 48 63 84 78
78 85 90 78 87 96 94 66 83 80 80 57 57 51 59 63 82 84 76 91 73 97 85 78 89 84 76 77 76 71 96 61 40 42 44 42 39 42 41 43 43 52 82 93 91
84 82 89 88 79 90 97 87 67 80 76 47 59 53 56 59 86 72 84 77 80 79 80 87 82 79 72 83 73 78 75 58 47 54 40 44 43 44 40 52 44 46 77 98 98
82 84 82 81 83 74 99 98 51 72 53 45 56 52 52 80 76 74 70 64 65 70 91 91 92 80 68 91 72 76 54 57 69 53 60 50 46 42 44 47 47 48 53 85 97
78 86 89 80 82 84 77 96 66 74 65 41 42 51 59 76 68 85 62 63 68 79 85 95 88 85 72 63 84 77 63 75 77 68 65 57 46 52 50 49 45 46 46 61 89
80 90 90 82 82 87 78 86 91 53 74 42 40 66 83 72 70 71 78 69 94 76 79 92 91 71 56 56 78 77 83 74 82 73 77 60 52 51 48 45 47 45 44 48 65
86 88 83 83 87 89 79 85 90 58 62 41 40 69 73 68 67 65 73 71 76 80 79 92 100 99 59 49 60 72 70 80 67 68 57 59 59 60 43 45 44 42 42 44 47
89 81 85 85 84 92 85 89 79 67 46 42 46 73 68 66 59 70 73 74 74 89 74 84 92 99 88 45 68 76 80 95 78 84 69 57 69 48 45 44 47 47 41 40 42
79 88 86 86 86 93 85 91 70 54 48 44 68 74 57 63 76 71 74 83 84 92 76 89 90 94 63 64 80 81 94 97 83 55 57 57 52 38 34 42 43 46 43 40 39
73 91 90 90 93 95 79 69 55 53 70 77 71 66 65 62 82 82 88 87 86 91 95 99 99 82 72 66 87 92 80 80 86 61 51 60 58 43 36 39 42 41 41 40 37
91 92 88 92 94 96 74 88 93 92 73 55 52 50 49 70 85 91 92 81 87 93 97 96 97 94 71 57 45 48 56 67 64 62 54 61 59 51 38 41 44 43 38 39 38
92 93 91 94 92 85 96 83 74 78 62 61 60 57 57 74 83 90 90 86 96 98 94 98 100 76 64 46 38 34 42 59 53 56 60 62 61 52 46 42 39 39 39 40 38
83 95 92 86 94 82 91 82 67 70 77 62 60 64 66 78 93 94 94 95 93 96 98 99 86 79 64 43 51 43 36 68 65 66 58 63 74 65 52 44 39 37 36 35 39
43 63 75 92 93 94 87 83 59 64 99 72 59 64 68 70 91 84 98 96 93 97 76 92 78 81 73 56 41 42 28 43 66 73 82 61 64 63 55 51 44 39 35 34 33
29 35 53 94 97 89 89 62 60 77 96 59 57 56 70 64 72 86 91 93 71 69 61 95 90 94 79 44 37 45 40 55 64 59 53 68 64 36 51 49 43 36 34 34 33
39 45 64 82 97 94 69 61 88 97 95 82 52 51 54 55 68 89 91 84 61 71 77 87 91 88 78 42 40 38 43 43 42 46 77 44 51 44 37 35 29 26 31 31 32
65 69 95 98 96 73 66 90 99 91 85 69 54 50 58 74 74 87 84 84 79 93 99 97 95 80 74 58 46 41 54 88 89 88 82 41 49 40 31 28 26 25 25 26 28
72 67 79 100 86 68 91 92 95 66 87 48 47 51 63 64 75 83 90 80 58 54 100 99 98 90 63 51 59 50 49 78 67 81 67 41 55 39 30 23 25 27 28 27 27
72 76 100 75 70 82 100 100 90 84 51 48 49 60 63 56 57 76 97 67 56 60 86 100 100 86 65 52 54 56 72 42 63 42 75 54 36 27 28 25 23 23 24 26 26
80 94 99 80 78 93 99 87 72 73 64 40 59 48 63 55 57 66 85 62 66 58 60 62 99 82 68 60 48 55 40 63 84 69 46 43 36 36 32 30 33 35 33 34 34
89 98 92 85 85 99 94 70 66 69 56 61 74 53 44 47 44 49 75 58 57 63 55 52 70 90 76 80 65 59 68 56 56 70 84 55 43 26 33 34 37 35 32 33 36
88 94 94 89 98 85 83 61 62 66 75 71 74 65 44 38 44 50 71 59 53 54 58 56 63 93 90 76 55 59 54 48 82 74 62 65 48 25 31 31 28 30 30 32 36
79 90 97 96 96 74 61 60 55 57 62 71 67 63 56 43 56 53 61 55 55 57 62 50 76 96 89 65 58 65 53 50 52 66 73 81 52 28 27 26 26 30 29 31 35
76 85 96 98 92 84 61 57 62 58 51 48 55 56 53 48 52 58 68 57 58 55 54 58 58 78 91 70 60 67 56 52 59 86 66 64 48 35 33 33 34 36 36 36 36
77 71 72 93 80 67 61 51 56 59 50 47 50 49 48 57 56 56 60 62 60 58 54 58 80 75 55 58 68 61 56 54 71 66 70 54 47 39 42 45 41 43 43 43 42
69 66 71 59 57 61 63 57 53 61 62 51 51 48 44 60 62 62 60 58 60 58 55 57 90 72 84 53 56 65 56 50 51 55 56 55 56 42 41 44 48 49 49 50 48
69 58 58 59 60 60 62 57 58 61 62 59 50 56 68 73 59 54 51 52 52 58 60 63 82 90 77 53 54 70 51 55 52 47 48 62 48 51 56 54 54 53 54 61 60

GFSSW_850_rhum_063.txt.gz
RH
85 84 81 84 78 79 98 92 52 80 82 77 58 55 52 64 72 78 76 72 83 84 92 92 82 77 86 85 79 69 88 83 61 51 48 42 43 40 44 49 52 59 72 57 58
89 86 81 79 79 78 78 95 67 61 78 75 48 56 50 57 64 76 73 96 92 74 88 87 87 81 88 87 78 81 84 73 52 52 47 43 36 38 46 51 83 90 74 80 61
90 83 88 87 85 79 74 92 96 51 69 48 40 52 53 60 82 78 81 86 79 87 87 92 79 85 88 83 75 72 87 66 65 58 43 46 44 41 50 56 52 81 79 76 69
95 84 88 92 85 84 80 66 92 67 79 58 35 44 54 68 79 76 64 61 62 78 83 89 91 88 82 88 77 93 66 58 63 59 52 52 45 53 48 50 49 60 68 78 76
94 90 84 89 86 83 84 66 84 89 50 74 38 50 64 91 78 72 71 62 66 66 75 92 94 84 85 71 78 80 88 69 62 69 64 52 54 54 51 46 47 60 66 89 80
96 96 88 86 84 88 90 74 83 92 52 63 40 58 80 86 69 74 68 63 89 76 72 84 100 85 77 68 81 86 86 89 69 87 73 66 60 50 52 46 44 48 51 78 83
97 98 89 88 85 86 89 80 88 81 66 44 40 50 80 68 67 65 66 67 66 77 82 86 98 97 94 75 72 85 89 87 95 91 89 64 67 60 48 46 46 44 46 45 61
95 90 86 88 87 86 90 77 70 70 51 41 45 68 79 68 65 61 65 73 73 77 78 88 96 91 99 68 71 86 92 94 80 84 74 60 71 55 47 46 47 46 45 45 44
64 58 89 90 93 92 87 58 65 50 49 42 53 84 70 66 66 68 70 66 87 83 86 87 90 97 88 84 91 84 99 94 81 88 84 61 66 51 43 44 45 46 44 43 45
46 77 94 90 95 92 61 52 49 46 65 74 71 72 62 62 70 78 89 74 86 89 86 85 89 94 89 89 97 94 95 87 81 86 74 80 65 50 39 40 40 43 42 42 42
41 57 89 92 94 84 59 80 82 81 64 62 54 56 51 61 81 84 78 84 82 93 95 96 96 100 84 68 65 65 72 70 74 72 92 82 65 58 47 41 42 42 42 39 41
39 44 88 90 85 51 65 83 78 80 82 60 56 58 57 65 94 87 83 83 95 96 94 96 96 82 70 66 61 62 66 64 57 59 78 70 68 60 54 49 42 41 43 43 40
36 37 58 59 80 73 80 85 77 66 87 65 59 66 63 76 88 91 90 91 94 96 95 90 79 81 77 73 64 66 65 62 67 67 68 65 77 72 56 51 47 45 41 39 40
33 29 44 39 90 90 83 82 62 60 98 74 64 64 66 84 89 87 89 91 92 99 96 96 80 80 85 75 59 61 51 57 68 86 92 70 86 75 61 63 56 48 44 39 36
26 31 36 65 82 86 83 68 57 71 96 58 66 48 58 71 81 95 93 96 95 94 85 98 90 91 86 66 64 72 46 63 77 71 77 80 79 57 66 72 61 50 44 39 35
29 50 55 84 93 92 77 61 79 92 90 84 58 57 59 63 85 89 96 93 74 73 86 95 91 91 92 68 54 50 77 80 69 66 78 74 70 58 62 58 49 43 40 36 34
60 69 82 97 92 73 73 88 98 90 77 72 64 53 70 81 79 74 84 83 88 88 99 98 97 81 74 61 51 52 63 98 96 86 78 48 54 51 34 31 31 31 28 30 32
70 68 96 96 96 72 82 92 90 67 90 56 50 54 73 70 79 80 86 84 61 84 100 99 98 91 80 61 60 52 53 81 85 93 74 47 59 44 31 29 28 26 26 26 26
69 68 82 84 73 86 95 99 94 73 60 56 55 70 69 61 70 88 78 79 72 65 90 100 100 82 77 67 55 54 75 46 67 54 81 59 43 34 30 32 31 33 32 32 29
73 82 96 79 77 84 97 88 82 72 71 52 69 57 70 62 65 72 82 65 73 66 62 78 98 88 70 60 49 54 43 67 85 63 58 63 44 46 39 46 43 41 36 34 32
81 93 86 86 79 94 99 79 71 68 69 73 72 62 54 56 58 69 87 62 61 66 63 60 78 95 69 85 75 66 67 60 64 76 84 58 48 31 40 42 45 38 35 36 35
85 97 95 91 97 92 92 73 57 68 73 73 76 73 68 43 58 73 82 68 55 58 61 64 76 92 86 80 69 65 60 54 82 70 73 74 53 32 39 40 36 34 33 37 38
90 96 98 99 97 80 66 67 62 64 68 73 70 65 60 62 64 66 69 58 55 63 70 60 78 96 95 74 62 71 59 53 61 70 78 73 53 34 32 31 31 34 38 38 40
74 98 98 99 93 92 75 74 72 58 59 55 63 64 54 59 54 64 73 60 57 60 57 57 70 74 84 74 73 76 62 58 67 86 66 69 47 39 47 49 48 48 48 48 48
71 84 75 95 96 87 69 66 72 70 56 52 56 67 54 63 59 69 61 68 62 57 56 66 79 72 62 64 64 62 60 63 71 65 72 57 54 54 50 56 54 53 52 53 52
80 78 73 79 68 78 69 64 67 72 65 59 58 61 61 74 74 66 58 55 60 63 60 66 88 70 85 56 59 66 61 58 61 62 62 58 58 50 56 54 58 61 62 63 62
76 65 64 76 79 78 77 60 70 70 63 62 59 75 82 73 59 54 51 53 57 68 71 72 82 92 86 58 57 69 61 56 55 51 57 70 64 62 64 60 59 62 52 55 57

GFSSW_850_rhum_066.txt.gz
RH
70 86 81 85 77 76 74 78 96 70 52 79 60 55 56 52 57 66 63 59 72 75 73 79 67 88 90 98 84 84 90 84 73 50 47 39 43 41 47 52 54 57 62 60 58
66 87 80 86 92 88 79 72 94 90 49 61 43 44 54 51 54 54 72 76 98 87 72 76 80 90 94 93 92 89 86 80 55 52 48 48 40 43 53 75 91 79 60 62 68
69 91 83 83 90 90 83 83 68 92 65 82 52 35 45 54 68 76 73 70 86 98 87 99 98 98 98 85 76 85 82 69 62 63 54 48 44 47 55 57 77 91 73 62 55
74 91 87 84 84 89 80 84 60 81 85 69 65 36 49 57 81 73 73 64 65 83 86 92 91 99 88 92 88 88 74 76 63 66 61 52 46 60 51 52 52 71 77 58 60
70 83 97 90 80 84 85 90 73 84 92 50 58 39 69 88 76 72 67 63 61 78 82 96 95 93 83 79 78 87 73 82 74 78 74 57 58 58 52 54 56 58 77 84 68
76 89 96 91 81 85 84 90 78 86 91 65 47 40 78 96 70 71 71 66 66 75 83 90 99 98 86 78 80 82 74 73 82 84 83 69 62 51 51 51 60 51 67 78 68
72 80 94 80 87 88 84 88 80 81 78 54 41 44 65 51 68 66 70 66 69 70 83 89 99 92 98 85 74 91 91 86 83 91 90 82 68 67 50 48 50 48 56 69 62
71 62 72 88 90 93 88 86 65 67 62 44 45 65 67 67 69 66 62 68 69 78 84 87 86 88 99 88 84 89 84 97 80 84 92 87 80 65 54 48 50 49 48 45 57
70 49 58 93 90 89 89 62 59 56 48 43 53 85 76 68 67 67 69 70 70 82 86 79 89 92 92 90 92 94 100 94 93 89 90 84 79 60 51 48 48 48 47 47 49
73 45 43 74 90 84 63 56 51 47 65 71 72 84 61 63 68 75 84 89 74 88 87 96 91 91 88 94 91 92 100 97 96 89 82 92 87 60 46 47 45 45 45 46 46
66 40 36 58 72 65 58 89 87 75 70 59 60 66 53 58 82 86 80 78 79 89 89 96 98 100 92 86 70 66 77 87 84 87 88 87 82 74 52 49 51 44 41 41 44
60 36 35 42 54 39 66 84 75 75 75 61 60 55 60 70 96 87 79 85 88 95 90 94 99 87 88 81 61 59 63 74 79 81 78 87 82 64 58 52 48 44 42 42 39
62 32 31 36 72 62 82 77 75 65 86 70 61 62 65 73 92 90 84 90 90 92 91 86 76 80 88 74 70 68 59 70 74 73 76 87 90 78 60 54 49 46 42 43 43
46 29 29 54 78 74 80 75 65 61 92 68 66 64 63 82 93 92 88 93 95 99 86 84 80 80 92 71 61 76 57 63 65 79 86 78 88 70 62 62 59 50 46 45 42
33 27 37 61 80 83 77 74 58 72 80 51 64 50 69 90 90 98 93 89 96 96 94 88 89 90 88 74 59 61 58 81 79 89 89 90 86 58 67 70 56 52 46 43 42
33 39 41 76 85 83 83 65 75 84 76 83 63 61 66 79 95 93 98 97 84 91 86 94 95 86 84 65 61 65 84 87 81 91 98 80 79 57 65 67 63 57 48 42 39
35 62 64 82 81 68 68 84 87 84 65 67 69 55 72 81 77 80 85 89 87 96 98 98 96 92 83 70 63 66 73 98 97 98 84 67 71 58 39 37 46 43 38 39 39
70 69 91 94 71 67 90 83 85 72 82 54 56 55 76 75 81 82 78 87 74 82 99 99 98 96 80 75 85 60 61 92 88 89 72 53 67 45 34 33 31 30 30 30 29
78 82 99 98 67 83 94 95 86 78 60 61 55 73 72 63 82 80 84 86 76 69 95 97 100 82 79 69 57 56 75 50 75 66 78 60 44 35 36 44 42 39 34 34 31
73 86 87 79 73 92 94 84 81 66 67 61 73 63 74 66 70 82 81 65 69 68 65 79 96 85 80 58 52 52 46 65 80 71 65 64 50 52 44 47 43 44 40 38 36
72 94 84 82 81 100 98 84 76 70 66 68 71 65 60 62 64 82 86 65 63 66 62 71 78 91 73 92 87 67 63 65 67 76 76 63 50 34 45 48 46 42 39 38 37
89 97 89 90 98 95 93 74 62 70 69 74 76 75 64 49 67 84 81 70 58 60 70 67 81 95 91 75 74 67 61 60 78 67 78 71 54 40 43 45 44 42 41 41 43
94 98 100 99 97 90 69 68 61 74 79 80 74 66 64 63 78 73 72 62 59 66 70 59 82 97 85 70 63 69 60 56 62 72 78 70 54 39 43 53 48 49 50 49 47
80 97 100 100 92 89 80 76 75 61 64 68 65 65 62 62 61 72 75 64 59 59 60 58 76 73 83 72 74 79 67 60 65 84 70 68 50 58 60 63 61 56 53 52 53
71 88 80 94 96 95 73 76 76 72 58 54 59 67 59 65 65 74 67 71 64 60 57 65 79 73 67 67 66 64 66 68 70 63 68 52 55 57 58 66 64 63 62 59 57
80 85 78 88 82 96 81 78 73 75 63 62 60 57 59 69 66 73 63 62 67 65 63 71 92 70 86 61 63 66 62 62 64 63 59 60 64 60 59 59 66 60 55 54 53
86 75 63 86 90 88 78 66 74 72 67 64 64 77 76 68 62 53 52 56 63 69 74 75 83 88 89 69 58 69 57 58 59 60 60 70 68 62 58 58 66 63 65 65 60

GFSSW_850_rhum_069.txt.gz
RH
78 66 82 76 83 90 90 88 73 98 86 54 60 46 47 61 52 56 53 54 65 66 84 79 74 81 79 98 95 91 96 91 80 66 49 37 46 47 52 51 55 49 50 53 59
90 74 92 82 82 82 88 87 82 69 92 73 84 57 37 47 52 48 65 87 96 86 100 77 86 84 81 90 88 88 92 74 64 49 46 45 39 50 57 68 72 66 49 57 43
99 88 91 84 77 82 87 84 83 65 82 89 77 68 35 46 63 62 71 73 70 71 81 84 81 81 77 84 82 74 89 66 59 62 65 49 44 48 64 72 68 65 61 52 53
100 98 94 95 78 72 84 84 88 65 83 92 60 63 38 61 62 70 70 64 66 78 79 88 90 97 83 89 78 79 74 64 54 74 74 55 45 59 51 46 51 68 88 54 50
100 100 97 95 86 74 86 86 88 76 98 90 64 50 49 91 71 72 69 64 63 77 85 79 99 94 87 82 77 81 75 78 71 80 84 68 58 58 54 51 53 63 86 89 81
100 100 96 86 72 80 85 84 86 79 84 86 69 45 58 98 68 70 69 66 64 69 82 75 94 99 95 86 77 70 75 76 82 88 86 79 64 55 54 69 53 64 64 66 79
100 100 84 60 71 92 86 85 85 73 75 85 80 50 58 36 57 71 71 69 63 73 85 82 93 99 94 87 70 81 87 90 87 90 88 94 74 73 54 74 73 63 72 65 63
100 100 88 49 61 92 90 89 74 62 68 65 79 64 60 57 68 69 67 65 64 73 85 85 94 88 100 93 78 85 92 96 88 83 89 89 85 68 57 65 59 61 73 59 65
100 100 88 41 50 91 80 56 60 60 54 74 62 84 73 67 68 69 70 74 72 77 83 84 94 95 95 94 91 88 100 95 92 81 90 90 84 66 56 54 55 52 48 52 66
100 100 75 37 36 78 46 52 53 48 60 73 76 90 59 62 67 71 80 83 79 80 82 91 93 88 90 93 98 93 97 90 94 93 90 89 83 67 63 56 52 51 50 46 46
100 100 67 35 44 82 41 71 76 71 75 64 62 64 52 57 66 82 85 79 82 82 92 91 99 94 85 91 90 77 96 96 88 88 86 88 89 75 76 58 55 49 49 46 45
99 100 55 33 52 66 47 80 74 78 73 62 61 60 58 67 89 87 85 85 84 88 92 96 100 82 80 82 87 78 94 98 88 88 78 87 88 81 84 74 52 47 44 41 42
100 99 54 32 49 66 54 72 70 63 86 70 64 64 70 77 82 85 81 86 88 96 92 82 84 81 82 90 95 71 91 96 94 88 84 88 88 87 84 75 55 50 48 42 38
100 96 46 34 65 71 70 73 61 65 86 57 66 67 69 89 93 90 93 96 92 93 85 81 78 83 90 100 73 72 60 66 82 78 94 84 94 73 72 68 61 54 51 49 45
100 81 40 48 79 80 66 60 56 81 62 39 61 58 75 90 94 97 93 88 95 96 89 95 89 84 97 94 62 79 69 62 68 87 89 92 95 66 66 68 63 55 48 44 44
100 66 50 65 82 89 63 55 64 82 54 76 64 63 82 89 94 93 97 96 92 87 85 91 84 84 89 71 68 68 83 90 86 97 99 88 84 61 62 64 58 51 46 42 41
98 68 61 75 84 87 62 70 84 80 62 59 65 56 72 82 81 88 85 93 97 98 93 97 93 83 92 76 71 68 71 98 97 98 97 82 84 65 48 44 50 52 46 43 41
87 70 72 87 86 72 71 79 75 62 85 53 59 58 78 74 77 78 78 93 83 86 100 95 99 96 76 79 83 72 64 86 88 95 90 68 82 48 38 40 38 37 37 35 34
88 94 92 98 87 67 80 99 78 80 65 67 59 74 75 65 77 78 82 91 83 71 98 99 98 87 78 70 67 85 77 54 72 65 77 65 46 37 44 50 47 45 38 37 34
99 99 100 98 81 86 93 90 82 62 65 58 72 66 75 69 75 80 81 64 70 69 68 79 98 82 81 61 54 54 50 67 81 74 66 64 54 56 45 51 50 53 47 44 42
91 87 100 95 84 93 96 89 78 69 65 60 70 68 64 66 71 86 82 64 65 67 65 73 78 83 74 90 88 62 64 66 69 75 78 70 53 36 43 50 56 50 47 46 45
94 98 98 92 98 94 97 77 67 77 70 75 71 74 61 54 74 85 81 76 61 63 74 69 83 87 89 72 73 73 63 61 76 71 80 70 58 51 54 50 50 54 50 50 48
98 99 100 92 99 96 72 72 66 76 80 79 75 70 66 61 80 76 76 66 62 67 70 60 85 92 76 64 64 72 62 62 67 74 78 75 63 56 62 66 61 60 58 58 57
94 97 100 100 98 85 79 82 79 63 73 72 66 65 64 64 71 74 77 72 61 63 63 59 78 71 85 68 72 78 68 62 67 82 73 67 62 61 71 72 66 65 66 63 58
83 87 83 97 99 93 78 74 80 79 61 66 67 65 60 68 71 74 70 70 65 64 63 63 82 78 73 70 68 68 69 67 73 59 66 57 60 60 69 70 71 67 56 52 51
95 87 80 77 88 92 85 81 75 73 64 64 66 61 60 66 63 73 65 68 69 67 69 73 94 72 85 64 63 68 64 65 66 62 61 63 65 59 68 64 63 60 58 56 52
97 78 72 83 96 94 87 80 73 73 68 63 64 75 74 68 63 56 54 63 65 67 77 75 84 87 89 71 58 71 57 61 64 76 67 77 65 68 61 57 68 66 65 64 60

GFSSW_850_rhum_072.txt.gz
RH
100 100 94 83 84 82 84 86 85 80 74 98 84 83 71 39 50 50 44 44 56 69 78 78 76 64 65 95 89 85 94 81 78 77 65 41 44 44 46 50 46 51 40 48 54
100 100 99 94 82 76 80 86 86 80 74 93 95 80 85 39 51 38 43 75 94 75 76 86 95 81 97 90 90 91 87 72 56 62 63 42 45 46 65 58 66 60 54 54 70
99 100 100 99 87 78 69 82 84 82 73 80 93 71 75 40 60 54 70 78 76 62 66 82 83 92 94 90 89 82 86 59 67 57 54 46 58 46 69 68 62 57 63 58 57
99 100 100 100 92 78 70 80 86 89 71 80 88 84 59 56 53 72 69 75 74 62 74 85 85 92 86 89 78 91 69 65 56 55 68 66 54 58 61 49 53 56 52 50 46
98 100 100 99 91 70 64 74 82 86 75 87 90 87 54 88 67 62 72 68 66 66 72 81 84 93 84 82 73 93 75 67 65 60 66 72 74 74 57 42 47 62 58 49 50
99 100 100 100 94 70 69 79 86 91 77 81 88 86 55 92 53 69 71 67 67 67 76 81 78 97 89 82 78 80 74 65 68 62 72 81 78 76 63 60 62 70 64 58 49
100 100 100 100 93 62 82 89 86 89 61 68 88 76 61 35 38 67 71 71 67 65 76 79 85 97 96 88 83 62 85 84 72 70 73 87 80 84 67 64 55 59 64 62 70
92 100 100 100 81 59 79 88 91 84 59 75 75 68 50 38 65 68 69 67 66 68 71 86 88 95 100 90 90 90 81 95 70 82 98 80 84 78 72 79 74 55 62 57 62
95 100 100 100 69 53 70 80 64 83 69 68 74 66 68 65 59 64 68 67 73 78 76 85 83 97 90 92 96 88 95 100 91 83 90 85 92 80 69 69 65 67 72 61 61
98 100 100 100 66 58 60 67 57 76 59 65 70 91 57 54 59 67 76 81 86 77 83 86 93 95 92 97 96 95 98 95 98 89 86 92 87 72 75 67 65 60 58 74 63
97 100 100 99 58 64 63 75 66 78 72 51 60 60 55 52 63 80 88 82 81 82 87 87 100 100 96 100 76 73 79 100 95 87 86 91 85 78 77 77 61 60 55 56 58
90 100 100 96 63 60 50 88 74 73 70 54 59 66 62 63 78 82 83 87 83 91 88 98 100 85 86 88 78 74 83 93 87 87 82 84 89 82 83 88 80 66 53 49 49
78 100 100 91 74 62 44 72 67 62 77 70 65 65 67 76 84 83 83 86 89 94 98 100 93 78 79 86 86 84 89 96 99 88 85 87 93 92 79 81 71 64 54 48 44
93 100 100 79 78 70 61 76 66 66 86 55 65 67 72 82 91 90 96 90 92 94 95 91 81 77 88 97 87 89 74 78 94 83 97 78 98 89 90 80 75 72 56 48 44
62 100 100 81 71 79 66 70 57 76 63 32 58 63 74 87 94 96 97 99 91 88 95 97 89 89 94 96 88 92 69 74 78 87 89 94 97 74 77 88 72 68 55 48 45
69 100 100 75 86 76 70 64 70 79 55 67 66 68 82 87 94 95 94 94 92 89 88 88 81 88 89 89 87 75 84 86 92 92 95 90 82 61 60 58 61 59 51 47 47
99 100 99 83 82 84 68 69 83 80 59 62 68 62 75 83 86 91 90 97 99 97 99 95 93 88 89 90 72 78 86 98 98 98 97 80 83 78 47 47 48 52 50 47 45
99 100 98 89 88 81 74 76 85 60 78 51 61 62 77 73 90 89 94 95 81 85 99 92 96 92 82 81 90 75 67 86 90 96 97 90 83 56 44 49 48 48 48 42 38
100 100 99 100 94 81 85 94 78 77 67 71 65 73 73 67 77 92 86 98 81 74 98 99 98 89 88 71 64 75 79 58 74 68 93 78 48 38 50 55 54 55 49 52 49
99 100 98 99 97 84 91 84 81 64 63 58 67 65 75 72 77 78 86 68 76 75 72 89 97 91 76 61 58 60 52 67 81 76 79 69 56 57 52 60 59 62 59 54 51
100 100 100 98 93 94 98 90 80 66 63 60 72 70 69 68 77 86 84 66 67 68 67 71 78 95 76 87 80 62 66 66 70 78 76 74 53 46 45 52 59 65 61 58 53
98 100 100 94 97 89 94 85 71 79 71 77 68 71 63 61 81 88 86 78 66 66 75 71 81 96 90 74 74 77 65 58 79 69 78 69 61 64 52 55 62 67 65 64 61
100 100 100 100 98 96 86 75 70 74 77 76 74 69 69 66 85 79 80 68 63 67 67 62 84 91 76 65 63 72 65 67 67 74 77 76 66 63 70 71 69 70 70 63 57
98 99 99 99 98 86 86 83 81 68 79 72 66 66 65 68 72 83 81 72 63 69 67 60 79 69 80 64 71 77 69 62 64 79 75 64 68 70 71 74 76 74 63 57 53
99 99 96 98 96 95 76 78 84 83 67 71 70 65 61 73 67 80 77 71 63 66 66 65 85 81 75 73 70 71 72 67 73 60 63 63 67 73 77 76 78 62 57 54 51
97 98 83 70 88 90 81 77 79 77 72 70 70 68 59 67 60 65 71 70 74 67 73 74 94 72 83 67 64 71 67 72 65 63 62 63 62 62 71 72 64 62 60 58 58
97 92 78 78 95 91 84 76 75 71 72 64 67 72 69 67 62 66 64 70 71 69 78 76 83 86 86 72 59 70 58 64 71 75 67 75 62 78 65 71 65 63 64 65 63

GFSSW_850_rhum_075.txt.gz
RH
97 99 99 100 100 95 84 63 81 85 88 76 92 95 81 86 60 32 32 36 42 71 94 99 85 87 73 74 88 83 87 79 65 61 62 52 53 46 45 53 54 59 46 39 44
88 98 100 100 99 99 91 58 80 86 82 80 88 94 83 78 53 28 30 46 82 84 64 73 91 93 94 89 78 88 88 71 46 47 58 48 50 48 52 56 61 60 56 48 36
88 93 99 100 100 100 96 73 62 84 90 69 90 93 89 71 37 54 68 74 90 61 58 63 74 86 99 88 85 83 86 58 55 52 54 53 58 53 62 62 57 58 61 71 65
92 90 93 100 100 100 100 68 69 85 92 70 86 90 87 53 45 71 68 90 79 62 60 77 84 92 90 86 78 82 68 67 60 54 60 57 52 56 60 57 48 45 54 74 73
100 95 89 98 100 99 93 50 66 76 82 76 85 95 84 57 41 42 56 85 68 67 64 72 85 88 85 75 78 84 69 70 68 62 64 60 66 52 53 44 48 59 55 62 71
93 100 82 98 100 99 90 66 82 82 86 82 82 95 82 68 36 51 67 71 70 70 70 75 77 81 93 87 80 71 72 76 75 63 67 60 64 68 53 45 49 68 56 64 62
81 88 92 95 100 99 74 79 89 84 83 82 79 98 86 41 34 47 67 71 70 68 68 66 76 93 90 94 79 73 80 74 73 70 67 64 73 88 60 53 55 66 64 63 75
52 88 93 100 100 99 82 61 88 83 66 74 94 87 53 33 43 60 68 70 69 66 71 72 79 96 87 95 93 85 77 90 70 72 60 68 78 75 74 67 75 63 65 64 70
66 79 98 100 100 100 77 76 70 64 74 80 96 87 47 56 61 56 61 67 66 70 80 81 92 90 76 99 100 87 96 92 90 65 78 84 73 82 76 83 86 72 78 55 66
52 41 91 100 100 98 67 69 73 68 79 98 91 96 53 51 49 59 72 81 80 83 81 90 90 90 96 99 97 97 99 98 86 80 79 93 86 80 83 82 81 66 78 71 78
39 32 97 99 100 88 60 65 73 83 78 75 52 57 54 55 61 71 86 85 86 86 92 87 99 98 99 97 99 99 93 96 83 73 78 94 89 80 88 84 72 72 63 82 75
55 40 91 100 100 91 69 72 72 75 72 57 61 69 63 64 73 79 86 85 84 92 88 92 100 83 80 90 98 95 91 94 83 88 83 82 92 85 79 85 85 79 66 61 68
70 64 87 100 100 96 71 56 80 72 75 71 66 68 66 70 83 84 85 87 88 91 100 100 93 78 85 100 98 79 80 94 99 94 86 90 94 92 81 82 80 71 67 58 54
77 72 73 100 100 87 60 62 85 63 85 59 71 69 73 78 91 91 91 86 90 95 97 98 80 78 89 94 85 88 72 77 85 97 96 88 99 86 77 75 76 75 70 64 54
80 74 58 100 92 76 77 73 78 80 82 35 62 69 74 86 92 96 96 99 92 89 97 96 90 85 93 89 85 92 70 77 77 85 92 99 90 75 85 85 78 76 69 57 55
84 89 67 100 97 80 84 83 68 82 75 64 72 77 85 85 92 91 95 96 89 94 89 87 81 89 90 84 85 77 78 84 88 88 91 99 77 80 58 63 80 81 65 59 56
73 95 94 100 92 97 97 74 89 92 60 74 75 74 81 82 84 89 97 94 90 92 98 86 88 91 94 95 81 75 84 99 96 94 96 95 77 76 47 50 64 76 63 55 55
96 92 95 99 94 97 86 83 95 62 76 54 64 68 76 76 96 94 96 99 86 92 94 92 91 95 91 89 94 85 80 84 91 92 98 89 76 84 53 56 59 63 68 60 60
100 99 99 98 98 98 79 98 83 73 65 72 70 72 75 71 95 98 100 86 77 76 90 99 100 86 89 74 67 71 77 57 90 94 93 73 53 46 54 57 61 65 69 68 59
97 100 100 99 100 99 91 88 78 60 65 60 71 65 79 74 82 87 89 72 93 76 74 92 97 87 76 65 57 58 53 65 80 90 94 68 59 64 62 64 65 68 72 66 58
98 98 100 100 100 93 98 92 80 62 63 60 72 77 70 72 79 85 82 72 70 70 69 72 78 90 75 93 88 66 65 68 69 73 73 73 56 50 51 59 72 75 74 69 61
98 99 100 100 99 88 98 84 74 79 72 74 70 69 62 66 86 90 86 81 72 68 76 72 80 94 91 74 75 80 68 57 71 67 69 68 62 63 55 62 73 81 76 64 58
99 100 100 100 100 98 84 79 73 75 73 70 77 68 66 73 85 82 82 70 67 71 68 62 83 91 79 64 62 74 68 68 67 69 72 68 65 68 74 77 76 78 64 58 53
98 99 100 100 97 87 96 80 82 70 78 67 74 67 65 73 73 85 82 72 66 73 69 60 82 70 82 68 71 74 71 65 62 70 66 60 70 75 78 79 84 72 61 56 53
99 100 96 99 96 94 88 76 84 82 76 68 71 64 64 73 67 85 78 70 62 68 68 67 86 81 75 74 73 73 72 67 70 59 58 57 67 67 73 78 79 63 60 58 58
99 99 97 76 84 96 85 76 82 76 75 74 79 68 60 65 60 70 71 70 78 69 75 74 92 73 83 65 65 74 72 70 65 63 61 64 59 62 73 75 68 64 64 67 67
100 98 85 86 91 95 82 75 75 75 75 69 71 72 74 70 61 67 65 73 76 72 76 76 82 86 86 71 58 71 64 71 72 74 65 62 62 73 73 72 67 69 70 72 70

GFSSW_850_rhum_078.txt.gz
RH
94 90 90 89 99 99 100 100 85 68 80 82 72 66 87 82 77 69 37 33 33 54 83 89 92 99 86 72 78 72 76 61 44 37 33 28 36 39 41 37 34 39 44 42 53
100 91 95 96 93 100 99 98 90 54 74 81 67 80 85 80 76 67 41 29 62 86 75 83 80 94 88 77 62 62 63 50 32 28 29 27 38 40 41 40 38 44 47 56 50
98 98 88 84 89 100 98 99 95 53 84 85 72 90 82 74 71 45 65 71 84 64 53 55 71 82 71 78 68 49 63 38 37 37 36 31 36 38 42 42 36 38 45 81 80
80 95 99 96 89 100 99 99 91 50 82 88 72 91 87 79 46 66 76 91 84 61 58 78 83 70 60 59 61 75 50 40 40 42 46 41 37 39 45 35 36 41 57 71 98
94 79 89 88 89 100 99 99 87 55 82 83 76 87 90 82 64 53 60 90 75 67 73 70 71 62 58 45 52 60 52 49 42 49 53 50 44 41 42 43 38 42 56 71 94
100 92 96 79 75 99 100 100 67 69 84 91 75 86 97 78 46 34 54 70 77 73 80 77 66 69 67 61 60 48 54 53 52 52 56 49 48 49 45 40 46 43 50 70 87
95 98 99 85 77 99 98 95 70 54 81 83 71 90 98 77 43 40 55 67 72 78 76 76 76 76 66 64 62 78 79 61 53 51 57 46 58 57 52 52 44 47 51 66 88
99 98 99 100 100 99 100 93 55 73 76 66 75 99 84 42 38 41 55 64 69 70 73 77 84 81 77 71 73 78 79 95 51 49 47 59 58 38 46 57 49 46 54 63 83
96 92 57 98 100 100 100 82 69 71 61 77 87 95 63 45 51 58 59 74 76 75 70 88 90 81 72 86 97 93 97 87 57 42 45 58 67 40 52 61 50 45 55 63 90
87 94 39 91 100 100 99 81 70 70 76 84 93 80 50 52 49 51 63 78 87 87 82 85 87 77 75 96 92 100 83 68 61 46 49 52 57 65 65 57 54 55 66 60 74
80 75 55 98 97 100 95 88 89 88 95 69 69 63 50 52 61 68 82 88 90 81 68 73 86 86 63 93 95 100 98 90 58 69 54 87 68 76 75 69 62 68 74 76 75
75 82 64 95 100 100 86 77 65 69 66 58 76 58 61 63 70 83 82 82 73 67 72 77 85 57 74 86 96 100 97 97 91 72 57 90 86 77 73 72 68 70 74 93 81
82 75 73 86 100 100 90 78 71 77 62 73 63 68 70 69 73 75 90 82 70 69 76 96 67 72 93 99 100 98 86 82 97 84 76 79 93 89 76 77 83 81 78 86 90
78 82 80 80 100 99 96 79 75 68 84 65 73 69 77 84 82 88 90 86 76 76 75 90 77 83 94 100 88 89 68 92 96 99 98 83 92 99 89 84 84 74 76 85 82
80 80 78 79 99 99 81 67 77 66 85 56 69 71 80 79 85 90 92 91 95 86 98 98 87 81 83 98 79 78 80 82 87 69 82 96 96 94 86 90 86 78 85 79 74
81 82 87 92 94 98 77 81 68 82 83 70 68 73 87 84 81 88 91 94 93 96 96 83 72 78 79 76 81 80 66 73 69 67 91 100 94 93 81 56 70 70 82 80 78
96 97 90 99 97 92 97 87 90 87 58 77 73 70 71 73 79 84 92 80 95 98 99 73 94 85 87 93 89 85 66 93 86 91 94 97 79 93 50 48 51 76 75 81 76
99 100 94 100 97 99 99 84 92 66 72 54 57 63 70 73 81 79 79 80 74 76 79 93 99 98 84 87 85 70 68 64 69 87 96 58 88 88 51 59 85 86 85 76 77
100 98 96 99 100 98 97 95 82 75 51 59 62 65 68 71 77 92 94 75 74 77 92 99 100 92 82 68 64 64 67 49 71 78 62 75 59 50 50 57 72 86 88 82 72
90 99 100 88 100 99 99 89 72 52 55 52 59 55 63 68 66 77 86 84 92 78 70 72 93 70 66 62 53 50 43 59 66 73 78 71 56 60 56 60 58 62 73 80 75
95 98 100 100 100 100 98 88 72 58 60 54 57 58 56 63 63 68 95 92 72 63 61 63 63 70 61 74 75 55 51 51 48 58 52 59 61 41 51 52 57 62 66 67 68
98 99 100 100 99 98 86 74 68 66 71 61 56 52 52 60 69 69 77 79 63 62 64 58 59 81 71 58 60 66 54 43 45 55 54 42 51 46 43 52 57 63 63 64 62
99 100 100 97 98 94 78 73 64 63 62 60 63 56 51 63 70 69 72 63 65 62 59 52 63 80 67 54 54 56 52 48 45 47 54 46 52 47 48 55 62 59 57 58 60
98 100 100 100 98 62 94 68 65 71 64 63 64 54 54 60 62 73 68 62 63 65 68 51 58 65 59 68 63 58 54 50 46 53 40 43 57 57 57 58 64 58 56 57 61
98 100 99 100 94 83 87 63 64 65 69 61 56 51 51 61 63 69 64 57 56 64 56 51 78 73 58 59 61 61 61 54 60 47 44 44 43 49 52 53 59 57 58 60 64
98 98 98 76 85 97 79 60 63 71 67 60 57 55 48 53 52 62 57 56 64 52 57 54 79 65 75 49 54 62 60 57 53 52 48 43 50 40 52 62 59 56 61 64 66
98 91 80 80 76 93 79 64 65 62 67 66 52 53 59 63 60 63 60 63 60 58 57 58 67 75 75 53 49 50 56 59 60 57 49 45 53 53 59 58 58 60 64 67 72

GFSSW_850_rhum_081.txt.gz
RH
99 98 98 96 92 93 99 99 99 98 81 58 69 59 82 85 74 88 72 50 51 44 68 91 84 74 73 56 50 54 72 58 38 31 25 18 18 20 22 26 27 28 26 30 44
100 100 96 99 97 89 90 100 100 99 85 62 75 56 77 79 80 67 58 47 34 75 85 73 64 74 70 59 51 50 55 47 29 23 23 20 19 19 23 26 30 31 28 32 58
99 98 98 99 97 90 93 100 100 100 88 71 80 66 77 72 69 38 55 41 79 70 72 66 69 62 53 58 61 45 49 30 27 26 25 25 23 21 24 30 28 31 31 37 65
97 99 100 100 98 99 99 99 100 99 80 58 84 68 80 80 44 62 64 94 90 78 67 59 56 55 46 42 51 57 43 40 32 29 30 33 33 26 25 26 27 29 32 47 60
95 97 100 98 100 85 95 100 100 100 66 46 76 66 82 75 58 55 56 87 84 77 60 53 49 46 45 34 33 39 38 37 38 40 33 34 36 33 30 30 29 34 38 42 54
94 96 99 97 99 94 96 99 98 92 54 74 78 63 86 66 55 54 65 70 72 76 63 62 52 50 49 45 41 36 35 36 38 38 42 36 35 36 35 30 31 35 37 44 44
90 95 98 92 100 99 99 100 100 90 60 90 81 86 89 62 56 58 44 65 65 67 63 60 59 57 50 49 49 47 56 52 44 45 45 44 48 41 34 34 35 33 38 39 45
91 95 98 55 96 99 98 100 98 75 75 76 68 95 73 65 54 54 50 54 62 68 71 68 64 61 60 60 56 57 58 82 45 44 46 48 66 32 31 35 38 39 37 40 41
86 80 70 55 83 100 100 98 99 82 71 72 96 95 57 49 49 54 64 63 60 65 68 68 66 70 63 77 80 64 82 64 54 41 45 52 54 33 28 31 37 40 41 40 46
71 76 72 66 82 100 100 96 86 68 87 100 96 84 56 47 60 60 68 72 74 72 73 80 80 68 65 71 84 73 96 76 59 46 47 51 46 39 53 50 34 43 40 44 59
74 90 78 58 98 100 98 98 90 98 99 71 63 47 43 57 56 70 78 83 81 73 72 63 84 88 59 58 55 79 99 96 84 44 44 48 44 36 65 63 57 40 39 47 65
73 71 79 64 81 100 100 91 81 80 68 76 64 59 64 65 61 71 83 75 62 66 52 64 82 48 53 54 68 78 98 95 77 54 53 41 53 37 58 65 68 62 49 59 94
72 65 74 73 72 97 97 86 72 78 57 72 70 62 60 67 59 62 80 64 61 55 51 65 53 52 88 98 97 96 85 85 100 73 59 62 91 75 55 59 65 72 74 90 90
63 62 70 76 90 100 98 86 76 75 86 67 67 63 74 69 68 71 84 85 66 66 63 68 53 83 94 100 98 95 70 91 95 70 85 60 84 89 72 69 81 76 84 96 100
73 66 69 77 98 98 100 93 98 90 96 56 63 74 76 64 81 82 83 88 77 74 98 92 83 87 95 98 91 98 70 73 86 98 88 79 71 89 90 86 93 89 96 97 94
86 82 76 80 89 86 94 86 91 94 89 68 64 70 72 72 73 83 91 87 85 92 94 93 65 73 79 68 70 76 83 86 87 96 95 98 76 97 100 98 81 87 93 84 86
98 98 92 97 91 98 96 100 99 95 53 76 68 65 68 70 81 84 77 86 88 100 96 64 83 81 83 95 81 86 79 95 99 98 98 99 67 98 94 67 79 90 94 93 88
100 97 96 90 84 98 98 100 99 70 59 50 55 61 84 67 78 74 68 79 67 67 79 98 98 97 83 85 70 88 63 85 94 92 92 69 92 95 89 86 97 90 95 93 90
86 100 99 96 91 100 100 100 97 69 52 56 57 66 75 61 72 81 83 68 70 74 98 100 100 88 73 60 61 61 64 45 56 45 61 81 91 74 75 85 85 87 88 89 91
98 100 100 98 97 100 99 99 81 48 43 46 57 54 57 61 71 73 62 73 82 71 70 91 100 82 58 55 51 55 41 62 59 74 75 64 64 72 75 84 82 88 91 90 78
86 96 99 93 98 99 100 98 59 52 44 46 46 48 46 53 49 57 93 83 67 56 56 58 70 63 53 63 65 54 45 39 41 51 47 58 63 42 50 54 62 67 78 81 79
90 98 100 100 98 98 100 71 49 54 54 49 44 41 43 48 55 57 77 78 56 54 55 50 54 70 61 48 50 54 41 36 47 51 43 43 58 38 43 46 52 55 57 59 59
97 100 100 97 99 99 71 58 49 48 52 51 50 46 43 51 62 55 59 53 55 54 54 44 52 76 60 50 43 46 40 36 36 42 45 46 54 36 44 49 51 51 51 54 56
97 100 99 98 98 64 57 46 55 60 55 53 51 43 44 51 47 58 58 54 54 54 61 50 50 62 65 70 56 52 43 35 43 53 32 42 52 45 48 52 50 49 49 52 55
97 97 98 99 66 70 54 42 50 58 54 48 45 41 42 54 50 55 48 48 47 53 48 44 68 67 48 49 52 50 48 41 51 37 41 39 42 45 45 47 49 48 50 51 55
88 80 77 72 84 68 58 44 51 57 56 48 46 40 37 49 43 53 41 42 50 38 46 44 72 60 70 43 47 55 49 45 45 40 37 37 43 35 40 44 50 48 51 53 58
81 76 67 65 70 59 47 45 52 50 57 48 41 45 58 56 48 47 46 45 46 47 46 49 59 74 68 45 45 47 51 52 53 48 45 41 46 37 48 50 49 48 53 55 60

GFSSW_850_rhum_084.txt.gz
RH
98 98 97 96 97 95 96 95 98 100 100 92 66 54 41 54 66 72 90 62 57 43 33 70 80 69 68 59 48 50 71 72 55 42 34 23 22 19 17 19 19 20 22 24 40
100 99 98 99 94 98 98 96 99 100 100 97 69 59 53 65 62 82 63 60 48 28 55 77 65 64 68 58 49 53 68 61 39 33 31 24 22 21 19 19 20 23 25 27 45
98 97 99 98 100 98 98 100 100 100 100 98 70 56 62 66 83 68 50 40 35 59 75 66 64 60 58 54 55 49 64 43 35 30 30 29 26 24 28 27 21 25 26 28 32
98 92 93 94 98 98 100 100 99 97 100 99 61 58 61 80 53 74 46 62 71 78 63 55 53 55 50 48 49 62 49 46 42 37 35 32 29 31 31 32 26 23 24 28 42
94 92 89 98 99 94 98 96 100 99 100 94 54 65 70 82 58 58 46 79 62 71 58 50 44 42 48 38 35 41 40 34 34 35 36 37 38 33 34 32 30 28 26 32 46
95 95 91 97 94 100 98 96 99 99 100 90 66 70 81 61 53 59 56 78 71 76 62 57 51 48 48 46 48 42 40 40 38 37 39 39 38 38 31 34 33 31 29 31 36
90 94 90 94 93 86 100 99 100 97 99 82 74 64 84 62 51 57 60 60 66 66 62 56 54 54 51 57 47 48 58 52 47 42 45 40 49 50 37 32 33 34 31 32 36
80 87 70 72 64 63 92 100 98 100 94 92 80 90 73 66 67 56 54 51 55 62 63 63 65 63 59 55 58 66 67 80 50 47 44 46 66 44 44 39 33 33 34 35 33
73 88 75 72 74 72 92 100 100 94 75 68 86 90 65 63 49 47 46 52 60 60 64 63 62 60 62 78 89 74 92 76 61 41 44 49 60 45 39 35 32 32 34 36 38
73 64 76 71 62 98 99 100 98 85 87 98 92 87 69 47 56 59 60 61 64 66 65 72 76 82 76 89 90 81 82 87 90 58 60 55 57 42 40 44 47 30 33 39 41
70 62 64 64 69 80 100 97 93 96 99 84 72 49 47 54 56 65 69 80 76 67 77 71 95 95 73 74 71 71 76 80 71 57 78 74 61 49 48 55 69 62 53 39 45
73 68 62 57 74 72 99 96 93 99 93 85 64 52 54 59 63 67 77 69 65 72 62 76 98 58 52 79 81 88 83 87 72 66 75 83 61 47 47 68 62 70 60 58 68
73 68 64 62 67 78 84 97 98 98 94 78 70 58 57 63 54 69 74 62 60 67 66 89 59 70 86 92 98 91 79 91 96 90 76 66 64 57 58 54 57 62 73 61 67
76 68 68 66 73 95 100 100 94 90 100 79 67 61 66 64 63 70 74 76 69 64 79 85 61 60 73 99 98 99 72 76 100 95 93 78 98 68 75 71 61 72 78 89 91
74 67 66 74 97 91 98 99 97 86 98 68 62 66 66 66 77 82 78 79 78 74 93 80 84 87 98 94 92 96 73 92 90 93 86 86 97 92 84 83 84 91 96 100 100
96 91 75 80 76 88 74 100 96 99 97 73 68 67 70 64 68 86 85 83 83 85 94 93 71 79 72 66 72 73 81 90 95 99 87 83 87 99 97 98 90 92 99 99 100
99 98 90 88 94 97 80 100 99 99 63 74 68 65 60 72 79 74 75 84 96 100 95 77 86 78 80 93 75 84 96 99 98 98 98 95 76 95 92 91 86 92 100 100 100
100 97 97 93 98 95 98 100 98 69 66 49 59 63 70 64 75 79 79 91 72 72 100 100 98 96 85 91 96 85 97 99 97 97 98 77 95 99 95 95 94 100 99 100 98
94 100 99 92 93 99 94 98 99 77 51 56 60 72 74 61 68 77 77 90 69 84 100 100 100 84 83 72 60 70 93 73 100 66 92 99 100 97 95 93 93 98 100 100 99
99 98 99 88 85 99 97 100 77 52 44 49 61 52 64 60 74 84 83 72 74 77 78 90 100 78 62 70 57 58 46 73 88 97 95 86 92 100 100 98 92 91 96 96 92
83 94 99 89 98 98 100 100 68 52 48 50 45 54 52 60 91 76 87 75 67 79 74 66 85 63 58 63 67 59 57 48 49 62 75 81 96 58 90 87 93 92 90 71 78
85 97 99 97 96 98 100 84 47 50 48 48 43 50 57 51 72 69 78 80 54 54 56 50 65 80 59 48 47 59 45 41 77 61 64 72 77 50 56 56 57 62 66 59 58
96 100 100 97 100 100 88 54 55 48 53 48 49 46 43 54 83 62 60 50 52 53 61 54 62 91 68 59 50 47 41 45 43 64 58 79 80 51 56 56 52 53 54 56 57
88 99 95 98 92 93 57 53 61 55 52 46 47 42 45 51 48 56 62 52 51 52 53 60 59 72 89 74 61 60 49 45 59 79 62 64 69 66 63 60 53 50 52 55 58
83 91 92 99 74 57 43 49 59 57 46 42 43 41 43 51 54 55 50 56 46 47 52 52 72 70 49 50 53 54 53 52 56 43 62 59 60 59 61 62 52 49 51 54 58
82 86 82 67 74 50 48 54 55 57 54 46 49 48 48 56 51 53 43 52 56 41 46 47 75 65 62 46 51 59 56 55 56 51 44 49 55 45 45 49 49 49 51 54 59
68 65 59 65 60 47 50 52 59 51 53 55 50 58 66 59 46 42 41 41 43 50 51 54 74 89 78 48 47 64 56 58 55 55 55 61 51 47 52 55 49 48 51 54 59

GFSSW_850_rhum_087.txt.gz
RH
97 98 98 99 89 92 100 100 99 100 97 100 96 80 57 42 68 70 66 58 60 49 29 68 69 72 70 55 54 50 79 87 74 64 54 35 33 28 25 23 21 19 21 27 33
93 95 94 96 99 99 99 100 98 87 100 92 98 83 51 58 68 61 59 79 60 46 31 72 69 64 66 63 55 55 82 71 54 48 46 36 34 32 31 29 29 26 22 26 35
92 93 89 90 92 98 98 100 96 93 99 98 99 87 52 64 78 69 59 77 61 42 68 67 65 66 66 62 60 59 70 53 50 46 43 41 37 34 32 37 34 33 32 38 32
84 92 96 91 98 97 98 98 98 94 100 98 95 83 52 70 82 64 40 35 36 58 63 58 59 60 59 60 51 69 55 54 50 43 44 42 39 39 40 36 32 32 32 33 39
76 85 86 92 87 99 99 90 96 100 100 100 98 67 57 78 69 56 42 62 69 56 56 52 48 47 56 49 49 54 54 49 46 43 42 38 40 40 39 40 38 32 33 36 37
79 80 88 95 93 89 90 94 93 100 99 97 95 64 62 83 65 61 53 53 60 53 58 53 50 53 50 50 57 50 55 54 50 46 42 45 41 42 42 38 38 33 32 33 34
86 81 79 77 82 68 58 83 97 100 99 90 93 68 69 64 52 54 61 62 73 72 64 58 57 55 55 59 51 58 71 63 55 52 55 46 53 48 41 40 38 41 31 32 34
80 76 73 71 69 66 71 79 85 99 100 97 80 84 76 58 59 55 45 59 65 66 64 62 64 64 64 59 59 71 75 93 55 53 53 56 69 40 36 41 41 39 38 32 33
73 74 78 64 66 61 98 99 99 100 100 89 79 82 76 68 68 59 48 49 57 58 61 64 62 63 62 74 92 84 98 86 66 51 58 62 68 47 41 41 46 41 39 31 32
76 70 77 67 63 76 99 100 99 98 81 91 90 92 71 56 50 44 46 53 60 62 62 63 68 81 82 92 96 92 97 80 80 57 57 70 91 68 43 46 44 40 39 34 32
81 75 74 70 63 67 97 100 92 98 100 95 85 65 60 53 55 58 59 60 68 62 72 78 88 89 88 87 78 83 87 86 70 58 67 85 85 76 48 48 68 56 55 37 40
81 78 74 68 68 74 76 100 100 100 95 86 87 57 51 51 66 67 72 78 74 83 68 82 90 73 70 69 74 91 97 89 76 64 83 89 90 79 54 59 62 67 59 55 58
79 75 67 64 66 78 84 99 98 100 96 92 82 65 55 58 62 73 73 71 68 72 75 93 72 66 78 90 93 88 96 90 86 71 84 90 94 78 56 61 64 60 60 60 61
79 78 73 62 79 86 98 84 97 100 100 98 78 61 61 58 70 71 71 70 75 74 86 88 72 71 76 92 88 99 90 95 93 98 96 85 96 72 83 79 81 96 84 56 67
72 71 71 63 96 86 92 94 92 100 96 82 70 61 61 70 75 79 75 72 78 70 89 74 86 87 90 96 93 98 85 85 93 96 98 91 100 94 79 83 90 94 100 94 99
86 80 81 70 80 76 80 88 99 93 98 98 78 72 72 70 76 86 86 80 80 87 87 84 77 80 79 77 73 76 92 94 94 98 99 81 95 96 92 92 86 87 100 99 100
99 100 82 89 92 84 81 87 88 95 84 82 86 70 65 79 82 81 90 89 93 95 96 78 84 78 81 88 78 89 100 98 98 98 99 92 86 98 91 85 84 92 100 100 100
100 98 87 97 93 90 86 85 88 95 74 59 63 71 81 72 77 87 85 90 80 82 95 97 92 91 85 88 96 96 99 98 97 97 98 78 97 100 94 93 98 99 99 100 100
96 93 93 98 84 79 66 96 98 93 57 65 71 84 80 69 75 81 79 85 76 85 100 96 96 81 87 77 73 82 99 89 100 78 96 98 100 97 95 94 94 99 100 100 100
77 81 98 97 85 80 88 98 92 57 60 67 81 68 77 77 78 82 87 75 80 80 79 90 96 78 71 68 66 68 56 80 95 97 96 98 98 100 100 99 95 94 99 100 98
72 94 100 85 91 83 99 100 98 77 73 74 57 63 63 84 82 89 88 76 72 76 81 84 95 77 70 64 68 70 69 57 56 72 81 89 98 95 96 96 96 90 94 94 89
90 94 91 90 96 99 100 96 89 62 55 50 53 59 60 74 87 77 85 85 67 58 74 71 71 89 60 50 51 60 66 51 78 65 78 84 96 71 79 80 80 80 72 66 72
96 99 95 98 98 100 95 74 63 58 58 54 52 49 48 73 74 69 66 53 54 57 63 59 71 91 76 60 57 57 51 53 54 68 77 89 96 64 61 63 77 71 61 57 58
84 98 90 96 97 95 73 59 66 53 54 47 49 45 49 57 58 64 66 54 52 53 54 61 67 76 90 74 67 65 61 57 61 82 78 81 89 80 71 66 60 58 58 60 61
75 92 86 99 94 97 57 63 68 69 54 43 49 46 47 63 59 59 54 57 51 48 53 60 72 70 54 54 58 63 67 66 70 54 70 78 79 77 72 67 58 54 56 58 60
68 82 87 77 74 61 58 68 68 65 65 68 71 66 63 70 62 62 53 56 58 53 49 59 72 74 68 52 52 57 64 66 66 63 61 61 62 59 58 54 56 53 55 57 59
68 71 71 69 72 65 67 69 67 54 59 62 62 68 69 65 60 57 43 44 46 51 59 60 79 91 77 57 52 64 60 63 63 62 58 67 57 60 65 58 54 53 54 57 59

GFSSW_850_rhum_090.txt.gz
RH
86 85 91 88 94 99 99 86 100 98 98 99 91 93 79 48 38 51 44 51 51 45 32 39 45 51 51 55 55 52 83 93 78 67 61 41 42 36 34 31 31 29 32 60 45
82 92 82 84 85 90 95 90 93 100 99 98 94 98 82 48 46 53 56 64 75 50 30 69 66 68 61 62 53 58 86 78 62 54 55 46 45 42 38 37 34 32 30 33 41
84 81 88 87 96 79 94 100 99 99 100 94 98 100 83 50 52 47 47 78 91 60 42 67 71 71 71 66 62 62 76 58 50 45 48 52 49 44 42 44 38 38 37 32 33
84 83 88 82 84 96 90 99 94 98 98 99 99 100 79 55 57 58 56 89 84 50 68 63 62 60 61 63 56 71 59 56 55 51 52 52 46 45 42 40 37 39 38 37 33
80 83 88 86 88 78 85 82 91 91 100 98 100 100 68 70 50 53 41 56 58 54 59 55 54 56 60 54 51 56 54 54 51 48 46 42 45 46 43 37 38 38 33 35 34
82 86 93 77 82 90 73 89 95 85 100 99 99 86 64 74 53 65 52 56 58 44 56 54 50 54 53 51 57 58 64 62 57 54 53 53 48 44 40 36 33 33 33 32 36
83 78 79 74 83 80 82 59 50 91 96 99 97 84 64 68 68 72 56 52 62 50 58 61 60 55 60 59 58 60 69 67 54 52 58 48 60 55 40 38 37 38 41 38 32
74 76 73 73 69 60 56 72 54 88 95 100 98 74 62 59 61 56 69 63 72 71 66 65 63 62 63 60 59 68 73 94 61 55 52 58 70 50 45 44 38 39 40 43 32
90 78 70 75 63 63 92 92 83 94 100 94 92 69 79 65 59 56 49 58 65 65 62 60 60 59 62 72 91 85 99 89 75 52 58 69 80 62 53 58 48 41 35 36 41
81 83 78 77 63 78 94 93 100 100 100 98 86 78 73 66 60 60 48 51 58 60 63 63 67 82 83 90 94 91 86 88 86 63 59 67 71 57 57 68 61 45 51 51 36
84 79 78 76 68 81 93 100 97 97 100 99 85 82 71 57 65 52 48 60 62 62 75 80 90 90 81 87 77 81 94 93 77 63 70 74 74 72 66 68 57 51 51 54 37
80 78 76 71 57 73 85 100 99 99 98 98 77 62 55 52 62 59 60 64 70 82 68 86 92 73 70 78 87 91 89 86 75 63 74 81 85 72 68 67 54 58 60 60 71
81 81 77 63 60 86 86 93 99 98 98 95 76 60 57 64 68 71 69 75 80 83 84 96 72 67 77 86 91 86 85 83 97 84 76 79 80 80 65 63 74 72 72 63 52
77 80 75 57 78 94 91 93 97 99 99 100 92 70 56 60 74 73 67 74 73 80 78 88 74 76 81 91 84 96 72 90 99 98 95 83 94 91 86 83 88 89 93 94 90
78 74 66 60 78 93 96 86 92 95 96 98 89 66 57 73 81 80 75 74 80 75 81 77 83 86 93 86 84 84 85 94 89 91 97 95 99 76 82 80 89 82 94 99 90
84 79 64 62 66 78 83 98 84 91 96 100 84 73 73 72 81 87 78 79 83 88 89 80 75 85 79 76 80 74 85 96 96 97 98 87 91 96 96 92 82 81 98 100 100
91 82 65 67 81 81 96 96 86 93 97 96 93 73 73 79 86 86 95 83 91 88 83 70 76 78 78 90 82 87 100 98 98 98 98 87 89 95 90 83 83 90 100 100 100
81 76 79 78 79 86 87 82 88 96 79 66 74 71 78 78 80 86 88 94 89 85 95 98 84 89 82 87 96 96 100 98 97 97 97 92 95 96 91 91 99 99 99 100 100
75 78 70 77 79 76 79 96 97 91 62 74 89 88 88 74 72 89 86 80 76 80 94 98 90 81 86 80 86 93 100 92 100 84 94 97 100 98 96 90 92 98 100 96 100
90 82 81 82 83 77 88 95 90 72 65 71 79 71 83 83 78 92 87 71 81 76 75 89 99 80 67 81 76 84 65 95 98 98 96 96 98 100 100 100 97 94 99 99 100
68 84 84 84 80 74 98 100 99 84 64 75 67 70 67 87 82 81 82 73 74 81 82 87 87 70 67 74 67 74 81 68 63 83 95 86 98 96 99 99 99 93 100 99 98
76 94 81 85 88 100 99 97 90 84 69 76 56 57 73 87 90 84 83 86 68 68 82 82 77 93 63 52 52 60 70 58 76 65 85 84 95 87 91 91 91 89 84 88 86
86 84 82 91 95 97 87 89 79 61 58 54 52 49 58 74 78 72 69 57 60 61 63 57 74 91 70 52 56 66 60 62 61 72 83 85 86 74 83 84 84 76 69 73 69
73 94 78 83 97 92 87 63 67 54 53 49 51 48 52 63 61 67 66 56 54 54 55 60 70 76 84 74 69 72 70 66 61 84 80 88 93 81 73 76 77 67 60 60 60
72 90 85 97 86 98 93 67 71 76 57 58 61 64 50 65 61 63 55 54 52 51 54 56 68 70 57 58 56 62 71 72 76 61 66 84 86 84 76 72 64 59 61 62 61
63 74 83 80 77 66 70 74 72 69 70 67 72 70 70 74 74 68 63 58 58 53 54 64 69 74 67 51 52 51 65 69 71 67 73 67 66 64 64 60 61 59 60 62 62
67 68 76 71 67 72 76 70 69 56 64 66 67 64 68 68 65 60 59 50 49 53 57 64 80 90 69 65 61 54 55 64 64 65 60 66 58 69 69 64 58 57 57 57 60

GFSSW_850_rhum_093.txt.gz
RH
73 75 85 95 79 71 86 91 84 91 100 97 100 100 88 78 49 35 30 39 39 42 32 44 44 46 44 60 57 58 85 93 77 75 63 48 50 42 41 37 37 32 33 32 32
94 92 81 85 90 90 80 70 84 86 96 99 89 98 92 83 52 39 35 41 47 42 27 53 64 63 57 58 55 64 88 80 65 58 56 50 53 50 46 44 42 37 33 30 29
71 77 82 80 82 86 93 94 88 85 81 99 91 100 100 86 57 45 39 58 82 47 63 68 67 68 69 64 64 64 78 64 55 50 49 58 53 47 47 51 40 40 38 34 31
91 77 78 88 86 84 84 85 96 96 81 100 91 100 97 75 63 55 47 69 94 59 41 66 68 65 64 62 58 73 63 61 60 56 54 57 50 46 44 44 40 38 38 35 31
88 79 77 94 89 90 77 70 78 91 94 100 100 100 95 70 56 49 74 93 84 53 68 61 61 59 61 56 52 57 58 58 56 54 50 49 51 50 47 40 37 35 38 37 33
76 82 79 89 91 76 80 83 77 96 96 100 98 99 87 69 56 44 43 58 53 63 58 52 51 53 54 54 56 61 66 61 57 53 55 59 51 49 43 38 34 32 35 38 35
82 76 72 76 74 76 90 62 75 43 99 100 100 93 79 70 57 57 56 62 60 49 54 55 57 54 58 58 59 60 68 67 57 50 59 48 60 64 38 36 39 39 40 41 34
79 80 76 75 74 73 56 86 54 31 71 96 100 97 86 97 82 68 64 67 64 61 62 63 61 60 61 60 61 74 72 92 60 57 52 49 62 46 42 44 47 48 49 49 44
79 86 78 81 78 71 56 89 75 42 76 98 99 81 94 96 82 62 64 70 71 68 66 61 60 60 62 75 86 81 98 90 78 56 60 69 80 62 50 51 55 58 61 48 42
74 78 88 83 74 73 63 99 98 98 100 100 85 73 76 77 66 65 68 61 62 62 64 64 69 84 87 88 78 84 93 83 92 64 61 69 66 56 54 56 66 68 66 54 47
77 81 80 80 74 63 67 97 99 93 96 98 92 90 80 66 60 56 51 54 61 63 75 80 90 96 85 85 70 72 88 93 77 64 72 78 78 69 60 68 74 72 58 50 54
82 78 79 70 60 75 80 97 100 100 99 97 93 82 65 72 67 52 50 63 67 81 70 89 97 75 70 75 88 93 96 89 76 67 80 84 87 70 64 68 71 62 65 68 75
84 76 76 62 68 91 88 84 100 99 97 100 84 83 61 51 67 68 62 69 78 83 80 88 66 68 75 85 95 92 93 83 88 82 85 94 85 79 70 75 85 94 100 99 85
76 72 69 56 86 92 93 87 98 98 98 100 92 61 61 68 76 68 67 72 73 86 81 84 70 76 81 91 80 96 65 72 85 98 99 77 97 74 85 84 87 91 100 96 93
64 67 62 70 87 93 93 96 99 90 95 98 95 67 60 77 82 83 74 74 82 78 80 73 82 88 96 87 71 82 75 86 91 99 90 92 92 81 82 88 90 93 100 95 100
74 64 58 68 78 79 95 94 95 87 97 99 83 74 78 76 88 86 79 74 83 85 86 86 69 82 83 73 70 72 84 85 97 100 99 84 87 86 92 89 87 82 100 100 100
69 59 68 74 82 88 93 93 86 93 95 100 95 73 77 85 92 85 92 86 84 92 88 72 75 71 77 88 80 90 98 97 98 98 93 94 88 91 87 84 87 95 100 99 100
78 76 69 82 88 92 84 76 89 96 98 79 74 74 79 80 87 87 92 92 89 90 98 98 79 89 81 85 90 88 99 99 97 97 97 96 97 94 88 87 98 99 99 100 99
69 67 72 85 80 74 68 96 97 95 71 80 78 87 86 77 83 88 90 80 77 81 99 97 89 71 87 81 84 96 100 94 100 87 95 97 100 97 95 88 92 96 100 100 99
52 61 76 79 77 73 86 94 92 85 73 77 81 70 90 86 78 88 85 70 79 74 75 87 98 74 66 83 81 91 89 99 99 97 96 94 98 100 100 100 99 97 99 99 100
50 61 78 78 73 75 97 98 93 81 75 72 70 70 77 85 81 80 80 72 74 87 78 87 89 68 67 80 69 88 94 95 80 97 97 90 93 91 100 100 100 97 100 98 98
59 88 67 60 80 91 99 96 86 78 70 74 64 60 73 84 85 86 87 81 69 78 91 84 82 95 67 52 54 60 68 70 82 72 84 78 91 86 94 95 93 98 100 100 95
63 68 62 58 95 96 82 86 85 68 64 58 54 51 63 80 81 76 72 59 67 68 69 63 77 92 58 50 56 67 64 66 68 74 82 83 77 81 85 87 85 89 91 85 73
63 87 60 69 93 91 93 74 70 58 58 54 59 50 57 66 65 69 66 57 57 56 56 59 73 76 83 74 69 72 70 71 64 85 81 86 90 80 74 85 82 71 64 65 65
65 89 87 96 83 92 87 70 72 78 64 59 62 74 60 66 62 67 60 56 54 54 60 58 66 73 60 62 58 58 71 76 82 72 66 75 78 77 77 76 75 65 64 64 63
64 71 77 77 80 66 76 73 72 69 72 68 71 69 68 74 72 69 69 58 58 54 56 66 66 72 71 57 62 58 55 67 71 67 71 69 66 65 66 62 63 60 61 62 61
68 70 69 72 72 74 81 75 72 62 66 66 69 62 64 64 64 62 64 60 54 55 60 67 79 89 69 68 62 52 47 63 64 65 61 65 57 72 72 69 62 59 59 57 59

GFSSW_850_rhum_096.txt.gz
RH
86 64 94 95 79 91 86 85 73 77 87 98 95 100 93 87 78 54 36 34 36 43 33 35 41 45 62 65 61 62 79 84 70 82 60 51 54 46 44 43 39 35 35 33 31
95 92 77 81 88 80 89 82 82 60 73 83 100 91 100 94 80 65 42 37 42 38 26 44 52 44 47 60 57 67 78 69 66 62 58 52 55 52 49 45 46 39 31 32 30
82 90 88 87 73 81 89 89 82 81 80 79 87 100 100 99 75 59 48 44 85 34 44 54 60 57 66 58 64 66 74 65 56 54 58 61 58 50 50 56 38 41 41 37 31
73 79 78 64 75 90 91 93 81 74 78 81 87 100 93 93 74 56 49 88 87 39 69 70 68 64 67 64 60 72 66 64 64 57 56 58 53 51 49 48 42 39 39 39 35
77 77 95 71 78 88 92 89 80 86 66 94 72 100 97 87 62 47 58 95 77 55 58 63 66 60 63 58 52 58 62 60 57 53 50 51 58 56 51 44 34 38 38 38 34
72 84 84 76 87 82 96 80 84 87 84 86 91 100 97 82 77 89 67 89 62 59 62 60 54 51 56 60 58 63 65 62 52 45 46 55 48 48 41 32 33 30 29 30 33
78 79 66 67 79 70 75 82 80 48 71 61 98 100 94 86 82 80 65 64 63 62 55 52 53 48 55 57 59 60 65 67 57 51 55 49 52 67 32 36 39 40 42 43 41
79 83 80 78 78 73 67 64 67 55 38 40 100 99 92 91 88 71 78 65 56 54 47 59 57 56 58 60 60 74 70 78 49 60 54 52 67 50 47 52 50 46 47 49 55
82 68 78 92 84 82 70 62 99 60 35 60 100 92 100 93 93 80 62 64 64 66 62 60 58 63 62 73 79 78 92 88 76 57 61 62 78 64 54 50 52 54 52 56 58
78 71 79 84 83 75 61 64 100 83 84 100 99 78 98 99 91 75 68 68 66 63 63 62 69 84 86 82 68 69 93 80 85 63 62 71 70 56 52 57 60 60 61 61 56
81 77 78 76 75 62 64 74 98 96 96 100 99 88 91 90 86 72 62 61 62 61 78 82 86 89 76 79 68 77 86 92 76 64 72 80 79 71 64 66 73 68 67 67 62
84 76 69 65 61 82 74 96 100 99 98 99 93 81 79 73 63 55 56 65 67 82 77 85 90 71 70 76 83 89 96 84 75 69 71 84 85 76 70 74 80 97 98 98 89
79 69 62 58 89 82 82 93 100 100 98 100 100 97 92 82 74 62 58 67 74 80 79 81 62 69 72 83 91 84 90 88 85 74 77 91 83 69 73 80 82 95 96 94 94
68 70 57 82 91 95 98 99 99 99 96 100 97 90 74 61 78 65 67 69 75 80 82 82 71 72 83 87 80 91 66 71 81 97 97 71 95 71 79 81 82 95 99 98 93
62 57 74 83 91 90 98 98 100 93 94 99 95 80 74 79 77 78 75 71 84 82 75 73 78 87 87 78 71 75 66 75 81 95 99 93 95 79 83 84 78 85 96 100 100
55 59 67 78 77 81 87 100 92 84 97 100 86 74 79 83 89 86 78 72 83 83 84 83 71 81 73 72 70 66 82 85 87 100 98 84 91 86 91 89 86 84 99 99 100
62 66 62 73 98 98 99 88 84 93 96 100 86 76 81 89 90 86 88 85 83 84 87 74 82 71 73 91 79 89 100 95 94 99 93 92 95 83 83 86 88 93 100 99 100
70 77 71 75 90 87 79 77 88 96 94 80 74 76 90 82 88 88 92 92 84 88 95 96 84 84 81 86 91 97 98 98 96 97 94 98 98 96 88 89 97 100 99 100 99
63 51 60 69 66 66 66 93 98 93 75 79 78 83 85 79 89 88 88 80 80 81 97 95 91 68 87 76 83 96 100 94 100 100 97 94 97 97 93 94 90 95 99 100 100
49 53 64 65 69 62 84 93 96 89 74 75 78 70 89 87 78 91 82 70 80 70 75 89 99 72 76 84 82 92 88 100 100 97 96 95 96 100 100 100 100 99 99 100 100
53 59 61 55 62 70 95 96 89 78 69 73 70 72 80 82 79 83 83 72 71 83 76 86 90 72 71 87 72 96 91 96 95 99 97 95 96 97 98 98 99 98 99 99 99
56 84 55 52 78 90 97 94 82 73 71 71 61 64 74 83 75 84 86 78 69 81 93 80 88 98 67 55 56 60 67 75 87 74 85 81 91 90 94 95 98 99 98 98 97
52 58 58 48 94 98 80 84 84 70 65 61 57 56 66 79 78 81 76 59 70 79 75 74 79 93 56 49 56 67 64 68 74 78 80 87 79 79 85 87 96 98 95 87 76
52 87 54 60 88 88 91 77 69 63 65 61 65 54 61 69 69 70 67 58 63 68 59 59 75 77 80 68 70 71 66 74 70 87 78 81 82 75 75 86 81 76 71 70 67
56 86 82 94 81 81 79 74 74 82 65 60 63 75 70 64 61 65 62 59 56 54 64 61 69 76 69 72 66 62 60 74 79 71 63 70 76 72 76 83 83 70 65 66 65
58 69 74 76 73 72 83 82 79 73 72 71 70 68 70 70 71 68 72 58 58 55 58 68 69 75 83 57 63 66 59 65 69 69 71 75 68 64 66 63 67 64 63 64 63
57 62 59 76 74 78 86 78 80 72 67 66 68 65 63 64 66 64 65 66 64 60 62 68 78 89 75 61 65 55 49 61 64 68 61 67 56 73 74 72 62 58 59 59 60

GFSSW_850_rhum_099.txt.gz
RH
79 90 97 94 86 87 86 83 73 65 64 69 75 84 99 98 82 73 47 34 37 46 32 29 36 45 61 62 60 60 60 57 58 74 54 53 52 46 46 44 40 36 35 33 32
75 80 92 89 81 80 84 89 82 85 62 58 69 87 97 100 94 76 54 34 43 38 34 36 41 46 54 62 59 61 49 49 62 64 59 55 58 54 49 46 41 34 23 22 24
87 80 76 81 74 62 78 86 89 85 76 71 80 74 100 99 88 66 61 40 75 36 32 45 42 37 59 59 63 67 59 64 59 60 57 60 57 53 52 52 42 41 37 34 31
83 72 79 89 83 83 72 88 93 88 78 72 92 82 100 95 87 63 51 88 73 36 56 60 55 57 69 66 64 67 67 65 65 57 56 55 50 52 50 44 36 30 36 38 35
88 86 75 81 80 73 86 92 95 91 88 63 94 91 100 93 80 60 83 96 56 60 64 60 58 57 66 59 54 59 63 60 57 50 52 50 57 51 49 34 31 32 35 31 29
72 67 66 62 70 80 83 87 97 98 92 79 93 100 99 88 82 86 99 96 60 43 61 59 58 50 55 61 54 62 64 62 49 49 49 55 53 51 33 25 31 36 36 36 40
82 86 79 70 70 76 82 69 79 83 80 91 91 100 99 97 90 100 100 85 55 55 57 49 49 39 51 62 61 61 58 60 52 51 57 50 45 61 30 46 47 45 43 40 40
91 83 73 86 82 77 69 70 63 57 57 60 88 99 98 97 94 78 87 63 59 55 47 54 51 47 57 60 56 72 63 54 43 59 55 53 57 38 36 51 54 47 46 48 48
95 86 77 79 82 78 74 58 64 66 43 53 100 96 99 92 93 89 64 62 57 56 54 55 45 64 59 68 68 66 67 73 63 57 60 62 68 56 52 54 54 54 55 58 55
94 73 76 75 70 68 56 64 98 87 87 77 100 92 100 99 87 75 65 59 62 56 53 54 64 80 82 71 58 72 78 75 77 59 65 73 74 59 59 64 64 64 67 75 75
73 68 69 64 64 74 69 83 97 93 95 98 96 97 100 86 69 71 69 58 61 56 79 83 75 65 65 70 62 76 87 96 78 62 73 77 76 68 64 74 78 86 93 97 98
69 70 63 63 84 77 77 84 85 99 96 100 96 100 94 84 82 64 60 62 64 81 77 76 75 68 68 77 80 88 92 88 73 67 68 74 77 68 70 80 91 87 89 87 89
68 66 60 85 74 78 95 99 98 97 98 100 100 99 96 64 66 65 58 66 72 78 75 70 73 71 71 85 86 88 87 85 87 71 74 84 84 65 70 80 75 94 97 99 90
61 60 74 80 84 100 99 99 100 92 96 100 98 97 95 77 80 67 69 69 76 78 80 77 71 74 82 89 80 88 66 69 80 91 94 82 91 70 73 78 72 87 89 99 99
77 78 86 86 100 93 98 98 93 90 93 98 97 88 83 79 72 75 76 70 83 84 70 73 79 90 88 80 72 79 60 71 76 99 100 96 97 71 76 77 78 84 94 99 99
60 59 71 81 95 98 88 98 85 84 96 97 98 92 82 86 90 82 76 72 80 78 83 75 72 80 74 71 72 64 80 85 91 100 97 84 87 75 84 88 80 84 99 99 100
82 68 61 68 84 91 87 82 85 93 98 96 100 80 84 91 90 86 84 81 82 82 86 76 86 73 72 87 79 83 99 96 89 92 91 77 90 74 79 73 84 93 99 99 100
67 70 67 71 73 74 76 79 89 90 92 82 76 78 89 83 88 89 90 88 80 87 88 96 77 80 82 84 94 98 99 91 99 95 90 94 91 89 85 91 96 99 100 99 99
51 65 77 71 65 63 64 94 98 94 75 80 77 81 89 83 86 85 89 84 79 85 95 90 89 72 87 73 80 96 97 88 98 85 96 84 95 96 93 96 98 99 100 99 99
45 57 60 61 57 56 80 90 97 87 72 72 78 72 90 88 80 85 80 70 84 72 76 87 97 70 79 81 80 83 82 97 100 98 92 86 93 98 99 100 100 98 99 100 100
49 57 52 50 51 66 91 97 88 76 73 71 71 80 81 81 77 84 82 69 71 83 75 84 88 73 75 96 82 94 93 90 95 99 94 92 88 96 100 99 99 97 99 100 100
51 85 49 46 72 92 94 88 80 74 72 69 61 68 75 80 78 85 82 76 69 81 91 80 83 98 73 59 57 63 68 74 87 76 83 82 76 88 93 93 99 99 100 98 98
45 50 49 42 92 98 76 82 79 74 73 64 62 63 69 78 78 80 76 62 73 83 80 82 84 91 55 49 55 64 64 66 75 78 80 80 70 80 84 91 99 100 98 84 77
47 84 49 56 82 83 83 80 70 64 66 65 67 59 64 71 70 72 67 60 70 74 66 65 78 76 76 59 70 75 63 70 78 83 74 77 79 77 85 87 88 92 84 79 68
52 82 77 88 77 80 78 76 75 82 66 62 65 75 67 65 61 66 63 60 60 58 69 66 76 80 75 74 71 73 65 62 78 70 64 59 84 75 80 86 82 75 66 65 65
52 63 68 78 74 72 83 83 84 76 72 70 69 68 66 69 68 69 72 60 59 57 62 71 76 77 86 66 67 71 66 64 73 73 77 77 76 62 66 71 78 76 65 61 62
45 51 52 77 77 77 85 77 76 76 65 67 68 67 60 62 64 62 63 65 64 62 65 71 79 87 76 61 64 63 61 63 66 68 63 74 56 74 75 72 65 63 60 57 58

GFSSW_850_rhum_102.txt.gz
RH
77 67 71 85 87 64 79 85 81 71 62 60 73 84 98 98 99 83 57 43 34 30 26 27 35 58 56 57 58 40 20 21 27 33 32 43 37 41 43 36 31 31 32 31 30
88 76 67 80 88 79 67 73 92 82 71 64 70 69 90 95 94 85 56 35 43 39 28 47 48 58 54 58 57 31 23 22 37 40 38 41 44 39 34 27 26 25 24 25 29
86 74 80 83 78 80 83 81 84 88 85 74 83 71 88 92 99 78 63 61 78 34 29 33 40 47 46 54 53 48 30 38 47 50 51 42 37 39 34 29 26 25 21 24 31
83 78 71 66 85 81 75 60 80 88 92 79 75 86 84 99 89 69 57 94 67 32 32 49 46 40 38 41 54 39 50 49 51 55 49 40 36 32 30 27 24 25 27 30 33
78 78 81 80 74 73 70 77 89 90 94 89 69 89 95 99 76 57 86 96 47 54 56 55 44 45 41 43 48 40 49 52 50 51 46 42 38 32 29 26 28 30 32 34 36
82 83 81 80 65 66 74 80 87 86 97 90 81 94 100 89 85 79 98 85 49 61 60 55 51 47 45 44 36 47 48 42 43 40 40 40 33 42 22 29 30 37 37 36 38
85 84 81 78 70 66 79 78 71 76 96 91 90 99 99 95 93 96 99 75 50 49 52 47 42 40 44 46 55 52 38 34 39 41 41 46 35 41 28 36 42 42 42 42 42
97 96 73 66 75 66 67 73 65 60 71 86 84 99 99 100 99 96 85 55 59 55 42 43 39 44 50 54 44 42 39 31 34 44 52 48 31 25 29 43 46 46 45 45 46
100 97 69 70 76 74 76 61 50 61 60 60 84 99 99 100 94 82 54 58 53 47 46 44 33 59 53 44 50 37 51 42 39 46 47 49 45 33 41 48 50 50 49 52 56
81 79 79 79 78 73 59 90 99 73 94 71 99 96 100 97 82 70 58 53 56 52 50 49 62 50 49 40 53 56 62 53 51 44 48 55 52 39 44 51 58 63 70 73 78
83 74 77 72 70 68 72 99 92 94 94 86 96 100 100 84 69 68 62 56 56 59 59 71 48 54 52 49 50 62 63 71 55 48 61 56 55 46 44 58 62 75 79 78 77
71 65 72 76 80 72 81 89 88 94 97 100 100 99 97 80 75 68 55 55 55 64 60 57 61 53 54 58 61 65 66 67 53 52 58 54 56 47 49 63 67 70 82 88 88
57 79 82 88 99 91 84 98 86 78 97 100 100 100 98 77 62 67 64 64 54 58 51 56 65 59 58 73 68 60 59 63 78 60 54 60 48 51 52 66 61 67 83 90 99
74 76 85 95 98 100 99 97 78 80 98 100 99 98 94 72 67 68 67 68 62 60 58 58 59 62 64 82 64 71 53 58 69 74 77 61 76 50 51 54 56 62 75 86 96
66 81 96 93 98 96 98 90 83 88 85 97 97 98 94 73 63 73 73 68 65 64 64 80 71 75 73 70 59 61 52 60 67 78 88 66 95 50 52 54 55 60 75 90 98
72 67 89 94 84 91 93 86 73 88 94 99 98 84 67 73 78 78 75 71 76 64 65 60 65 64 57 56 56 54 65 74 68 80 93 62 75 53 59 65 64 69 90 99 100
68 73 68 66 73 70 70 71 91 85 96 96 98 71 69 74 74 70 69 64 69 88 94 67 70 63 64 69 67 70 85 84 83 90 79 62 75 55 65 83 87 91 97 99 98
59 74 80 75 66 66 67 79 81 87 95 88 67 65 69 68 73 73 67 67 66 65 84 90 93 66 64 65 76 84 98 93 88 74 70 67 83 68 90 93 93 100 100 99 98
53 69 72 65 59 58 75 95 90 79 69 68 63 67 74 69 64 72 68 69 67 63 83 82 97 62 68 63 76 96 99 84 98 74 89 63 77 88 89 95 98 99 100 100 99
52 60 64 52 51 54 71 94 76 73 61 61 62 58 64 64 62 64 63 62 71 62 62 72 91 61 73 71 67 71 68 91 96 90 74 60 74 89 99 100 97 98 99 99 99
47 58 52 49 48 65 94 87 67 72 70 61 60 60 60 63 61 66 65 60 62 67 64 68 65 64 65 79 66 82 76 73 74 78 75 65 60 88 98 98 98 98 100 99 99
46 87 49 45 77 88 89 75 73 66 72 60 54 58 60 64 64 66 64 62 63 69 69 68 70 84 60 51 49 54 55 52 68 70 61 61 55 71 86 89 98 97 100 99 98
43 47 46 42 83 80 68 68 68 61 62 55 58 58 61 65 65 63 63 58 69 66 63 66 71 75 54 51 52 56 54 52 58 62 67 63 47 66 79 82 94 95 98 90 82
43 89 46 55 81 65 63 65 64 65 61 61 57 54 57 58 58 61 58 60 71 67 69 65 64 62 48 44 51 57 53 55 60 69 50 48 46 64 78 77 82 83 75 72 72
46 74 67 76 59 64 61 65 64 67 59 57 52 59 58 54 52 55 54 50 64 64 65 59 72 65 54 49 54 56 53 50 67 54 54 39 52 48 59 65 65 69 72 65 62
54 68 64 72 73 60 60 67 68 65 64 55 54 57 53 52 54 52 57 49 48 50 57 60 73 63 78 51 56 60 50 48 47 50 58 51 53 38 47 57 60 66 66 60 59
48 48 52 71 62 51 62 62 64 70 63 64 60 56 51 55 60 59 60 60 56 53 52 58 63 69 61 46 44 46 38 43 44 47 45 52 36 45 53 59 61 62 66 60 56

GFSSW_850_rhum_105.txt.gz
RH
97 84 72 66 73 81 70 74 86 77 74 62 76 76 83 97 98 85 71 54 52 28 27 42 51 51 51 56 52 38 22 18 21 20 27 31 26 32 33 28 22 22 22 22 23
89 89 83 72 72 84 77 65 75 90 75 74 58 81 78 94 100 93 71 41 35 28 48 38 44 44 39 42 40 24 22 20 26 27 27 30 30 27 25 20 19 19 19 19 20
82 83 78 84 78 78 67 64 64 89 92 76 76 58 76 89 98 88 72 38 59 35 46 36 41 36 37 37 37 29 26 27 35 37 38 29 26 26 26 24 17 17 18 18 21
74 75 74 76 78 73 70 70 67 80 92 90 74 71 91 95 92 82 65 85 48 57 51 41 38 28 32 35 38 32 34 32 38 43 37 29 27 24 21 19 19 21 22 23 24
77 77 77 80 80 71 67 64 72 85 89 93 80 76 94 100 80 68 90 92 39 58 48 37 30 28 27 31 33 27 34 39 38 40 34 30 27 24 22 21 20 22 24 26 27
73 79 72 65 57 58 74 76 79 86 89 83 69 79 98 95 68 65 99 87 55 58 52 41 34 36 33 33 31 35 36 30 32 31 31 30 24 27 19 23 28 31 31 31 32
86 85 80 77 73 61 75 75 68 75 86 84 87 89 96 85 95 92 98 64 61 55 50 45 39 32 35 36 38 37 30 29 30 31 31 38 34 32 24 24 32 34 34 35 37
83 80 83 67 76 72 75 71 68 72 90 82 86 90 92 98 97 87 79 61 54 57 54 48 40 41 36 39 33 32 32 30 29 35 40 43 26 21 23 32 35 36 38 40 42
90 94 78 76 82 77 72 65 63 71 93 83 89 94 97 100 94 88 62 60 60 49 45 48 47 40 40 37 45 30 54 32 32 36 38 43 35 25 30 36 37 39 44 52 57
80 81 76 81 82 80 65 57 69 75 97 96 99 97 100 98 85 63 61 58 55 54 45 46 46 35 32 35 61 43 45 40 36 36 39 45 43 32 32 36 41 43 54 59 59
67 71 71 64 61 61 87 100 94 94 97 98 98 100 100 95 72 67 60 54 48 41 45 52 48 48 37 35 37 42 41 45 40 38 53 45 44 37 32 35 45 48 52 60 69
70 81 76 80 70 87 97 99 99 95 97 98 100 98 97 97 92 73 54 43 40 46 45 46 51 41 41 44 46 48 47 51 43 43 50 47 48 38 35 42 51 54 57 69 82
83 91 94 97 77 94 88 88 92 84 97 99 100 99 99 92 72 65 56 47 38 42 38 49 46 47 48 61 54 47 45 46 66 52 45 54 45 47 42 49 53 51 58 66 78
98 96 87 97 92 98 98 96 86 84 99 100 99 97 98 84 66 75 75 54 46 44 40 48 49 50 51 73 53 57 42 50 61 66 71 48 70 44 40 43 47 47 58 70 85
93 100 94 93 98 97 92 82 83 81 90 98 98 98 93 78 59 68 70 58 46 48 55 72 58 62 60 62 49 55 49 53 57 70 78 58 84 45 41 41 44 53 69 83 96
70 87 91 80 88 88 88 85 76 94 93 100 97 91 73 60 68 68 62 64 58 50 48 52 54 54 52 49 48 47 56 62 61 69 83 56 60 48 48 55 64 69 83 95 100
72 72 73 78 88 78 73 77 93 86 92 96 92 68 53 57 60 54 53 54 60 88 94 61 60 54 56 63 57 61 79 87 86 88 75 50 61 49 47 82 83 87 94 100 99
60 73 74 72 63 62 63 78 82 82 84 86 54 50 59 52 60 58 56 58 54 51 74 85 94 60 55 60 69 78 84 88 80 73 68 56 80 59 71 85 88 98 99 99 98
60 65 74 60 54 57 76 93 87 72 53 57 51 55 62 56 53 58 54 55 54 52 70 78 96 54 56 53 60 85 92 71 98 62 84 62 59 67 76 80 80 92 99 99 99
57 68 60 58 59 64 64 80 68 52 49 48 51 45 53 54 53 53 53 53 59 52 52 58 81 53 60 62 58 56 63 89 100 90 75 64 61 72 90 98 95 94 99 98 99
47 53 53 55 59 58 91 68 59 61 58 47 45 46 46 52 48 51 53 53 53 56 55 54 55 58 58 63 54 69 66 66 59 65 80 58 58 64 79 94 95 94 100 100 98
57 82 48 51 69 63 82 65 62 57 58 49 46 47 47 51 53 51 52 52 54 57 56 54 56 65 51 46 46 48 50 43 59 61 54 54 52 59 70 74 92 90 99 98 99
51 56 43 51 79 68 53 57 56 52 54 49 52 50 51 52 53 49 51 52 56 56 54 52 59 69 52 48 46 54 45 44 45 53 63 56 42 56 65 72 84 82 92 98 92
55 85 57 58 71 48 50 53 56 60 51 50 48 47 46 46 45 50 50 54 58 58 64 59 53 56 55 44 43 45 44 45 50 66 45 41 31 52 61 63 73 82 83 78 68
53 65 64 61 48 46 47 50 52 55 48 46 43 47 47 41 41 43 45 46 58 63 58 53 62 58 50 41 39 42 44 41 56 54 50 30 36 30 41 53 59 68 66 60 58
51 53 58 50 55 41 44 51 52 54 49 44 42 44 38 41 45 44 44 39 38 45 47 51 64 55 76 40 44 49 41 40 40 40 42 39 40 27 28 44 48 52 54 57 55
49 48 54 51 44 38 40 46 51 55 56 50 47 45 41 45 50 48 49 47 44 42 43 48 56 61 59 38 37 38 30 35 36 33 34 39 28 27 32 39 45 46 50 52 52

GFSSW_850_rhum_108.txt.gz
RH
90 94 90 90 78 72 72 66 82 88 79 63 54 78 85 94 91 88 74 58 49 25 28 45 50 52 53 56 50 34 39 30 24 20 36 28 26 30 30 27 22 21 22 20 19
77 81 85 84 83 71 82 70 65 90 84 77 70 50 76 80 98 98 78 59 43 24 42 43 44 41 39 44 38 32 36 39 30 32 34 29 28 25 25 22 20 19 18 18 18
76 77 76 79 71 76 88 76 64 78 91 81 75 72 73 96 86 91 79 49 34 38 39 34 40 35 35 34 33 28 41 29 34 40 34 28 25 24 26 29 20 18 19 19 21
77 73 77 76 77 81 76 65 68 73 83 84 75 71 65 99 89 89 75 42 37 51 43 37 37 30 38 38 34 33 32 30 36 43 36 31 28 25 22 21 19 20 20 20 23
77 71 74 82 74 66 65 65 68 71 74 72 77 74 88 98 83 75 95 71 37 54 43 35 32 26 32 33 33 31 32 35 36 37 32 28 28 26 22 21 21 22 26 27 28
85 72 64 64 63 56 69 70 81 82 86 80 76 78 78 96 80 81 100 78 54 53 44 35 28 30 29 30 33 34 35 30 30 30 29 32 29 24 20 22 27 30 33 33 34
82 77 79 78 72 60 77 74 74 82 87 88 70 82 91 90 75 93 95 62 56 52 48 42 35 31 33 36 36 34 34 35 31 30 32 39 42 38 25 22 26 33 34 36 39
91 89 78 69 68 62 76 71 70 75 86 85 78 90 93 96 79 94 67 61 58 52 48 41 38 36 34 36 32 35 31 39 35 33 40 42 36 29 22 28 33 35 38 47 53
98 83 68 71 79 71 67 67 68 90 95 79 95 93 98 98 92 76 70 62 53 49 45 41 39 39 36 44 58 33 73 37 43 34 37 46 46 29 30 30 34 37 47 53 56
72 68 76 79 80 72 66 58 70 97 94 77 89 93 100 100 86 79 62 58 56 40 31 34 43 42 38 54 87 56 49 40 37 45 44 50 49 38 33 31 33 41 47 53 62
66 62 61 59 59 93 98 86 96 95 96 99 98 100 94 91 67 61 60 51 44 37 51 49 61 67 42 47 39 42 38 49 43 39 54 56 52 44 34 33 40 46 50 59 72
81 78 76 70 60 94 89 97 98 96 96 100 100 98 98 96 69 59 50 43 41 56 40 54 65 43 39 41 43 44 45 53 48 43 49 56 57 49 42 43 49 51 55 64 70
92 91 89 80 78 90 79 79 80 86 96 100 100 99 99 90 81 69 54 42 40 47 45 62 48 43 45 67 52 50 48 52 66 56 51 56 62 50 44 49 52 51 56 67 79
97 88 95 82 80 93 78 76 72 81 99 100 99 97 98 86 80 69 64 52 42 45 49 54 46 46 50 70 53 59 44 49 59 74 91 60 94 56 56 52 49 49 63 81 86
90 85 89 84 88 92 80 73 76 79 92 98 98 98 91 84 71 59 61 63 45 47 54 70 58 59 57 63 48 62 51 56 61 63 77 64 89 69 47 48 53 67 83 89 82
68 75 88 89 87 82 84 86 83 99 98 100 97 93 67 59 61 65 59 56 51 51 52 56 52 52 56 47 48 47 57 62 59 69 83 71 78 71 62 59 68 72 85 93 81
63 66 71 81 84 87 84 77 99 94 95 98 97 84 54 57 57 50 55 61 71 90 94 66 60 54 54 59 56 58 72 84 91 92 90 64 69 68 66 79 80 85 89 94 95
64 58 56 65 71 75 60 88 88 89 90 86 70 58 61 52 56 56 55 66 53 52 87 77 95 63 56 63 72 77 81 96 81 84 86 61 86 75 78 78 85 89 88 97 98
64 64 58 52 52 55 85 94 97 82 54 53 48 60 61 55 55 54 48 57 53 52 65 86 93 56 56 48 59 88 95 70 92 68 89 81 69 79 80 78 78 85 92 96 98
63 68 63 66 65 66 78 76 66 46 44 46 53 46 57 57 56 56 50 51 58 49 50 58 76 57 59 59 60 64 60 91 97 95 90 82 75 87 94 86 85 86 89 93 98
59 60 57 63 62 58 97 73 58 57 58 53 43 44 46 52 44 48 53 54 50 54 54 54 58 66 65 75 66 66 67 64 60 71 80 84 82 67 85 79 80 78 83 94 98
53 94 51 60 76 61 93 62 56 53 53 47 46 51 51 46 47 51 56 56 55 54 54 58 66 81 65 52 47 51 57 54 76 78 73 66 76 63 74 78 81 81 86 96 95
55 56 54 55 93 83 56 57 55 50 52 48 52 49 48 50 57 50 53 51 55 54 65 57 68 85 59 53 47 57 53 54 47 67 81 81 68 66 70 79 82 78 85 92 97
54 91 58 49 54 51 53 52 57 55 48 45 46 44 44 45 42 52 55 55 57 57 60 60 60 68 82 56 45 54 50 52 56 90 73 66 52 76 74 74 78 78 81 87 88
51 70 62 85 55 48 46 48 50 53 46 44 43 44 45 42 40 46 44 55 59 62 60 59 72 61 62 56 52 51 49 50 61 61 69 45 46 38 53 68 68 72 77 81 79
56 61 50 48 48 51 44 51 51 51 52 43 42 41 39 42 47 44 42 41 40 57 54 56 75 62 86 54 49 57 50 46 45 49 55 54 55 37 30 43 57 65 72 73 66
41 47 51 44 42 44 50 50 52 56 53 50 50 50 41 54 53 53 52 48 46 43 50 52 68 76 81 55 58 62 43 43 45 42 43 54 42 33 32 43 51 54 58 58 56

GFSSW_850_rhum_111.txt.gz
RH
79 76 99 99 96 91 84 82 73 82 73 55 70 100 85 86 95 84 72 64 50 26 25 36 49 53 55 53 48 30 44 39 44 37 39 29 31 28 27 24 22 22 20 20 21
79 78 83 88 90 89 77 80 72 85 79 71 53 70 97 94 89 83 80 62 52 33 34 44 49 43 45 47 33 36 53 41 41 40 37 30 28 25 25 26 23 21 20 20 18
81 74 79 78 76 75 77 84 69 83 75 74 72 66 71 88 82 89 88 69 40 41 41 42 37 36 38 38 34 31 45 38 49 38 32 30 27 27 27 28 23 20 20 19 18
84 74 75 71 70 77 84 79 74 70 76 79 70 68 73 93 76 83 82 51 30 41 37 38 39 35 42 43 34 38 36 37 41 39 35 34 29 27 25 23 22 21 21 20 21
79 66 72 75 75 73 75 68 65 65 77 74 74 78 91 75 85 81 86 78 38 38 38 39 32 30 43 39 30 34 38 35 38 33 31 30 30 31 25 21 21 22 31 34 34
82 72 73 63 55 59 64 73 74 73 76 75 75 82 87 89 85 78 100 53 46 42 40 38 32 30 34 36 39 40 36 33 31 31 29 32 34 32 21 22 23 30 34 34 38
85 77 77 73 60 73 74 72 89 85 87 84 71 82 85 93 88 72 78 57 56 50 45 40 34 32 32 39 34 32 35 34 33 32 35 36 39 44 21 24 28 35 38 45 54
90 74 61 65 60 71 70 72 71 81 90 76 80 84 94 92 96 99 66 59 54 50 44 37 33 34 36 34 33 38 36 46 36 34 39 39 24 34 23 27 33 37 48 52 64
81 68 68 73 65 66 71 72 82 87 87 92 91 78 99 96 94 70 69 56 51 48 41 36 33 36 36 52 67 40 76 42 43 37 41 45 43 34 25 33 34 40 48 53 64
63 68 69 70 66 68 68 67 95 86 88 92 87 92 97 100 84 69 59 48 40 33 28 27 37 49 48 73 68 58 55 42 39 47 44 52 58 46 34 38 35 44 52 59 62
70 59 57 62 82 72 57 90 90 91 98 100 100 99 98 96 79 70 55 44 35 40 50 50 68 71 51 44 41 41 43 50 44 48 50 59 62 53 43 39 46 52 59 62 63
74 75 64 77 84 83 72 86 99 96 98 100 99 98 97 95 97 62 53 47 46 56 43 68 69 46 47 48 48 49 47 57 55 50 51 61 63 53 51 50 53 53 60 66 69
87 75 73 56 86 78 74 82 83 82 97 98 99 99 98 78 78 66 58 44 47 48 54 71 55 45 57 65 56 52 52 66 69 62 59 64 68 52 51 54 52 52 71 76 75
76 74 68 63 76 79 69 77 85 82 93 99 98 97 92 76 76 69 58 57 45 57 60 62 48 50 63 68 57 66 53 56 65 78 90 65 82 72 57 61 60 72 79 80 80
76 68 63 64 67 73 68 74 74 78 90 98 98 98 91 81 70 51 62 53 49 54 62 73 59 59 61 66 50 69 56 62 65 72 83 75 92 75 61 62 71 89 88 87 83
67 73 59 60 60 65 68 74 76 84 97 100 97 93 87 75 66 53 59 55 51 60 62 61 52 55 62 52 52 55 63 67 61 72 96 76 82 80 68 57 76 87 88 89 89
61 68 62 62 65 72 77 68 87 94 98 99 98 81 64 66 61 62 62 65 77 77 90 66 65 56 55 65 58 57 79 94 88 98 91 69 82 75 64 80 81 85 89 87 97
54 60 69 71 75 78 72 88 89 96 99 88 75 62 67 56 59 57 63 70 54 69 96 87 82 72 60 60 79 78 77 95 92 98 91 67 83 70 80 83 82 83 81 82 94
65 61 53 53 67 69 75 94 94 87 67 78 68 65 65 58 60 60 61 65 59 60 77 88 91 61 61 46 63 85 90 73 93 83 95 86 71 72 84 86 85 81 81 84 87
58 71 70 66 67 70 80 82 71 54 48 49 59 50 64 63 63 63 60 55 63 54 55 64 89 67 63 60 62 68 67 86 96 96 80 85 79 84 91 88 86 87 85 84 90
64 61 62 68 62 55 94 75 65 57 60 59 54 52 52 56 58 57 61 57 53 58 57 58 65 73 72 82 75 70 76 72 68 74 83 91 81 73 76 86 87 83 79 83 91
54 75 59 66 65 77 91 69 56 55 53 51 54 60 54 49 50 64 68 63 56 58 65 61 72 93 74 61 57 63 68 68 85 83 74 82 78 64 75 82 79 79 79 86 95
53 56 55 68 87 91 62 59 59 58 54 54 56 52 50 54 63 57 64 56 57 58 66 62 77 89 73 61 53 60 62 61 59 73 81 89 75 77 77 83 81 80 80 83 86
49 78 53 50 56 58 60 57 61 53 50 47 48 50 50 49 46 59 67 58 58 61 60 61 74 74 80 62 59 69 62 64 66 94 78 84 70 78 84 84 82 78 73 74 78
46 62 65 82 56 61 53 55 54 61 49 44 45 48 50 48 46 52 55 60 61 65 62 68 81 69 68 68 65 64 59 58 76 64 75 56 59 46 67 81 68 57 67 71 73
48 56 52 50 49 50 52 55 60 56 56 51 51 48 44 52 54 58 52 50 62 69 63 64 74 71 84 63 66 72 64 58 54 59 59 56 56 40 36 38 56 60 64 70 66
40 46 49 45 52 54 58 57 58 57 54 50 52 54 50 56 53 50 54 56 54 61 66 72 78 80 74 71 69 53 52 52 52 52 50 64 48 44 42 49 53 57 59 57 53

GFSSW_850_rhum_114.txt.gz
RH
83 80 80 90 82 93 95 85 74 82 66 64 85 91 95 88 84 78 60 54 40 35 33 34 48 55 54 52 41 30 47 47 44 40 41 31 33 29 26 24 21 22 22 22 22
86 80 79 92 88 97 95 87 81 80 71 54 84 98 98 82 92 85 69 57 43 41 46 51 54 54 48 44 35 38 57 46 44 39 37 30 28 27 24 26 23 21 20 20 20
76 72 74 79 69 63 80 89 82 74 79 71 60 84 98 98 78 94 85 70 48 42 47 51 40 36 41 33 33 37 49 47 48 36 31 30 28 27 27 26 23 22 20 19 18
73 72 71 75 77 80 80 85 78 72 80 73 69 65 92 92 90 87 85 56 34 44 42 43 42 38 43 43 35 43 40 40 44 33 30 34 29 25 26 23 23 22 21 21 23
70 72 76 74 78 84 84 80 79 74 80 79 76 72 91 82 75 82 79 58 42 39 39 42 37 37 48 38 30 42 40 40 38 31 29 30 28 29 24 20 21 22 34 34 35
70 66 58 52 54 62 67 71 82 75 72 67 74 81 87 90 90 90 97 45 46 40 39 37 32 34 39 38 39 40 39 38 31 31 30 31 33 34 21 20 22 32 35 38 46
76 70 64 60 74 78 75 74 80 81 78 78 75 92 90 98 91 96 58 53 51 46 40 34 33 32 34 42 35 35 38 35 34 33 36 37 32 45 22 24 25 36 42 52 57
67 65 64 61 70 75 69 75 87 88 81 76 75 83 99 99 99 94 59 57 52 47 38 34 32 31 35 32 33 37 40 38 36 35 40 35 18 31 23 25 28 41 54 60 65
77 73 74 64 74 70 68 62 79 82 80 78 87 79 98 100 97 85 72 52 50 46 37 34 29 34 36 54 65 52 60 42 41 39 44 44 32 36 26 33 35 42 56 64 66
63 69 70 63 60 58 82 81 82 84 87 85 81 76 97 98 94 99 74 54 43 41 35 30 35 52 56 63 55 52 61 43 41 44 44 50 58 49 32 35 40 42 57 62 69
62 59 72 65 66 59 82 83 75 91 96 100 100 100 96 91 81 78 74 49 37 37 46 53 64 66 50 46 53 47 54 48 47 47 51 58 62 56 43 44 48 54 62 65 70
74 59 80 67 57 59 72 75 97 95 98 99 100 97 99 91 69 57 50 46 50 51 51 67 69 48 50 49 49 47 57 63 58 53 55 63 66 57 55 55 48 58 67 69 70
73 61 74 76 78 74 69 78 82 83 97 99 100 98 99 90 89 63 51 45 53 57 63 69 55 50 54 60 58 60 63 67 68 63 60 66 57 56 56 57 58 61 69 74 72
74 61 51 71 69 72 71 82 79 80 91 99 98 97 97 93 85 63 57 52 46 64 63 63 50 58 67 65 61 69 56 60 70 76 68 62 63 63 59 66 65 80 81 81 81
60 56 59 63 63 70 75 74 76 79 90 96 98 97 89 89 85 61 60 52 56 58 52 70 57 59 71 63 56 69 56 63 64 74 79 72 89 69 63 67 71 89 87 86 84
60 63 60 60 58 60 68 76 74 79 96 100 96 90 73 73 63 58 56 53 54 66 65 63 51 58 60 56 56 55 65 70 75 80 86 71 81 77 71 61 70 89 88 87 86
60 58 57 59 60 64 71 73 84 95 96 99 95 76 75 81 61 61 60 64 75 74 92 70 68 58 57 71 61 62 79 91 80 96 79 75 85 75 55 71 72 84 82 83 86
55 58 62 63 70 74 76 80 89 95 100 84 83 76 81 70 59 59 62 70 57 76 94 90 78 71 58 64 73 80 78 89 81 97 91 73 89 71 66 77 78 77 78 82 86
66 61 57 56 64 71 70 95 89 83 77 82 77 69 69 61 61 64 64 70 62 63 81 90 92 64 62 49 61 78 89 71 89 85 96 88 70 63 86 88 90 87 84 84 84
64 66 72 70 70 68 81 88 77 60 54 62 70 55 69 66 66 63 65 58 63 56 59 72 94 69 62 58 60 65 68 88 90 91 92 85 80 81 83 80 87 88 85 80 82
66 61 68 73 66 57 93 77 63 55 58 61 63 53 56 62 62 63 65 60 60 58 60 63 71 77 70 82 80 76 84 74 75 88 92 90 73 66 67 66 73 80 75 76 74
59 76 66 69 64 83 91 68 57 56 56 55 56 58 56 58 60 72 71 64 56 59 67 63 77 97 84 64 65 68 78 74 86 78 82 83 79 52 68 70 73 68 68 68 69
51 58 56 61 86 91 64 60 58 60 56 55 60 56 51 57 63 63 66 60 59 61 65 62 76 89 80 64 55 68 69 66 67 75 80 91 73 71 78 78 72 72 64 63 65
51 76 52 50 62 63 61 61 59 53 51 48 50 50 52 50 53 62 67 59 60 64 60 59 78 73 74 58 68 72 70 72 69 90 80 80 71 56 80 86 75 68 61 58 60
41 64 66 77 57 57 56 56 57 61 52 47 48 48 51 51 49 56 63 63 63 66 64 70 83 76 76 74 71 70 65 69 80 69 70 51 70 42 45 58 60 49 54 62 63
47 48 54 52 52 50 58 58 59 59 55 53 50 53 47 50 50 57 52 64 69 73 72 72 70 74 83 65 70 79 70 66 63 67 67 60 59 39 36 38 46 42 50 60 57
41 48 52 53 57 56 57 57 58 59 55 51 52 56 54 52 53 50 53 58 58 68 75 75 80 80 77 66 72 54 53 60 61 60 52 66 50 42 44 45 43 36 39 42 46

GFSSW_850_rhum_117.txt.gz
RH
78 83 78 75 80 83 98 99 85 86 73 69 83 72 94 97 92 76 50 57 43 34 40 46 53 61 55 49 35 28 50 49 43 42 40 32 32 29 26 23 23 23 28 25 24
80 76 81 89 90 90 75 90 88 91 66 67 89 99 88 96 96 76 64 59 42 37 39 50 56 56 50 42 31 40 57 47 44 39 38 31 28 27 24 24 24 22 21 21 20
71 73 75 82 71 78 82 95 91 94 75 63 86 91 88 99 98 91 68 70 56 44 48 54 50 45 43 32 34 40 51 49 46 36 31 30 29 27 26 25 23 21 21 21 25
67 72 71 75 76 83 86 77 81 90 82 75 71 87 96 98 90 81 86 75 53 48 51 48 40 36 42 43 35 45 43 43 41 33 29 31 28 25 27 24 23 22 22 31 33
64 72 70 70 73 75 75 85 88 86 83 74 79 74 98 88 93 88 89 65 42 45 42 44 38 37 43 38 36 46 46 42 36 29 30 28 28 28 22 21 23 22 34 34 35
65 61 51 57 66 71 80 71 81 76 82 73 82 85 87 86 96 88 97 56 49 43 41 40 32 34 39 41 41 42 42 38 32 31 32 28 33 32 20 19 20 31 35 36 39
59 59 58 78 78 74 75 78 84 75 68 62 87 88 82 98 100 86 59 53 46 41 39 33 35 33 33 42 37 35 42 36 36 34 40 39 28 37 22 24 28 34 42 44 47
79 81 71 67 68 66 70 86 81 83 78 71 89 84 99 92 97 89 51 50 48 40 35 34 33 30 33 31 35 37 41 35 37 35 43 28 15 25 24 25 27 40 54 60 61
72 75 58 67 66 65 66 77 80 77 74 76 80 79 99 98 99 83 53 48 44 39 35 32 29 35 34 51 62 50 54 40 42 39 46 40 25 33 28 26 36 38 60 68 66
63 68 62 66 62 76 82 82 84 79 81 76 73 73 94 100 99 84 62 45 43 37 33 30 32 53 62 50 56 45 67 44 45 45 45 49 56 47 34 33 34 38 56 73 74
55 67 66 64 76 86 79 76 71 82 94 99 96 98 99 97 97 86 63 44 37 28 50 54 61 65 50 48 49 50 50 50 52 48 53 59 62 57 41 41 44 43 51 74 78
56 82 71 60 68 80 76 75 100 93 96 100 99 98 95 88 88 87 68 65 41 56 50 64 67 48 50 48 49 50 55 64 61 53 59 67 70 62 57 56 50 49 58 71 77
62 78 84 85 79 74 76 88 87 92 97 99 99 99 96 87 88 74 82 58 55 64 60 67 54 51 52 56 62 66 65 66 63 63 62 70 50 54 57 60 64 59 62 70 74
62 58 75 74 76 76 78 78 76 81 92 99 98 97 94 90 72 62 59 51 52 64 64 66 52 60 65 66 61 64 58 65 68 71 58 66 57 50 59 65 68 78 75 74 75
52 52 64 62 65 74 71 71 69 78 90 93 97 99 95 88 79 56 58 50 60 66 48 67 58 66 71 63 59 67 58 65 66 79 77 68 86 66 65 69 74 80 80 79 79
55 63 66 61 62 63 68 74 71 78 95 100 96 95 93 73 69 58 55 50 54 66 67 63 53 60 60 59 58 59 69 72 82 80 79 66 82 72 69 61 56 78 76 81 84
57 57 59 61 60 63 71 75 84 94 92 96 98 93 79 82 61 60 63 68 73 73 90 75 73 61 58 69 62 67 78 82 63 86 70 74 87 75 52 58 62 72 79 82 81
56 57 59 65 68 72 77 79 89 89 98 82 82 70 79 65 61 61 61 73 67 72 92 86 73 69 58 64 72 79 73 78 43 94 92 77 92 67 58 72 74 72 73 76 78
67 71 69 64 62 70 74 96 88 82 79 90 84 73 70 62 62 63 66 70 63 66 72 93 88 65 64 58 60 71 88 72 89 87 95 89 71 61 79 81 84 81 80 76 76
68 66 75 75 73 68 81 90 79 63 67 67 71 61 73 67 68 64 67 61 63 59 60 72 94 68 62 57 61 65 72 84 88 90 93 86 80 77 73 70 77 88 84 75 77
68 62 67 59 59 54 93 78 63 58 58 62 66 56 63 64 63 64 68 62 61 61 62 70 73 68 64 80 82 81 83 77 79 84 91 88 64 63 64 63 60 70 66 67 68
62 74 62 58 62 83 91 67 58 58 58 57 60 57 60 59 62 73 68 66 59 60 69 66 80 96 82 65 67 70 78 77 86 76 86 84 77 49 69 60 64 57 51 53 57
55 58 59 58 85 91 66 60 58 58 56 55 60 56 53 59 67 67 68 64 62 65 68 63 75 88 74 67 66 76 76 72 71 78 84 90 60 60 76 76 67 61 51 51 53
53 75 52 53 63 66 63 62 59 54 52 50 51 51 50 53 59 67 67 62 62 67 61 58 79 69 64 49 69 79 73 75 72 92 83 84 72 53 52 77 68 59 52 48 49
42 65 67 75 60 61 58 56 60 58 53 48 48 49 52 52 53 65 67 67 66 67 67 69 74 82 79 78 71 70 69 77 83 70 76 56 69 44 43 42 38 30 40 50 49
43 48 54 55 55 52 58 58 58 60 54 51 48 52 48 51 51 59 61 64 64 75 70 76 70 74 86 68 80 82 77 74 72 74 73 69 70 44 39 38 41 40 40 44 41
38 45 44 60 61 57 56 55 55 59 54 53 52 55 56 51 52 52 53 56 59 77 79 80 82 80 78 62 72 56 62 58 63 67 59 72 51 43 46 46 40 31 32 34 32

GFSSW_850_rhum_120.txt.gz
RH
77 77 77 75 79 81 71 76 98 98 81 72 81 87 82 72 100 82 52 64 54 39 38 44 50 62 61 50 35 28 47 53 49 46 39 34 32 29 27 24 24 28 34 30 25
62 66 79 88 92 95 94 86 95 98 84 72 75 86 78 95 100 83 78 79 58 40 44 50 58 58 50 37 30 41 50 45 42 39 41 33 28 27 25 25 24 22 22 22 22
63 57 66 78 74 82 82 82 74 94 81 68 90 95 90 89 99 94 91 78 69 47 45 53 59 50 42 33 35 43 46 48 43 36 30 30 29 27 26 26 24 22 22 23 27
64 59 67 70 73 87 93 91 98 97 94 68 79 91 99 96 96 96 90 75 58 51 52 56 46 39 41 42 37 50 47 44 42 34 29 29 27 26 26 23 22 22 25 30 32
86 50 55 63 72 78 84 93 92 95 96 76 73 75 94 91 98 97 93 72 45 50 50 44 37 36 44 39 38 48 48 42 32 27 30 26 29 26 22 24 23 22 32 34 34
71 66 69 61 62 73 75 79 86 83 84 79 78 81 88 95 100 96 98 52 48 43 45 39 33 32 37 46 46 46 43 37 31 32 33 26 31 31 21 19 22 23 33 36 38
73 74 66 72 70 72 74 83 84 73 64 71 83 83 89 98 99 85 57 55 43 40 41 33 32 31 35 45 39 36 40 38 40 34 42 39 26 30 23 23 27 33 38 41 47
80 73 71 72 72 73 86 82 79 67 66 79 87 78 98 100 98 75 53 48 41 38 35 35 32 29 34 34 34 37 38 33 38 36 44 26 13 27 23 26 31 38 44 50 56
64 63 65 67 74 72 84 80 77 70 70 84 83 86 98 100 100 80 52 45 37 36 33 31 26 36 31 48 61 50 52 40 40 40 45 39 20 30 30 27 31 39 51 59 64
56 61 61 71 81 86 89 87 84 77 74 69 67 74 94 99 97 93 48 44 36 33 31 28 31 52 58 50 53 43 60 43 43 44 47 49 53 45 34 31 29 38 44 67 69
59 72 65 68 88 82 79 73 66 86 93 100 95 99 99 100 96 88 56 40 33 34 51 45 64 65 50 50 38 54 49 50 55 50 56 57 63 57 41 45 43 34 37 55 70
66 62 61 71 76 76 75 82 96 96 97 99 99 98 94 89 93 83 56 47 41 62 46 64 70 52 51 51 54 51 54 67 62 55 62 67 71 60 57 54 47 41 38 44 74
69 74 74 79 79 74 80 89 87 84 97 97 100 99 99 87 92 89 73 59 56 63 59 65 57 54 52 62 60 70 62 63 60 62 62 71 47 42 59 62 62 58 54 50 64
51 75 72 74 73 71 75 73 72 76 91 99 98 98 94 93 92 78 71 63 54 66 66 68 55 62 66 68 59 58 62 68 68 65 53 64 55 39 53 65 70 70 65 65 73
44 58 67 70 72 72 71 71 71 77 89 97 97 98 89 88 88 81 63 54 63 66 50 71 65 69 72 65 59 68 62 70 70 80 75 66 79 53 65 64 67 75 69 69 73
53 55 57 65 67 66 68 74 71 78 95 100 97 94 82 74 67 56 56 51 55 66 70 65 57 64 61 66 62 63 70 67 79 78 73 64 80 63 60 58 52 65 64 67 73
56 56 58 60 62 66 72 75 83 93 96 99 100 91 78 72 63 62 66 72 70 62 89 74 74 63 60 67 63 67 76 74 58 80 68 74 89 71 51 54 54 56 58 65 72
62 64 62 61 65 67 72 77 89 90 100 92 90 80 76 64 62 63 66 76 71 73 92 77 64 67 61 64 69 78 69 72 32 75 88 83 95 68 56 69 65 66 63 66 74
71 77 77 72 64 64 67 96 90 91 87 92 76 75 72 63 63 66 68 70 66 63 66 93 94 67 65 62 59 79 84 69 88 90 92 87 71 59 62 74 79 76 76 70 70
66 73 80 77 70 62 80 91 79 68 73 71 70 64 75 69 69 67 69 63 66 61 60 73 95 69 63 61 65 65 71 82 91 77 84 81 77 74 66 66 75 82 75 66 68
64 65 73 65 59 53 92 78 66 60 60 68 64 62 66 68 66 68 70 65 62 65 63 70 74 73 64 78 82 85 83 82 81 83 88 84 54 62 60 58 54 58 54 55 56
61 75 61 60 64 84 91 68 60 60 60 61 59 57 61 60 67 74 68 66 60 60 70 67 80 96 79 66 68 71 75 77 83 74 88 87 75 46 63 60 58 52 46 44 43
55 55 53 52 84 91 67 61 59 58 56 57 60 55 55 62 72 72 72 66 64 64 70 65 76 88 72 68 73 80 79 73 73 79 86 87 48 50 63 72 64 63 50 45 42
49 74 48 51 63 67 64 63 60 56 53 51 53 52 50 57 62 74 73 65 66 68 64 57 78 66 60 46 74 86 80 78 72 93 82 86 72 51 44 49 48 48 48 48 47
41 69 63 75 63 64 62 59 62 60 53 50 48 51 52 56 55 69 69 71 70 71 70 64 64 84 78 76 72 72 73 86 85 73 80 64 78 54 47 45 39 38 36 37 37
44 50 54 59 59 53 58 63 57 59 57 51 47 54 52 52 49 54 65 65 62 77 71 78 66 75 85 67 80 87 80 79 82 78 79 74 76 50 46 47 44 38 37 34 31
39 47 42 63 63 55 55 58 56 59 56 54 53 54 54 54 54 55 57 59 60 76 79 77 80 80 74 64 74 58 69 75 74 75 67 74 52 46 46 46 42 36 34 33 31